[[{"header":{"parameterUnit":"m.s-1","parameterCategory":1,"la1":31.0,"la2":29.5877,"lo1":-88.7671,"lo2":-86.6584,"dy":0.0162,"dx":0.0185,"nx":115,"ny":88,"refTime":"2023-05-12T06:00:00:Z","depth":0,"parameterNumber":2,"parameterNumberName":"U-component_of_WINDS"},"data":[0.0,0.0,0.0,0.0,0.0,0.0,0.0,0.0,0.0,0.0,0.0,0.0,0.0,0.0,0.0,0.0,0.0,0.0,0.0,0.0,0.0,0.0,0.0,0.0,0.0,0.0,0.0,0.0,0.0,0.0,0.0,0.0,0.0,0.0,0.0,0.0,0.0,0.0,0.0,0.0,0.0,0.0,0.0,0.0,0.0,0.0,0.0,0.0,0.0,0.0,0.0,0.0,0.0,0.0,0.0,0.0,0.0,0.0,0.0,0.0,0.0,0.0,0.0,0.0,0.0,0.0,0.0,0.0,0.0,0.0,0.0,0.0,0.0,0.0,0.0,0.0,0.0,0.0,0.0,0.0,0.0,0.0,0.0,0.0,0.0,0.0,0.0,0.0,0.0,0.0,0.0,0.0,0.0,0.0,0.0,0.0,0.0,0.0,0.0,0.0,0.0,0.0,0.0,0.0,0.0,0.0,0.0,0.0,0.0,0.0,0.0,0.0,0.0,0.0,0.0,0.0,0.0,0.0,0.0,0.0,0.0,0.0,0.0,0.0,0.0,0.0,0.0,0.0,0.0,0.0,0.0,0.0,0.0,0.0,0.0,0.0,0.0,0.0,0.0,0.0,0.0,0.0,0.0,0.0,0.0,0.0,0.0,0.0,0.0,0.0,0.0,0.0,0.0,0.0,0.0,0.0,0.0,0.0,0.0,0.0,0.0,0.0,0.0,0.0,0.0,0.0,0.0,0.0,0.0,0.0,0.0,0.0,0.0,0.0,0.0,0.0,0.0,0.0,0.0,0.0,0.0,0.0,0.0,0.0,0.0,0.0,0.0,0.0,0.0,0.0,0.0,0.0,0.0,0.0,0.0,0.0,0.0,0.0,0.0,0.0,0.0,0.0,0.0,0.0,0.0,0.0,0.0,0.0,0.0,0.0,0.0,0.0,0.0,0.0,0.0,0.0,0.0,0.0,0.0,0.0,0.0,0.0,0.0,0.0,0.0,0.0,0.0,0.0,0.0,0.0,0.0,0.0,0.0,0.0,0.0,0.0,0.0,0.0,0.0,0.0,0.0,0.0,0.0,0.0,0.0,0.0,0.0,0.0,0.0,0.0,0.0,0.0,0.0,0.0,0.0,0.0,0.0,0.0,0.0,0.0,0.0,0.0,0.0,0.0,0.0,0.0,0.0,0.0,0.0,0.0,0.0,0.0,0.0,0.0,0.0,0.0,0.0,0.0,0.0,0.0,0.0,0.0,0.0,0.0,0.0,0.0,0.0,0.0,0.0,0.0,0.0,0.0,0.0,0.0,0.0,0.0,0.0,0.0,0.0,0.0,0.0,0.0,0.0,0.0,0.0,0.0,0.0,0.0,0.0,0.0,0.0,0.0,0.0,0.0,0.0,0.0,0.0,0.0,0.0,0.0,0.0,0.0,0.0,0.0,0.0,0.0,0.0,0.0,0.0,0.0,0.0,0.0,0.0,0.0,0.0,0.0,0.0,0.0,0.0,0.0,0.0,0.0,0.0,0.0,0.0,0.0,0.0,0.0,0.0,0.0,0.0,0.0,0.0,0.0,0.0,0.0,0.0,0.0,0.0,0.0,0.0,0.0,0.0,0.0,0.0,0.0,0.0,0.0,0.0,0.0,0.0,0.0,0.0,0.0,0.0,0.0,0.0,0.0,0.0,0.0,0.0,0.0,0.0,0.0,0.0,0.0,0.0,0.0,0.0,0.0,0.0,0.0,0.0,0.0,0.0,0.0,0.0,0.0,0.0,0.0,0.0,0.0,0.0,0.0,0.0,0.0,0.0,0.0,0.0,0.0,0.0,0.0,0.0,0.0,0.0,0.0,0.0,0.0,0.0,0.0,0.0,0.0,0.0,0.0,0.0,0.0,0.0,0.0,0.0,0.0,0.0,0.0,0.0,0.0,0.0,0.0,0.0,0.0,0.0,0.0,0.0,0.0,0.0,0.0,0.0,0.0,0.0,0.0,0.0,0.0,0.0,0.0,0.0,0.0,0.0,0.0,0.0,0.0,0.0,0.0,0.0,0.0,0.0,0.0,0.0,0.0,0.0,0.0,0.0,0.0,0.0,0.0,0.0,0.0,0.0,0.0,0.0,0.0,0.0,0.0,0.0,0.0,0.0,0.0,0.0,0.0,0.0,0.0,0.0,0.0,0.0,0.0,0.0,0.0,0.0,0.0,0.0,0.0,0.0,0.0,0.0,0.0,0.0,0.0,0.0,0.0,0.0,0.0,0.0,0.0,0.0,0.0,0.0,0.0,0.0,0.0,0.0,0.0,0.0,0.0,0.0,0.0,0.0,0.0,0.0,0.0,0.0,0.0,0.0,0.0,0.0,0.0,0.0,0.0,0.0,0.0,0.0,0.0,0.0,0.0,0.0,0.0,0.0,0.0,0.0,0.0,0.0,0.0,0.0,0.0,0.0,0.0,0.0,0.0,0.0,0.0,0.0,0.0,0.0,0.0,0.0,0.0,0.0,0.0,0.0,0.0,0.0,0.0,0.0,0.0,0.0,0.0,0.0,0.0,0.0,0.0,0.0,0.0,0.0,0.0,0.0,0.0,0.0,0.0,0.0,0.0,0.0,0.0,0.0,0.0,0.0,0.0,0.0,0.0,0.0,0.0,0.0,0.0,0.0,0.0,0.0,0.0,0.0,0.0,0.0,0.0,0.0,0.0,0.0,0.0,0.0,0.0,0.0,0.0,0.0,0.0,0.0,0.0,0.0,0.0,0.0,0.0,0.0,0.0,0.0,0.0,0.0,0.0,0.0,0.0,0.0,0.0,0.0,0.0,0.0,0.0,0.0,0.0,0.0,0.0,0.0,0.0,0.0,0.0,0.0,0.0,0.0,0.0,0.0,0.0,0.0,0.0,0.0,0.0,0.0,0.0,0.0,0.0,0.0,0.0,0.0,0.0,0.0,0.0,0.0,0.0,0.0,0.0,0.0,0.0,0.0,0.0,0.0,0.0,0.0,0.0,0.0,0.0,0.0,0.0,0.0,0.0,0.0,0.0,0.0,0.0,0.0,0.0,0.0,0.0,0.0,0.0,0.0,0.0,0.0,0.0,0.0,0.0,0.0,0.0,0.0,0.0,0.0,0.0,0.0,0.0,0.0,0.0,0.0,0.0,0.0,0.0,0.0,0.0,0.0,0.0,0.0,0.0,0.0,0.0,0.0,0.0,0.0,0.0,0.0,0.0,0.0,0.0,0.0,0.0,0.0,0.0,0.0,0.0,0.0,0.0,0.0,0.0,0.0,0.0,0.0,0.0,0.0,0.0,0.0,0.0,0.0,0.0,0.0,0.0,0.0,0.0,0.0,0.0,0.0,0.0,0.0,0.0,0.0,0.0,0.0,0.0,0.0,0.0,0.0,0.0,0.0,0.0,0.0,0.0,0.0,0.0,0.0,0.0,0.0,0.0,0.0,0.0,0.0,0.0,0.0,0.0,0.0,0.0,0.0,0.0,0.0,0.0,0.0,0.0,0.0,0.0,0.0,0.0,0.0,0.0,0.0,0.0,0.0,0.0,0.0,0.0,0.0,0.0,0.0,0.0,0.0,0.0,0.0,0.0,0.0,0.0,0.0,0.0,0.0,0.0,0.0,0.0,0.0,0.0,0.0,0.0,0.0,0.0,0.0,0.0,0.0,0.0,0.0,0.0,0.0,0.0,0.0,0.0,0.0,0.0,0.0,0.0,0.0,0.0,0.0,0.0,0.0,0.0,0.0,0.0,0.0,0.0,0.0,0.0,0.0,0.0,0.0,0.0,0.0,0.0,0.0,0.0,0.0,0.0,0.0,0.0,0.0,0.0,0.0,0.0,0.0,0.0,0.0,0.0,0.0,0.0,0.0,0.0,0.0,0.0,0.0,0.0,0.0,0.0,0.0,0.0,0.0,0.0,0.0,0.0,0.0,0.0,0.0,0.0,0.0,0.0,0.0,0.0,0.0,0.0,0.0,0.0,0.0,0.0,0.0,0.0,0.0,0.0,0.0,0.0,0.0,0.0,0.0,0.0,0.0,0.0,0.0,0.0,0.0,0.0,0.0,0.0,0.0,0.0,0.0,0.0,0.0,0.0,0.0,0.0,0.0,0.0,0.0,0.0,0.0,0.0,0.0,0.0,0.0,0.0,0.0,0.0,0.0,0.0,0.0,0.0,0.0,0.0,0.0,0.0,0.0,0.0,0.0,0.0,0.0,0.0,0.0,0.0,0.0,0.0,0.0,0.0,0.0,0.0,0.0,0.0,0.0,0.0,0.0,0.0,-1.8335,0.0,0.0,0.0,0.0,0.0,0.0,0.0,0.0,0.0,0.0,0.0,0.0,0.0,0.0,0.0,0.0,0.0,0.0,0.0,0.0,0.0,0.0,0.0,0.0,0.0,0.0,0.0,0.0,0.0,0.0,0.0,0.0,0.0,0.0,0.0,0.0,0.0,0.0,0.0,0.0,0.0,0.0,0.0,0.0,0.0,0.0,0.0,0.0,0.0,0.0,0.0,0.0,0.0,0.0,0.0,0.0,0.0,0.0,0.0,0.0,0.0,0.0,0.0,0.0,0.0,0.0,0.0,0.0,0.0,0.0,0.0,0.0,0.0,0.0,0.0,0.0,0.0,0.0,0.0,0.0,0.0,0.0,0.0,0.0,0.0,0.0,0.0,0.0,0.0,0.0,0.0,0.0,0.0,0.0,0.0,0.0,0.0,0.0,0.0,0.0,0.0,0.0,0.0,0.0,0.0,0.0,0.0,0.0,0.0,0.0,-1.8103,-1.8296,-1.8723,-1.894,-1.8966,0.0,0.0,0.0,0.0,0.0,0.0,0.0,0.0,0.0,0.0,0.0,0.0,0.0,0.0,0.0,0.0,0.0,0.0,0.0,0.0,0.0,0.0,0.0,0.0,0.0,0.0,0.0,0.0,0.0,0.0,0.0,0.0,0.0,0.0,0.0,0.0,0.0,0.0,0.0,0.0,0.0,0.0,0.0,0.0,0.0,0.0,0.0,0.0,0.0,0.0,0.0,0.0,0.0,0.0,0.0,0.0,0.0,0.0,0.0,0.0,0.0,0.0,0.0,0.0,0.0,0.0,0.0,0.0,0.0,0.0,0.0,0.0,0.0,0.0,0.0,0.0,0.0,0.0,0.0,0.0,0.0,0.0,0.0,0.0,0.0,0.0,0.0,0.0,0.0,0.0,0.0,0.0,0.0,0.0,0.0,0.0,0.0,0.0,0.0,0.0,0.0,0.0,0.0,0.0,0.0,0.0,0.0,0.0,0.0,0.0,0.0,0.0,-2.0174,-2.0185,-2.002,0.0,0.0,0.0,0.0,0.0,0.0,0.0,0.0,0.0,0.0,0.0,0.0,0.0,0.0,0.0,0.0,0.0,0.0,0.0,0.0,0.0,0.0,0.0,0.0,0.0,0.0,0.0,0.0,0.0,0.0,0.0,0.0,0.0,0.0,0.0,0.0,0.0,0.0,0.0,0.0,0.0,0.0,0.0,0.0,0.0,0.0,0.0,0.0,0.0,0.0,0.0,0.0,0.0,0.0,0.0,0.0,0.0,0.0,0.0,0.0,0.0,0.0,0.0,0.0,0.0,0.0,0.0,0.0,0.0,0.0,0.0,0.0,0.0,0.0,0.0,0.0,0.0,0.0,0.0,0.0,0.0,0.0,0.0,0.0,0.0,0.0,0.0,0.0,0.0,0.0,0.0,0.0,0.0,0.0,0.0,0.0,0.0,0.0,0.0,0.0,0.0,0.0,0.0,0.0,0.0,0.0,0.0,0.0,0.0,0.0,-2.0169,-2.1967,-2.2785,0.0,-2.2204,0.0,0.0,0.0,0.0,0.0,0.0,0.0,0.0,0.0,0.0,0.0,0.0,0.0,0.0,0.0,0.0,0.0,0.0,0.0,0.0,0.0,0.0,0.0,0.0,0.0,0.0,0.0,0.0,0.0,0.0,0.0,0.0,0.0,0.0,0.0,0.0,0.0,0.0,0.0,0.0,0.0,0.0,0.0,0.0,0.0,0.0,0.0,0.0,0.0,0.0,0.0,0.0,0.0,0.0,0.0,0.0,0.0,0.0,0.0,0.0,0.0,0.0,0.0,0.0,0.0,0.0,0.0,0.0,0.0,0.0,0.0,0.0,0.0,0.0,0.0,0.0,0.0,0.0,0.0,0.0,0.0,0.0,0.0,0.0,0.0,0.0,0.0,0.0,0.0,0.0,0.0,0.0,0.0,0.0,0.0,0.0,0.0,0.0,0.0,0.0,0.0,0.0,0.0,0.0,0.0,0.0,0.0,0.0,0.0,0.0,-2.1843,-2.3621,-2.4091,-2.3322,0.0,0.0,0.0,0.0,0.0,0.0,0.0,0.0,0.0,0.0,0.0,0.0,0.0,0.0,0.0,0.0,0.0,0.0,0.0,0.0,0.0,0.0,0.0,0.0,0.0,0.0,0.0,0.0,0.0,0.0,0.0,0.0,0.0,0.0,0.0,0.0,0.0,0.0,0.0,0.0,0.0,0.0,0.0,0.0,0.0,0.0,0.0,0.0,0.0,0.0,0.0,0.0,0.0,0.0,0.0,0.0,0.0,0.0,0.0,0.0,0.0,0.0,0.0,0.0,0.0,0.0,0.0,0.0,0.0,0.0,0.0,0.0,0.0,0.0,0.0,0.0,0.0,0.0,0.0,0.0,0.0,0.0,0.0,0.0,0.0,0.0,0.0,0.0,0.0,0.0,0.0,0.0,0.0,0.0,0.0,0.0,0.0,0.0,0.0,0.0,0.0,0.0,0.0,0.0,0.0,0.0,0.0,0.0,0.0,0.0,-2.2862,-2.365,-2.5244,-2.4636,-2.332,-2.1351,0.0,0.0,0.0,0.0,0.0,0.0,0.0,0.0,0.0,0.0,0.0,0.0,0.0,0.0,0.0,0.0,0.0,0.0,0.0,0.0,0.0,0.0,0.0,0.0,0.0,0.0,0.0,0.0,0.0,0.0,0.0,0.0,0.0,0.0,0.0,0.0,0.0,0.0,0.0,0.0,0.0,0.0,0.0,0.0,0.0,0.0,0.0,0.0,0.0,0.0,0.0,0.0,0.0,0.0,0.0,0.0,0.0,0.0,0.0,0.0,0.0,0.0,0.0,0.0,0.0,0.0,0.0,0.0,0.0,0.0,0.0,0.0,0.0,0.0,0.0,0.0,0.0,0.0,0.0,0.0,0.0,0.0,0.0,0.0,0.0,0.0,0.0,0.0,0.0,0.0,0.0,0.0,0.0,0.0,0.0,0.0,0.0,0.0,0.0,0.0,0.0,0.0,0.0,0.0,0.0,0.0,0.0,0.0,-2.6068,-2.5162,-2.5455,-2.717,-2.4472,-2.3171,0.0,0.0,0.0,0.0,0.0,0.0,0.0,0.0,0.0,0.0,0.0,0.0,0.0,0.0,0.0,0.0,0.0,0.0,0.0,0.0,0.0,0.0,0.0,0.0,0.0,0.0,0.0,0.0,0.0,0.0,0.0,0.0,0.0,0.0,0.0,0.0,0.0,0.0,0.0,0.0,0.0,0.0,0.0,0.0,0.0,0.0,0.0,0.0,0.0,0.0,0.0,0.0,0.0,0.0,0.0,0.0,0.0,0.0,0.0,0.0,0.0,0.0,0.0,0.0,0.0,0.0,0.0,0.0,0.0,0.0,0.0,0.0,0.0,0.0,0.0,0.0,0.0,0.0,0.0,0.0,0.0,0.0,0.0,0.0,0.0,0.0,0.0,0.0,0.0,0.0,0.0,0.0,0.0,0.0,0.0,0.0,0.0,0.0,0.0,0.0,0.0,0.0,0.0,0.0,0.0,0.0,0.0,0.0,0.0,-2.3769,-2.4597,-2.516,-2.5407,-2.4704,-2.4023,0.0,0.0,0.0,0.0,0.0,0.0,0.0,0.0,0.0,0.0,0.0,0.0,0.0,0.0,0.0,0.0,0.0,0.0,0.0,0.0,0.0,0.0,0.0,0.0,0.0,0.0,0.0,0.0,0.0,0.0,0.0,0.0,0.0,0.0,0.0,0.0,0.0,0.0,0.0,0.0,0.0,0.0,0.0,0.0,0.0,0.0,0.0,0.0,0.0,0.0,0.0,0.0,0.0,0.0,0.0,0.0,0.0,0.0,0.0,0.0,0.0,0.0,0.0,0.0,0.0,0.0,0.0,0.0,0.0,0.0,0.0,0.0,0.0,0.0,0.0,0.0,0.0,0.0,0.0,0.0,0.0,0.0,0.0,0.0,0.0,0.0,0.0,0.0,0.0,0.0,0.0,0.0,0.0,0.0,0.0,0.0,0.0,0.0,0.0,0.0,0.0,0.0,0.0,0.0,0.0,0.0,0.0,0.0,0.0,-2.3886,0.0,-2.609,-2.5419,-2.5275,-2.4478,0.0,0.0,0.0,0.0,0.0,0.0,0.0,0.0,0.0,0.0,0.0,0.0,0.0,0.0,0.0,0.0,0.0,0.0,0.0,0.0,0.0,0.0,0.0,0.0,0.0,0.0,0.0,0.0,0.0,0.0,0.0,0.0,0.0,0.0,0.0,0.0,0.0,0.0,0.0,0.0,0.0,0.0,0.0,0.0,0.0,0.0,0.0,0.0,0.0,0.0,0.0,0.0,0.0,0.0,0.0,0.0,0.0,0.0,0.0,0.0,0.0,0.0,0.0,0.0,0.0,0.0,0.0,0.0,0.0,0.0,0.0,0.0,0.0,0.0,0.0,0.0,0.0,0.0,0.0,0.0,0.0,0.0,0.0,0.0,0.0,0.0,0.0,0.0,0.0,0.0,0.0,0.0,0.0,0.0,0.0,0.0,0.0,0.0,0.0,0.0,0.0,0.0,0.0,0.0,0.0,0.0,0.0,0.0,-2.3405,-2.7034,-2.8181,-2.8298,-2.7683,-2.6118,-2.4549,0.0,0.0,0.0,0.0,0.0,0.0,0.0,0.0,0.0,0.0,0.0,0.0,0.0,0.0,0.0,0.0,0.0,0.0,0.0,0.0,0.0,0.0,0.0,0.0,0.0,0.0,0.0,0.0,0.0,0.0,0.0,0.0,0.0,0.0,0.0,0.0,0.0,0.0,0.0,0.0,0.0,0.0,0.0,0.0,0.0,0.0,0.0,0.0,0.0,0.0,0.0,0.0,0.0,0.0,0.0,0.0,0.0,0.0,0.0,0.0,0.0,0.0,0.0,0.0,0.0,0.0,0.0,0.0,0.0,0.0,0.0,0.0,0.0,0.0,0.0,0.0,0.0,0.0,0.0,0.0,0.0,0.0,0.0,0.0,0.0,0.0,0.0,0.0,0.0,0.0,0.0,0.0,0.0,0.0,0.0,0.0,0.0,0.0,0.0,0.0,0.0,0.0,0.0,0.0,0.0,0.0,0.0,0.0,0.0,-2.4821,-2.644,-2.7719,-2.8403,-2.5887,-2.4975,0.0,0.0,0.0,0.0,0.0,0.0,0.0,0.0,0.0,0.0,0.0,0.0,0.0,0.0,0.0,0.0,0.0,0.0,0.0,0.0,0.0,0.0,0.0,0.0,0.0,0.0,0.0,0.0,0.0,0.0,0.0,0.0,0.0,0.0,0.0,0.0,0.0,0.0,0.0,0.0,0.0,0.0,0.0,0.0,0.0,0.0,0.0,0.0,0.0,0.0,0.0,0.0,0.0,0.0,0.0,0.0,0.0,0.0,0.0,0.0,0.0,0.0,0.0,0.0,0.0,0.0,0.0,0.0,0.0,0.0,0.0,0.0,0.0,0.0,0.0,0.0,0.0,0.0,0.0,0.0,0.0,0.0,0.0,0.0,0.0,0.0,0.0,0.0,0.0,0.0,0.0,0.0,0.0,0.0,0.0,0.0,0.0,0.0,0.0,0.0,0.0,0.0,0.0,0.0,0.0,0.0,0.0,0.0,0.0,-2.6545,-2.8526,-2.9808,-3.0194,-2.7927,-2.6545,-2.6156,0.0,0.0,0.0,0.0,0.0,0.0,0.0,0.0,0.0,0.0,0.0,0.0,0.0,0.0,0.0,0.0,0.0,0.0,0.0,0.0,0.0,0.0,0.0,0.0,0.0,0.0,0.0,0.0,0.0,0.0,0.0,0.0,0.0,0.0,0.0,0.0,0.0,0.0,0.0,0.0,0.0,0.0,0.0,0.0,0.0,0.0,0.0,0.0,0.0,0.0,0.0,0.0,0.0,0.0,0.0,0.0,0.0,0.0,0.0,0.0,0.0,0.0,0.0,0.0,0.0,0.0,0.0,0.0,0.0,0.0,0.0,0.0,0.0,0.0,0.0,0.0,0.0,0.0,0.0,0.0,0.0,0.0,0.0,0.0,0.0,0.0,0.0,0.0,0.0,0.0,0.0,0.0,0.0,0.0,0.0,0.0,0.0,0.0,0.0,0.0,0.0,0.0,0.0,0.0,0.0,0.0,0.0,0.0,-3.1323,-3.3897,-3.4407,-3.2774,-3.1583,-2.8931,0.0,0.0,0.0,0.0,0.0,0.0,0.0,0.0,0.0,0.0,0.0,0.0,0.0,0.0,0.0,0.0,0.0,0.0,0.0,0.0,0.0,0.0,0.0,0.0,0.0,0.0,0.0,0.0,0.0,0.0,0.0,0.0,0.0,0.0,0.0,0.0,0.0,0.0,0.0,0.0,0.0,0.0,0.0,0.0,0.0,0.0,0.0,0.0,0.0,0.0,0.0,0.0,0.0,0.0,0.0,0.0,0.0,0.0,0.0,0.0,0.0,0.0,0.0,0.0,0.0,0.0,0.0,0.0,0.0,0.0,0.0,0.0,0.0,0.0,0.0,0.0,0.0,0.0,0.0,0.0,0.0,0.0,0.0,0.0,0.0,0.0,0.0,0.0,0.0,0.0,0.0,0.0,0.0,0.0,0.0,0.0,0.0,0.0,0.0,0.0,0.0,0.0,0.0,0.0,0.0,0.0,0.0,0.0,0.0,-3.5422,-3.9392,-3.9937,-3.6671,-3.2389,-2.9859,0.0,0.0,0.0,0.0,0.0,0.0,0.0,0.0,0.0,0.0,0.0,0.0,0.0,0.0,0.0,0.0,0.0,0.0,0.0,0.0,0.0,0.0,0.0,0.0,0.0,0.0,0.0,0.0,0.0,0.0,0.0,0.0,0.0,0.0,0.0,0.0,0.0,0.0,0.0,0.0,0.0,0.0,0.0,0.0,0.0,0.0,0.0,0.0,0.0,0.0,0.0,0.0,0.0,0.0,0.0,0.0,0.0,0.0,0.0,0.0,0.0,0.0,0.0,0.0,0.0,0.0,0.0,0.0,0.0,0.0,0.0,0.0,0.0,0.0,0.0,0.0,0.0,0.0,0.0,0.0,0.0,0.0,0.0,0.0,0.0,0.0,0.0,0.0,0.0,0.0,0.0,0.0,0.0,0.0,0.0,0.0,0.0,0.0,0.0,0.0,0.0,0.0,0.0,0.0,0.0,0.0,0.0,0.0,-3.4561,-3.8409,-4.2658,-4.3799,-4.1569,-3.6759,-3.3119,0.0,0.0,0.0,0.0,0.0,0.0,0.0,0.0,0.0,0.0,0.0,0.0,0.0,0.0,0.0,0.0,0.0,0.0,0.0,0.0,0.0,0.0,0.0,0.0,0.0,0.0,0.0,0.0,0.0,0.0,0.0,0.0,0.0,0.0,0.0,0.0,0.0,0.0,0.0,0.0,0.0,0.0,0.0,0.0,0.0,0.0,0.0,0.0,0.0,0.0,0.0,0.0,0.0,0.0,0.0,0.0,0.0,0.0,0.0,0.0,0.0,0.0,0.0,0.0,0.0,0.0,0.0,0.0,0.0,0.0,0.0,0.0,0.0,0.0,0.0,0.0,0.0,0.0,0.0,0.0,0.0,0.0,0.0,0.0,0.0,0.0,0.0,0.0,0.0,0.0,0.0,0.0,0.0,0.0,0.0,0.0,0.0,0.0,0.0,0.0,0.0,0.0,0.0,0.0,0.0,0.0,0.0,0.0,-3.6932,-4.0551,-4.436,-4.6295,-4.6189,-4.2125,-3.7102,0.0,0.0,0.0,0.0,0.0,0.0,0.0,0.0,0.0,0.0,0.0,0.0,0.0,0.0,0.0,0.0,0.0,0.0,0.0,0.0,0.0,0.0,0.0,0.0,0.0,0.0,0.0,0.0,0.0,0.0,0.0,0.0,0.0,0.0,0.0,0.0,0.0,0.0,0.0,0.0,0.0,0.0,0.0,0.0,0.0,0.0,0.0,0.0,0.0,0.0,0.0,0.0,0.0,0.0,0.0,0.0,0.0,0.0,0.0,0.0,0.0,0.0,0.0,0.0,0.0,0.0,0.0,0.0,0.0,0.0,0.0,0.0,0.0,0.0,0.0,0.0,0.0,0.0,0.0,0.0,0.0,0.0,0.0,0.0,0.0,0.0,0.0,0.0,0.0,0.0,0.0,0.0,0.0,0.0,0.0,0.0,0.0,0.0,0.0,0.0,0.0,0.0,0.0,0.0,0.0,0.0,0.0,0.0,-3.74,-4.1306,-4.515,-4.7084,-4.6947,-4.0769,-3.622,0.0,0.0,0.0,0.0,0.0,0.0,0.0,0.0,0.0,0.0,0.0,0.0,0.0,0.0,0.0,0.0,0.0,0.0,0.0,0.0,0.0,0.0,0.0,0.0,0.0,0.0,0.0,0.0,0.0,0.0,0.0,0.0,0.0,0.0,0.0,0.0,0.0,0.0,0.0,0.0,0.0,0.0,0.0,0.0,0.0,0.0,0.0,0.0,-2.4464,0.0,0.0,0.0,0.0,0.0,0.0,0.0,0.0,0.0,0.0,0.0,0.0,0.0,0.0,0.0,0.0,0.0,0.0,0.0,0.0,0.0,0.0,0.0,0.0,0.0,0.0,0.0,0.0,0.0,0.0,0.0,0.0,0.0,0.0,0.0,0.0,0.0,0.0,0.0,0.0,0.0,0.0,0.0,0.0,0.0,0.0,0.0,0.0,0.0,0.0,0.0,0.0,0.0,0.0,0.0,0.0,0.0,0.0,0.0,-3.8659,-4.3131,-4.5607,-4.6961,-4.6966,-4.145,-3.7321,0.0,0.0,0.0,0.0,0.0,0.0,0.0,0.0,0.0,0.0,0.0,0.0,0.0,0.0,0.0,0.0,0.0,0.0,0.0,0.0,0.0,0.0,0.0,0.0,0.0,0.0,0.0,0.0,0.0,0.0,0.0,0.0,0.0,0.0,0.0,0.0,0.0,0.0,0.0,0.0,0.0,0.0,0.0,0.0,0.0,0.0,0.0,0.0,0.0,0.0,0.0,0.0,0.0,0.0,0.0,0.0,0.0,0.0,0.0,0.0,0.0,0.0,0.0,0.0,0.0,0.0,0.0,0.0,0.0,0.0,0.0,0.0,0.0,0.0,0.0,0.0,0.0,0.0,0.0,0.0,0.0,0.0,0.0,0.0,0.0,0.0,0.0,0.0,0.0,0.0,0.0,0.0,0.0,0.0,0.0,0.0,0.0,0.0,0.0,0.0,0.0,0.0,0.0,0.0,0.0,0.0,0.0,-3.6301,-3.9849,-4.4839,-4.5786,-4.6455,-4.6914,-4.2556,-3.8841,-3.601,0.0,0.0,0.0,0.0,0.0,0.0,0.0,0.0,0.0,0.0,0.0,0.0,0.0,0.0,0.0,0.0,0.0,0.0,0.0,0.0,0.0,0.0,0.0,0.0,0.0,0.0,0.0,0.0,0.0,0.0,0.0,0.0,0.0,0.0,0.0,0.0,0.0,0.0,-2.3744,-2.491,0.0,0.0,0.0,0.0,0.0,0.0,0.0,0.0,-2.5298,0.0,0.0,0.0,0.0,0.0,0.0,0.0,0.0,0.0,0.0,0.0,0.0,0.0,0.0,0.0,0.0,0.0,0.0,0.0,0.0,0.0,0.0,0.0,0.0,0.0,0.0,0.0,0.0,0.0,0.0,0.0,0.0,0.0,0.0,0.0,0.0,0.0,0.0,0.0,0.0,0.0,0.0,0.0,0.0,0.0,0.0,0.0,0.0,0.0,0.0,0.0,0.0,0.0,0.0,0.0,0.0,-3.5976,-3.6461,-3.9399,-4.494,-4.5688,-4.6042,-4.5908,-4.2042,-3.8511,-3.565,0.0,0.0,0.0,0.0,0.0,0.0,0.0,0.0,0.0,0.0,0.0,0.0,0.0,0.0,0.0,0.0,0.0,0.0,0.0,0.0,0.0,0.0,0.0,0.0,0.0,0.0,0.0,0.0,0.0,0.0,0.0,0.0,0.0,0.0,0.0,0.0,0.0,0.0,0.0,-2.6634,-2.6678,0.0,0.0,0.0,0.0,0.0,0.0,0.0,0.0,-2.6424,0.0,0.0,0.0,0.0,0.0,0.0,0.0,0.0,0.0,0.0,0.0,0.0,0.0,0.0,0.0,0.0,0.0,0.0,0.0,0.0,0.0,0.0,0.0,0.0,0.0,0.0,0.0,0.0,0.0,0.0,0.0,0.0,0.0,0.0,0.0,0.0,0.0,0.0,0.0,0.0,0.0,0.0,0.0,0.0,0.0,0.0,0.0,0.0,0.0,0.0,0.0,0.0,0.0,0.0,0.0,-3.5456,-3.6717,-3.9572,-4.4245,-4.4766,-4.4854,-4.461,-4.0712,-3.7449,0.0,0.0,0.0,0.0,0.0,0.0,0.0,0.0,0.0,0.0,0.0,0.0,0.0,0.0,0.0,0.0,0.0,0.0,0.0,0.0,0.0,0.0,0.0,0.0,0.0,0.0,0.0,0.0,0.0,0.0,0.0,0.0,0.0,0.0,0.0,0.0,0.0,0.0,0.0,0.0,-2.7302,-2.7534,-2.8732,0.0,0.0,0.0,0.0,0.0,0.0,-2.6901,-2.6519,0.0,0.0,0.0,0.0,0.0,0.0,0.0,0.0,0.0,0.0,0.0,0.0,0.0,0.0,0.0,0.0,0.0,0.0,0.0,0.0,0.0,0.0,0.0,0.0,0.0,0.0,0.0,0.0,0.0,0.0,0.0,0.0,0.0,0.0,0.0,0.0,0.0,0.0,0.0,0.0,0.0,0.0,0.0,0.0,0.0,0.0,0.0,0.0,0.0,0.0,0.0,0.0,0.0,0.0,0.0,-3.4555,-3.654,-3.9444,-4.3151,-4.363,-4.3596,-4.3222,-3.9272,-3.627,0.0,0.0,0.0,0.0,0.0,0.0,0.0,0.0,0.0,0.0,0.0,0.0,0.0,0.0,0.0,0.0,0.0,0.0,0.0,0.0,0.0,0.0,0.0,0.0,0.0,0.0,0.0,0.0,0.0,0.0,0.0,0.0,0.0,0.0,0.0,0.0,0.0,0.0,0.0,0.0,0.0,-2.8512,-2.9434,-2.8764,0.0,0.0,0.0,0.0,-2.7655,-2.7254,0.0,0.0,0.0,0.0,0.0,0.0,0.0,0.0,0.0,0.0,0.0,0.0,0.0,0.0,0.0,0.0,0.0,0.0,0.0,0.0,0.0,0.0,0.0,0.0,0.0,0.0,0.0,0.0,0.0,0.0,0.0,0.0,0.0,0.0,0.0,0.0,0.0,0.0,0.0,0.0,0.0,0.0,0.0,0.0,0.0,0.0,0.0,0.0,0.0,0.0,0.0,0.0,0.0,0.0,0.0,0.0,-3.3507,-3.5326,-3.7952,-4.1359,-4.2625,-4.2774,-4.1805,-3.8151,-3.5379,0.0,0.0,0.0,0.0,0.0,0.0,0.0,0.0,0.0,0.0,0.0,0.0,0.0,0.0,0.0,0.0,0.0,0.0,0.0,0.0,0.0,0.0,0.0,0.0,0.0,0.0,0.0,0.0,0.0,0.0,0.0,0.0,0.0,0.0,0.0,0.0,0.0,0.0,0.0,0.0,0.0,-2.9743,-2.8886,-2.9038,-2.8771,0.0,0.0,-2.9154,-2.9396,-2.972,0.0,0.0,0.0,0.0,0.0,0.0,0.0,0.0,0.0,0.0,0.0,0.0,0.0,0.0,0.0,0.0,0.0,0.0,0.0,0.0,0.0,0.0,0.0,0.0,0.0,0.0,0.0,0.0,0.0,0.0,0.0,0.0,0.0,0.0,0.0,0.0,0.0,0.0,0.0,0.0,0.0,0.0,0.0,0.0,0.0,0.0,0.0,0.0,0.0,0.0,0.0,0.0,0.0,0.0,0.0,-2.9357,-3.2604,-3.3922,-3.627,-3.9757,-3.9943,-3.9923,-3.9784,-3.5711,-3.3129,0.0,0.0,0.0,0.0,0.0,0.0,0.0,0.0,0.0,0.0,0.0,0.0,0.0,0.0,0.0,0.0,0.0,0.0,0.0,0.0,0.0,0.0,0.0,0.0,0.0,0.0,0.0,0.0,0.0,0.0,0.0,0.0,0.0,0.0,0.0,0.0,0.0,0.0,0.0,0.0,0.0,0.0,-2.9558,-2.9443,0.0,0.0,0.0,-2.9245,-2.9535,0.0,0.0,0.0,0.0,0.0,0.0,0.0,0.0,0.0,0.0,0.0,0.0,0.0,0.0,0.0,0.0,0.0,0.0,0.0,0.0,0.0,0.0,0.0,0.0,0.0,0.0,0.0,0.0,0.0,0.0,0.0,0.0,0.0,0.0,0.0,0.0,0.0,0.0,0.0,0.0,0.0,0.0,0.0,0.0,0.0,0.0,0.0,0.0,0.0,0.0,0.0,0.0,0.0,0.0,0.0,0.0,0.0,-3.1698,-3.2757,-3.4781,-3.7826,-3.7557,-3.7472,-3.7622,-3.38,0.0,0.0,0.0,0.0,0.0,0.0,0.0,0.0,0.0,0.0,0.0,0.0,0.0,0.0,0.0,0.0,0.0,0.0,0.0,0.0,0.0,0.0,0.0,0.0,0.0,0.0,0.0,-2.1583,0.0,0.0,0.0,0.0,0.0,0.0,0.0,0.0,0.0,0.0,0.0,0.0,0.0,0.0,-2.9312,-2.9785,-2.9794,-2.9824,0.0,0.0,-2.9019,-2.9538,-3.0076,-2.9469,0.0,0.0,0.0,0.0,0.0,0.0,0.0,0.0,0.0,0.0,0.0,0.0,0.0,0.0,0.0,0.0,0.0,0.0,0.0,0.0,0.0,0.0,0.0,0.0,0.0,0.0,0.0,0.0,0.0,0.0,0.0,0.0,0.0,0.0,0.0,0.0,0.0,0.0,0.0,0.0,0.0,0.0,0.0,0.0,0.0,0.0,0.0,0.0,0.0,0.0,0.0,0.0,0.0,0.0,0.0,-3.0584,-3.2081,-3.365,-3.5315,-3.6371,-3.6494,-3.564,-3.3477,-3.1754,0.0,0.0,0.0,0.0,0.0,0.0,0.0,0.0,0.0,0.0,0.0,0.0,0.0,0.0,0.0,0.0,0.0,0.0,0.0,0.0,0.0,0.0,0.0,0.0,0.0,0.0,0.0,0.0,0.0,0.0,0.0,0.0,0.0,0.0,0.0,0.0,0.0,0.0,0.0,0.0,0.0,-3.0593,-2.8551,-3.0048,-3.0959,0.0,0.0,-2.8769,-2.9726,-3.0602,-3.0075,-2.7074,0.0,0.0,0.0,0.0,0.0,0.0,0.0,0.0,0.0,0.0,0.0,0.0,0.0,0.0,0.0,0.0,0.0,0.0,0.0,0.0,0.0,0.0,0.0,0.0,0.0,0.0,0.0,0.0,0.0,0.0,0.0,0.0,0.0,0.0,0.0,0.0,0.0,0.0,0.0,0.0,0.0,0.0,0.0,0.0,0.0,0.0,0.0,0.0,0.0,0.0,0.0,0.0,0.0,-2.7931,-3.0208,-3.0653,-3.2187,-3.4711,-3.4771,-3.4682,-3.4715,-3.2384,-3.0688,0.0,0.0,0.0,0.0,0.0,0.0,0.0,0.0,0.0,0.0,0.0,0.0,0.0,0.0,0.0,0.0,0.0,0.0,0.0,0.0,0.0,0.0,0.0,0.0,0.0,0.0,0.0,0.0,-2.4073,-2.4072,-2.3499,0.0,0.0,0.0,0.0,0.0,0.0,0.0,0.0,0.0,0.0,-2.8978,-2.8966,-2.958,0.0,0.0,-2.8986,-2.8857,-2.8944,-2.9624,-2.9087,-2.6245,-2.5534,0.0,0.0,0.0,0.0,0.0,0.0,0.0,0.0,0.0,0.0,0.0,0.0,0.0,0.0,0.0,0.0,0.0,0.0,0.0,0.0,0.0,0.0,0.0,0.0,0.0,0.0,0.0,0.0,0.0,0.0,0.0,0.0,0.0,0.0,0.0,0.0,0.0,0.0,0.0,0.0,0.0,0.0,0.0,0.0,0.0,0.0,0.0,0.0,0.0,0.0,0.0,0.0,-2.7383,-3.0054,-2.9782,-3.1181,-3.4313,-3.3652,-3.353,-3.3909,-3.1747,-3.018,0.0,0.0,0.0,0.0,0.0,0.0,0.0,0.0,0.0,0.0,0.0,0.0,0.0,0.0,0.0,0.0,0.0,0.0,0.0,0.0,0.0,0.0,0.0,0.0,0.0,0.0,0.0,0.0,-2.4774,-2.4575,-2.3574,0.0,0.0,0.0,0.0,0.0,0.0,0.0,0.0,0.0,0.0,-2.824,-2.8726,-2.8924,-2.8834,-2.8375,-2.8172,-2.8001,-2.779,-2.8015,-2.7673,-2.5887,0.0,0.0,0.0,0.0,0.0,0.0,0.0,0.0,0.0,0.0,0.0,0.0,0.0,0.0,0.0,0.0,0.0,0.0,0.0,0.0,0.0,0.0,0.0,0.0,0.0,0.0,0.0,0.0,0.0,0.0,-2.6708,0.0,0.0,0.0,0.0,0.0,0.0,0.0,0.0,0.0,0.0,0.0,0.0,0.0,0.0,0.0,0.0,0.0,0.0,0.0,0.0,0.0,0.0,-2.7157,-3.0021,-2.9617,-3.0783,-3.3614,-3.345,-3.3277,-3.3261,-3.1918,-3.0576,-2.9289,0.0,0.0,0.0,0.0,0.0,0.0,0.0,0.0,0.0,0.0,0.0,0.0,0.0,0.0,0.0,0.0,0.0,0.0,0.0,0.0,0.0,0.0,0.0,0.0,0.0,0.0,-2.3672,-2.345,-2.3265,0.0,0.0,0.0,0.0,0.0,0.0,0.0,0.0,0.0,0.0,-2.7914,-2.904,-2.7502,-2.8134,-2.8242,-2.6945,-2.6242,-2.5921,-2.6337,-2.6012,-2.581,0.0,0.0,0.0,0.0,0.0,0.0,0.0,0.0,0.0,0.0,0.0,0.0,0.0,0.0,0.0,0.0,0.0,0.0,0.0,0.0,0.0,0.0,0.0,0.0,0.0,0.0,0.0,-2.8178,-2.8089,0.0,0.0,0.0,0.0,0.0,0.0,0.0,0.0,0.0,0.0,0.0,-2.9781,-2.9798,0.0,0.0,0.0,0.0,0.0,0.0,0.0,0.0,0.0,0.0,0.0,0.0,-2.7134,-2.962,-2.9066,-3.0019,-3.2641,-3.219,-3.1918,-3.1918,-3.1018,-2.9659,-2.7886,0.0,0.0,0.0,0.0,0.0,0.0,0.0,0.0,0.0,0.0,0.0,0.0,0.0,0.0,0.0,0.0,0.0,0.0,0.0,0.0,0.0,0.0,0.0,0.0,0.0,-2.4656,0.0,0.0,0.0,0.0,0.0,0.0,0.0,0.0,0.0,0.0,0.0,-2.5036,-2.5693,-2.6576,-2.7083,-2.6796,-2.7094,-2.7298,0.0,0.0,0.0,0.0,0.0,0.0,0.0,0.0,0.0,0.0,0.0,0.0,0.0,0.0,-2.0599,-2.0036,-1.9555,-1.917,-1.8976,0.0,0.0,0.0,0.0,0.0,0.0,0.0,0.0,0.0,0.0,0.0,0.0,0.0,0.0,-2.9412,0.0,-2.9374,0.0,0.0,0.0,0.0,0.0,0.0,0.0,0.0,-3.0019,-3.0709,-3.1272,-3.1272,-3.1139,0.0,-2.9897,-2.8572,0.0,0.0,0.0,0.0,0.0,0.0,0.0,0.0,-2.7122,-2.9122,-2.8822,-2.972,-3.176,-3.1444,-3.1207,-3.1191,-3.0054,-2.8584,-2.6783,-2.5983,-2.5384,0.0,0.0,0.0,0.0,0.0,0.0,0.0,0.0,0.0,0.0,0.0,0.0,0.0,0.0,0.0,0.0,0.0,0.0,0.0,0.0,0.0,0.0,0.0,-2.4343,0.0,0.0,0.0,0.0,0.0,0.0,0.0,0.0,0.0,-2.4069,-2.4815,-2.5534,-2.6145,-2.6389,-2.6465,-2.6331,0.0,0.0,0.0,0.0,0.0,0.0,0.0,-2.509,-2.4739,-2.4494,-2.4167,-2.3489,-2.2805,-2.216,-2.1815,0.0,0.0,-2.104,-2.0486,-2.0052,-1.9995,-1.9955,-1.9727,-1.8914,-1.8771,-1.8458,0.0,0.0,0.0,0.0,0.0,0.0,0.0,0.0,-3.1145,-3.0593,0.0,-3.0587,0.0,0.0,0.0,0.0,0.0,-2.9711,0.0,0.0,-3.268,-3.3359,-3.2729,-3.2696,-3.2348,-3.156,-3.0245,-2.9185,-2.8423,-2.7765,0.0,0.0,0.0,0.0,0.0,0.0,-2.717,-2.8453,-2.8846,-2.9753,-3.1128,-3.1112,-3.1081,-3.0986,-2.9121,-2.7431,-2.6088,-2.5271,-2.4813,-2.4822,-2.4178,0.0,0.0,0.0,0.0,0.0,0.0,0.0,0.0,0.0,0.0,0.0,0.0,0.0,0.0,0.0,0.0,0.0,0.0,0.0,0.0,-2.3581,0.0,0.0,0.0,0.0,0.0,0.0,0.0,0.0,0.0,0.0,-2.4163,-2.5181,-2.6117,-2.6701,0.0,0.0,0.0,0.0,-2.6029,-2.4713,-2.4429,-2.434,-2.4288,-2.4767,-2.5414,-2.5942,0.0,0.0,-2.3653,-2.2787,-2.2192,-2.1723,-2.2001,-2.2215,-2.1822,-2.1101,-2.054,-2.0471,-2.0482,-2.0038,-1.8983,-1.885,-1.8653,-3.2929,0.0,0.0,0.0,0.0,-3.1304,-3.1992,-3.2887,-3.2705,-3.2396,-3.2,-3.1666,0.0,0.0,0.0,0.0,0.0,0.0,-3.0775,-3.2187,-3.279,-3.3176,-3.3475,-3.3458,-3.3094,-3.2365,-3.1951,-3.1123,-2.993,-2.9698,-2.8401,-2.6165,0.0,0.0,0.0,0.0,-2.713,-2.8188,-2.8373,-2.9074,-3.0449,-2.9501,-2.8758,-2.83,-2.7715,-2.6957,-2.604,-2.5654,-2.5227,-2.4798,-2.4006,0.0,0.0,0.0,0.0,0.0,0.0,0.0,0.0,0.0,0.0,0.0,0.0,0.0,0.0,0.0,0.0,0.0,0.0,0.0,-2.3739,-2.3392,-2.3126,0.0,0.0,0.0,0.0,0.0,0.0,0.0,0.0,0.0,-2.4851,-2.5437,-2.5955,0.0,0.0,-2.5423,-2.4771,-2.5308,-2.5595,-2.5287,-2.5514,0.0,-2.6206,-2.5805,-2.5353,-2.5116,-2.4402,-2.3665,-2.3185,-2.2938,-2.2743,-2.2608,-2.2728,-2.2761,-2.2663,-2.2437,-2.2088,-2.1733,-2.1618,-2.1185,-2.0085,-1.9773,-1.9564,-3.5439,-3.3321,-3.2583,-3.2495,-3.2786,-3.2806,-3.3429,-3.4381,-3.4095,-3.3573,-3.2923,-3.2696,-3.1275,-2.9008,-2.8273,0.0,0.0,0.0,-3.1316,-3.2835,-3.3338,-3.3806,-3.4203,-3.3922,-3.3557,-3.3094,-3.2232,-3.1371,-3.0468,-2.9947,-2.8787,-2.7131,0.0,0.0,-2.6097,-2.696,-2.7676,-2.8164,-2.8392,-2.8916,-2.9722,-2.8679,-2.7778,-2.713,-2.683,-2.634,-2.5614,-2.5378,-2.5108,-2.4742,-2.3647,-2.3072,0.0,0.0,0.0,0.0,0.0,0.0,0.0,0.0,0.0,0.0,0.0,-2.4066,-2.3641,0.0,0.0,0.0,-2.3895,-2.3982,-2.3638,-2.3246,0.0,0.0,0.0,0.0,0.0,0.0,0.0,-2.3142,-2.4121,-2.4802,-2.478,-2.4925,-2.519,-2.577,-2.5559,-2.5135,-2.4585,0.0,-2.5392,-2.5445,-2.5139,-2.5165,-2.5781,-2.5448,-2.5025,-2.4871,-2.4234,-2.347,-2.3072,-2.3036,-2.299,-2.3001,-2.3001,-2.3001,-2.3001,-2.3001,-2.2852,-2.2262,-2.2132,-2.1675,-2.0401,-2.0245,-2.001,-3.7902,-3.6979,-3.4465,-3.4112,-3.5102,-3.4341,-3.4692,-3.5847,-3.5224,-3.4276,-3.3112,-3.352,-3.2187,-2.966,-2.9087,0.0,-2.9836,-3.1266,-3.2254,-3.2829,-3.4187,-3.4733,-3.4618,-3.3922,-3.3591,-3.3475,-3.1537,-3.0576,-3.0418,-2.9268,-2.8572,-2.8472,-2.8522,-2.7948,-2.683,-2.8045,-2.8512,-2.8211,-2.8803,-2.9074,-2.8963,-2.8284,-2.762,-2.6941,-2.6277,-2.5614,-2.5053,-2.4751,-2.4614,-2.448,-2.3173,-2.2368,-2.22,0.0,0.0,0.0,0.0,0.0,0.0,0.0,0.0,0.0,0.0,0.0,0.0,0.0,0.0,0.0,-2.3952,0.0,-2.3684,-2.3245,0.0,0.0,0.0,-2.2894,-2.333,-2.3466,-2.3673,-2.4014,0.0,0.0,-2.4118,-2.3832,-2.4121,-2.565,-2.5855,-2.5548,-2.4823,-2.4878,-2.5083,-2.4931,-2.3879,-2.32,-2.4038,-2.4267,-2.4377,-2.4529,-2.4601,-2.3948,-2.3088,-2.2826,-2.287,-2.3021,-2.3043,-2.285,-2.2765,-2.2626,-2.2595,-2.1868,-2.1886,-2.1634,-2.0391,-2.0089,-1.9932,-3.9514,-3.8717,-3.7338,-3.6485,-3.6114,-3.6353,-3.6226,-3.589,-3.5749,-3.5206,-3.4383,-3.3375,-3.1679,-2.9506,-3.0468,-3.0983,-3.1172,-3.2658,-3.3421,-3.3541,-3.3889,-3.3475,-3.2415,-3.2216,-3.1851,-3.1321,-3.1295,-3.1014,-3.0518,-3.0758,-3.0253,-2.918,-2.9626,-2.9083,-2.7527,-2.8403,-2.863,-2.8123,-2.8865,-2.8706,-2.762,-2.6878,-2.6167,-2.5543,-2.5353,-2.5179,-2.5005,-2.4846,-2.4476,-2.3865,-2.2978,-2.222,-2.1584,-2.0822,0.0,0.0,0.0,0.0,0.0,0.0,0.0,0.0,0.0,-2.364,-2.2595,0.0,-2.3628,0.0,-2.3736,-2.4094,-2.3938,-2.3693,0.0,0.0,-2.3269,-2.3182,-2.3385,-2.4136,-2.4338,-2.3628,-2.4168,-2.4343,-2.3592,-2.343,-2.3462,-2.3494,-2.357,-2.3517,-2.3195,-2.349,-2.357,-2.3244,-2.3579,-2.3814,-2.3369,-2.3323,-2.3273,-2.2926,-2.2635,-2.2262,-2.2002,-2.192,-2.2155,-2.2822,-2.3017,-2.2426,-2.099,-2.0718,-2.0437,-2.0008,-2.0607,-2.1001,-1.9775,-1.952,-1.945,-4.0888,-4.0347,-3.9445,-3.851,-3.7578,-3.7319,-3.6856,-3.6291,-3.6122,-3.5314,-3.4068,-3.2802,-3.1537,-3.0493,-3.1586,-3.1918,-3.1752,-3.3127,-3.3442,-3.2878,-3.3475,-3.3193,-3.2083,-3.1769,-3.1361,-3.0981,-3.109,-3.0882,-3.0559,-3.0898,-3.0641,-2.9716,-3.0093,-2.9711,-2.8581,-2.9032,-2.9113,-2.8748,-2.8812,-2.8434,-2.7541,-2.6546,-2.586,-2.5536,-2.5203,-2.4909,-2.4678,-2.4546,-2.4115,-2.3324,-2.2561,-2.1942,-2.1461,-2.0829,-2.0407,0.0,0.0,0.0,0.0,0.0,0.0,0.0,0.0,0.0,0.0,0.0,-2.3534,-2.3761,-2.4066,-2.4268,-2.4352,-2.4028,-2.3808,-2.3884,-2.3496,-2.3336,-2.3647,-2.3987,-2.3919,-2.3133,-2.3393,-2.3262,-2.2346,-2.2056,-2.1892,-2.1677,-2.1639,-2.1844,-2.25,-2.2687,-2.262,-2.2406,-2.2643,-2.2756,-2.2337,-2.2631,-2.2718,-2.2274,-2.2009,-2.1735,-2.1388,-2.1265,-2.1388,-2.1669,-2.2387,-2.2224,-2.0072,-1.9,-1.8576,-1.8889,-1.9512,-1.9781,-1.9,-1.877,-1.877,-4.1921,-4.1633,-4.0745,-3.9896,-3.9031,-3.7787,-3.7091,-3.6834,-3.6457,-3.5189,-3.3389,-3.2467,-3.1978,-3.1845,-3.2542,-3.2481,-3.1984,-3.311,-3.2961,-3.1868,-3.2961,-3.311,-3.2381,-3.1769,-3.1427,-3.1411,-3.0824,-3.0468,-3.0468,-3.0468,-3.0384,-3.0248,-3.0189,-2.9957,-2.956,-2.9677,-2.9649,-2.9502,-2.8713,-2.8243,-2.8123,-2.6762,-2.6091,-2.6157,-2.5393,-2.4716,-2.4217,-2.4047,-2.3607,-2.2781,-2.2079,-2.1612,-2.1428,-2.0836,-2.0506,0.0,-2.0497,0.0,0.0,0.0,0.0,0.0,0.0,0.0,0.0,-2.3447,-2.3519,-2.4697,-2.4358,-2.4244,-2.4554,-2.4063,-2.382,-2.4067,-2.3606,-2.3392,-2.3865,-2.3486,-2.2964,-2.2564,-2.213,-2.1567,-2.0941,-2.0471,-2.0323,-2.0323,-2.0198,-2.0574,-2.1893,-2.1992,-2.1879,-2.189,-2.1174,-2.0775,-2.0994,-2.1618,-2.1945,-2.1756,-2.1554,-2.1475,-2.0654,-2.061,-2.0445,-2.0172,-2.1212,-2.1438,-1.9199,-1.7658,-1.7133,-1.7837,-1.8251,-1.8413,-1.8091,-1.8119,-1.81,-4.1939,-4.1542,-4.0202,-3.9479,-3.9263,-3.8363,-3.7649,-3.7031,-3.6776,-3.589,-3.4618,-3.4644,-3.4024,-3.3,-3.3378,-3.3508,-3.3359,-3.3027,-3.2746,-3.2481,-3.2183,-3.1653,-3.094,-3.0791,-3.07,-3.0725,-3.0593,-3.0468,-3.0468,-3.0468,-3.0443,-3.0359,-3.0162,-2.9913,-2.975,0.0,0.0,0.0,-2.8698,-2.8303,-2.8196,-2.693,-2.6262,-2.623,-2.5032,0.0,-2.4185,-2.359,-2.2897,-2.209,-2.1881,0.0,0.0,0.0,0.0,0.0,0.0,0.0,0.0,0.0,0.0,0.0,-2.2508,-2.2485,-2.3209,-2.3275,-2.3362,-2.3657,-2.3289,-2.3141,-2.339,-2.3315,-2.3284,-2.3362,-2.3295,-2.3229,-2.3337,-2.2964,-2.251,-2.2076,-2.1678,-2.1094,-2.0342,-2.0425,-2.0275,-1.9817,-1.9709,-1.9812,-2.0156,-2.0415,-2.0391,-1.9964,-1.9569,-1.9146,-1.9225,-1.943,-1.9658,-1.9368,-1.9368,-1.9368,-1.9251,-1.9135,-1.9014,-1.8648,-1.9062,-1.9009,-1.7181,-1.6299,-1.5999,-1.6178,-1.6318,-1.6474,-1.7,-1.7651,-1.8027,-4.2477,0.0,-4.0926,-4.0093,0.0,-3.8952,-3.8364,-3.7649,-3.7429,-3.6573,-3.5267,-3.4712,-3.4192,-3.3741,-3.3406,-3.3243,-3.321,-3.2845,-3.2299,-3.1636,-3.162,-3.1239,-3.0468,-3.0468,-3.0468,-3.0468,-3.0468,-3.0468,-3.0468,-3.0468,-3.0443,-3.0316,-3.0146,-2.9973,-2.9633,-2.9396,-2.9162,-2.8917,-2.8172,-2.7545,-2.7153,-2.6188,-2.5672,-2.5695,-2.5026,0.0,0.0,0.0,0.0,0.0,0.0,0.0,0.0,0.0,0.0,-2.1347,-2.1342,-2.1342,-2.1337,-2.1593,-2.1947,-2.2179,-2.2321,-2.2521,-2.2757,-2.2964,-2.3259,-2.3598,-2.3169,-2.3065,-2.3526,-2.3312,-2.3146,-2.3187,-2.2904,-2.2663,-2.2442,-2.2033,-2.1446,-2.0853,-2.0598,-2.0165,-1.9459,-1.9527,-1.9545,-1.9298,-1.9264,-1.9344,-1.9513,-1.9471,-1.9299,-1.9091,-1.8884,-1.8709,-1.8698,-1.8698,-1.8687,-1.8698,-1.8698,-1.8589,-1.8381,-1.8359,-1.8208,-1.7884,-1.7916,-1.7609,-1.6609,-1.5701,-1.5187,-1.5341,-1.556,-1.5615,-1.5808,-1.6358,-1.6872,-4.31,-4.2077,-4.1651,-4.0691,-3.9369,-3.9097,-3.85,-3.7775,0.0,0.0,0.0,-3.4306,-3.3853,-3.4158,-3.3078,-3.2652,-3.2663,-3.2415,-3.1719,-3.0758,-3.1205,-3.1106,-3.0526,-3.0468,-3.0468,-3.0468,-3.0468,-3.0468,-3.0468,-3.0468,-3.0384,-3.029,-3.0231,-2.9957,-2.956,-2.9289,-2.8881,-2.8347,-2.7715,-2.7084,-2.6414,-2.5663,-2.5259,-2.5337,-2.5082,-2.4637,-2.4042,-2.3919,-2.3446,-2.2658,-2.1982,-2.1815,-2.2243,-2.163,-2.1275,-2.1399,-2.1342,-2.1137,-2.0705,-2.1183,-2.1455,-2.1491,-2.1988,-2.2364,-2.2426,-2.2644,-2.2958,-2.3424,-2.2951,-2.2916,-2.3568,-2.3087,-2.2755,-2.2837,-2.2353,-2.1891,-2.1572,-2.0961,-2.036,-1.9708,-1.9614,-1.9316,-1.8822,-1.8726,-1.8701,-1.8867,-1.8927,-1.8953,-1.9171,-1.9036,-1.884,-1.8795,-1.8663,-1.857,-1.8592,-1.8559,-1.8614,-1.8537,-1.85,-1.8353,-1.8046,-1.7879,-1.7715,-1.7442,-1.73,-1.7041,-1.6465,-1.5393,-1.4689,-1.4946,-1.5239,-1.5294,-1.4763,-1.5019,-1.5524,-4.3176,-4.2022,-4.1052,-4.0166,-3.9297,-3.792,-3.6888,-3.6186,-3.6672,-3.6664,-3.6221,-3.4859,-3.4159,-3.3968,-3.273,-3.2386,-3.258,-3.1404,-3.1056,-3.1421,-3.0924,-3.0584,-3.0468,-3.0468,-3.0468,-3.0468,-3.0468,-3.0468,-3.0468,-3.0468,-3.0468,-3.0443,-3.0274,-3.0044,-2.975,-2.956,-2.909,-2.8403,-2.822,-2.8096,-2.7942,-2.6764,-2.6102,-2.607,-2.4936,-2.401,-2.3343,-2.2767,-2.2029,-2.1227,-2.1017,-2.0917,-2.0793,-2.0674,-2.0775,-2.126,-2.1322,-2.1522,-2.1947,-2.2101,-2.2147,-2.211,-2.16,-2.1601,-2.2536,-2.2438,-2.2126,-2.173,-2.1218,-2.1124,-2.1642,-2.1308,-2.1185,-2.1564,-2.1305,-2.0977,-2.0904,-2.0258,-1.9734,-1.9604,-1.9303,-1.9093,-1.8987,-1.8934,-1.8905,-1.8935,-1.8802,-1.8627,-1.8527,-1.8668,-1.8851,-1.8828,-1.8453,-1.8225,-1.8226,-1.8191,-1.8215,-1.8191,-1.8036,-1.7947,-1.7857,-1.7667,-1.7455,-1.7345,-1.7288,-1.6889,-1.6189,-1.5206,-1.4638,-1.4616,-1.4735,-1.4671,-1.4524,-1.4662,-1.4827,-4.259,-4.1132,-4.0441,-3.961,-3.8645,-3.7519,-3.6779,-3.6435,-3.6248,-3.6098,-3.5789,-3.4677,-3.4214,-3.4216,-3.2457,-3.1972,-3.2429,-3.11,-3.065,-3.0948,-3.0675,-3.0468,-3.0468,-3.0468,-3.0468,-3.0468,-3.0468,-3.0468,-3.0468,-3.0468,-3.0468,-3.0485,-3.0274,-3.013,-3.0,-2.9782,-2.9516,-2.9134,-2.849,-2.7834,-2.7089,-2.6449,-2.5982,-2.56,-2.4948,-2.429,-2.3612,-2.3258,-2.2734,-2.2017,-2.1518,-2.1384,-2.1674,-2.1221,-2.1054,-2.1347,-2.1306,-2.1255,-2.1193,-2.1229,-2.1289,-2.1387,-2.0838,-2.0582,-2.0913,-2.0909,-2.0744,-2.0467,-2.0229,-2.0188,-2.0473,-2.0501,-2.0496,-2.0548,-2.043,-2.0306,-2.0105,-1.9573,-1.9242,-1.9242,-1.9093,-1.8987,-1.8987,-1.8987,-1.8987,-1.8999,-1.8893,-1.8721,-1.8614,-1.8814,-1.8814,-1.8515,-1.8233,-1.8118,-1.8084,-1.8084,-1.8084,-1.8084,-1.7975,-1.792,-1.7931,-1.7711,-1.7545,-1.749,-1.7177,-1.6602,-1.5979,-1.5139,-1.4613,-1.4478,-1.4515,-1.4515,-1.4515,-1.4515,-1.4588,-4.1972,-4.0412,-4.0137,-3.9252,-3.7994,-3.7162,-3.6662,-3.6381,-3.5584,-3.5164,-3.4947,-3.427,-3.4072,-3.4023,-3.2342,-3.1739,-3.1936,-3.1153,-3.0634,-3.0568,-3.0568,-3.0526,-3.0468,-3.0468,-3.0468,-3.0468,-3.0468,-3.0468,-3.0468,-3.0468,-3.0468,-3.0485,-3.0359,-3.0274,-3.029,-3.0,-2.9897,-2.9821,-2.8986,-2.7767,-2.6376,-2.6129,-2.5677,-2.5069,-2.5005,-2.4634,-2.397,-2.3907,-2.3528,-2.269,-2.2032,-2.1902,-2.2185,-2.1604,-2.1202,-2.1166,-2.1111,-2.0824,-2.0227,-2.0235,-2.0294,-2.0318,-2.002,-1.967,-1.9341,-1.9279,-1.9347,-1.9469,-1.9527,-1.9551,-1.9741,-1.9931,-1.9992,-1.976,-1.9777,-1.9736,-1.9459,-1.9043,-1.8878,-1.898,-1.8987,-1.8987,-1.8987,-1.8987,-1.8987,-1.8987,-1.8987,-1.8987,-1.8987,-1.8987,-1.8774,-1.8452,-1.8302,-1.8356,-1.829,-1.829,-1.8356,-1.8302,-1.8236,-1.8139,-1.803,-1.7744,-1.7423,-1.7256,-1.6952,-1.6374,-1.5826,-1.508,-1.4554,-1.4478,-1.4515,-1.4515,-1.4515,-1.4515,-1.4515,-4.1688,-4.0766,-4.04,-3.9268,-3.7584,-3.6611,-3.5739,-3.4872,-3.3991,-3.361,-3.3677,-3.406,-3.3749,-3.2918,-3.2438,-3.2055,-3.1572,-3.1355,-3.1083,-3.0716,-3.0692,-3.0609,-3.0526,-3.051,-3.0468,-3.0526,-3.0526,-3.0468,-3.0468,-3.0468,-3.0468,-3.0468,-3.0485,-3.0468,-3.0443,-3.0274,-3.0146,-3.013,-2.9848,-2.8844,-2.7326,-2.6449,-2.5677,-2.5037,-2.5005,-2.4634,-2.3954,-2.3907,-2.327,-2.2039,-2.1811,-2.1478,-2.0976,-2.0717,-2.0569,-2.0531,-2.0497,-2.0262,-1.9833,-2.008,-2.0005,-1.9324,-1.9255,-1.9013,-1.8627,-1.83,-1.833,-1.8765,-1.8901,-1.916,-1.9578,-1.9307,-1.9091,-1.9133,-1.9214,-1.9241,-1.8958,-1.8922,-1.8992,-1.9028,-1.8987,-1.8987,-1.8987,-1.8987,-1.8987,-1.8987,-1.8987,-1.8987,-1.8987,-1.8987,-1.8999,-1.8881,-1.8881,-1.8869,-1.8869,-1.8934,-1.8827,-1.8827,-1.8667,-1.8387,-1.7941,-1.7446,-1.6955,-1.6751,-1.6717,-1.6461,-1.5614,-1.4857,-1.4545,-1.4478,-1.4515,-1.4515,-1.4515,-1.4515,-1.4515,-4.1149,-4.0146,-4.0013,-3.9439,-3.8358,-3.6934,-3.6029,-3.5538,-3.4593,-3.3876,-3.3538,-3.4165,-3.3965,-3.3086,-3.2734,-3.2419,-3.2144,-3.1878,-3.1511,-3.1123,-3.1123,-3.0982,-3.0733,-3.0651,-3.0609,-3.0609,-3.0568,-3.0468,-3.0468,-3.0468,-3.0468,-3.0468,-3.0468,-3.0468,-3.0468,-3.0426,-3.0401,-3.0359,-3.013,-2.9495,-2.8436,-2.7377,-2.6484,-2.5831,-2.5282,-2.4673,-2.4002,-2.3907,-2.3465,-2.2548,-2.2418,-2.2098,-2.1455,-2.129,-2.1033,-2.0621,-2.0457,-2.032,-2.008,-1.9975,-1.969,-1.9139,-1.886,-1.8553,-1.8189,-1.7989,-1.7991,-1.8262,-1.8602,-1.8806,-1.871,-1.8822,-1.8786,-1.8377,-1.8142,-1.8159,-1.8448,-1.821,-1.8253,-1.8855,-1.8987,-1.8987,-1.8987,-1.8987,-1.8987,-1.8987,-1.8987,-1.8987,-1.8987,-1.8987,-1.8987,-1.8951,-1.8746,-1.8686,-1.8903,-1.8987,-1.8987,-1.8987,-1.8946,-1.8602,-1.8038,-1.7545,-1.7056,-1.6436,-1.6253,-1.6004,-1.5371,-1.4874,-1.451,-1.4515,-1.4515,-1.4515,-1.4515,-1.4515,-1.4515,-4.0672,-3.9935,-3.9813,-3.9637,-3.9183,-3.7373,-3.6478,-3.6159,-3.5044,-3.4095,-3.3513,-3.4057,-3.3954,-3.3418,-3.3055,-3.283,-3.2684,-3.2385,-3.1986,-3.1605,-3.1605,-3.1397,-3.1078,-3.0958,-3.0838,-3.0733,-3.0626,-3.051,-3.051,-3.0468,-3.0468,-3.0468,-3.0468,-3.0468,-3.0468,-3.0468,-3.0468,-3.0485,-3.0359,-3.0011,-2.9379,-2.8378,-2.7329,-2.6439,-2.5544,-2.4807,-2.4239,-2.4207,-2.3891,-2.3212,-2.2975,-2.258,-2.1916,-2.1626,-2.1211,-2.0771,-2.0509,-2.0339,-2.017,-1.9904,-1.9493,-1.8974,-1.8669,-1.8319,-1.8003,-1.7922,-1.7922,-1.7936,-1.8466,-1.8575,-1.8099,-1.8345,-1.8249,-1.7503,-1.7269,-1.739,-1.7653,-1.7592,-1.7965,-1.8638,-1.8879,-1.8987,-1.8987,-1.8987,-1.8987,-1.8987,-1.8987,-1.8987,-1.8987,-1.8987,-1.8987,-1.8987,-1.8662,-1.8614,-1.8903,-1.8806,-1.8831,-1.8927,-1.8915,-1.8572,-1.8109,-1.7577,-1.698,-1.6172,-1.5525,-1.505,-1.4951,-1.4616,-1.4497,-1.4506,-1.4515,-1.4515,-1.4515,-1.4515,-1.4515,-4.0311,-4.0253,-4.0137,-3.9878,-3.9513,-3.7762,-3.6788,-3.6231,-3.4729,-3.3844,-3.3538,-3.3582,-3.3506,-3.3411,-3.3364,-3.3147,-3.2827,-3.2763,-3.2502,-3.2109,-3.2057,-3.1825,-3.1397,-3.1376,-3.1201,-3.0935,-3.0797,-3.0634,-3.051,-3.051,-3.0468,-3.0468,-3.0468,-3.0468,-3.0468,-3.0468,-3.0468,-3.0468,-3.0468,-3.0435,-3.0261,-2.9277,-2.7962,-2.6575,-2.5694,-2.5178,-2.4926,-2.4942,-2.4586,-2.3853,-2.3275,-2.2596,-2.185,-2.1203,-2.084,-2.0693,-2.0577,-2.0308,-1.9945,-1.9788,-1.9427,-1.8731,-1.8514,-1.8319,-1.7963,-1.7922,-1.7922,-1.7936,-1.8412,-1.8493,-1.795,-1.7769,-1.7489,-1.7072,-1.7024,-1.6962,-1.6726,-1.7532,-1.8073,-1.8338,-1.871,-1.8963,-1.8987,-1.8987,-1.8987,-1.8987,-1.8987,-1.8987,-1.8987,-1.8987,-1.8987,-1.8975,-1.8927,-1.8951,-1.8939,-1.865,-1.8578,-1.8554,-1.837,-1.818,-1.7732,-1.7201,-1.6554,-1.5879,-1.5118,-1.4713,-1.4569,-1.4497,-1.4478,-1.4478,-1.4515,-1.4515,-1.4515,-1.4515,-1.4515,-4.0329,-4.0234,-3.9662,-3.9319,-3.9051,-3.7258,-3.6246,-3.585,-3.4631,-3.3868,-3.3605,-3.3577,-3.352,-3.3481,-3.3452,-3.3345,-3.3178,-3.3178,-3.2957,-3.2601,-3.255,-3.235,-3.2021,-3.1897,-3.1696,-3.1355,-3.1201,-3.0982,-3.0651,-3.0651,-3.0551,-3.051,-3.0468,-3.0468,-3.0468,-3.0468,-3.0468,-3.0468,-3.0468,-3.0468,-3.0418,-2.9634,-2.8633,-2.7534,-2.6375,-2.5504,-2.5021,-2.5005,-2.4879,-2.4641,-2.3923,-2.3228,-2.2485,-2.141,-2.0761,-2.0726,-2.066,-2.0543,-2.0239,-1.9717,-1.9317,-1.8983,-1.8383,-1.8109,-1.7949,-1.7922,-1.7922,-1.7977,-1.8086,-1.8018,-1.7731,-1.7584,-1.7407,-1.6965,-1.6523,-1.6393,-1.6628,-1.6991,-1.7436,-1.8097,-1.8662,-1.8987,-1.8987,-1.8987,-1.8987,-1.8987,-1.8987,-1.8987,-1.8987,-1.8987,-1.8987,-1.8927,-1.871,-1.8482,-1.8482,-1.8362,-1.8217,-1.7965,-1.7783,-1.7686,-1.7364,-1.6807,-1.6177,-1.5766,-1.501,-1.4364,-1.4287,-1.4268,-1.4286,-1.4488,-1.4515,-1.4515,-1.4515,-1.4515,-1.4515,-4.0119,-3.9814,-3.926,-3.8839,-3.8401,-3.69,-3.6062,-3.5697,-3.4699,-3.4055,-3.3807,-3.3671,-3.3587,-3.3549,-3.3538,-3.3509,-3.3441,-3.3393,-3.3256,-3.3019,-3.2988,-3.2813,-3.2502,-3.235,-3.2144,-3.1806,-3.1548,-3.1278,-3.0942,-3.0814,-3.0692,-3.0551,-3.0551,-3.0568,-3.051,-3.0468,-3.0468,-3.0468,-3.0468,-3.0468,-3.0402,-2.9947,-2.9173,-2.8118,-2.709,-2.6061,-2.5147,-2.5045,-2.5005,-2.491,-2.4286,-2.3496,-2.2548,-2.1426,-2.0761,-2.0744,-2.0711,-2.0677,-2.0494,-1.9803,-1.9317,-1.9258,-1.8606,-1.8083,-1.8083,-1.8043,-1.8003,-1.8003,-1.7922,-1.7788,-1.7609,-1.7496,-1.726,-1.6756,-1.6175,-1.5924,-1.6296,-1.6644,-1.7388,-1.8277,-1.877,-1.8963,-1.8987,-1.8987,-1.8987,-1.8987,-1.8987,-1.8987,-1.8987,-1.8987,-1.8903,-1.8758,-1.8458,-1.8049,-1.7772,-1.7544,-1.7712,-1.7544,-1.7159,-1.7105,-1.6919,-1.6366,-1.595,-1.5579,-1.5044,-1.434,-1.4044,-1.407,-1.4203,-1.4451,-1.4515,-1.4515,-1.4515,-1.4515,-1.4515,-3.9775,-3.903,-3.8973,-3.8438,-3.7636,-3.6721,-3.6272,-3.5816,-3.4913,-3.4348,-3.408,-3.3842,-3.3698,-3.3633,-3.3633,-3.3549,-3.3491,-3.3452,-3.3393,-3.3316,-3.3345,-3.3129,-3.2813,-3.2813,-3.2601,-3.2283,-3.1858,-3.1582,-3.1397,-3.1275,-3.116,-3.0807,-3.0907,-3.0875,-3.051,-3.0576,-3.0518,-3.0526,-3.0468,-3.0468,-3.0468,-3.0227,-2.9453,-2.8263,-2.7729,-2.6792,-2.5381,-2.5123,-2.5005,-2.4926,-2.4286,-2.3238,-2.2039,-2.1252,-2.0842,-2.081,-2.0794,-2.0777,-2.0644,-2.0045,-1.9603,-1.942,-1.8889,-1.8439,-1.84,-1.8268,-1.8202,-1.8202,-1.8043,-1.7922,-1.7747,-1.7389,-1.6871,-1.638,-1.6032,-1.586,-1.6008,-1.6739,-1.7784,-1.8638,-1.8939,-1.8987,-1.8987,-1.8987,-1.8987,-1.8987,-1.8987,-1.8987,-1.8987,-1.8987,-1.877,-1.8458,-1.8326,-1.8157,-1.7327,-1.6644,-1.6943,-1.7099,-1.6693,-1.6445,-1.6374,-1.5984,-1.5611,-1.5266,-1.4804,-1.4208,-1.4054,-1.4068,-1.4308,-1.4451,-1.4478,-1.4515,-1.4515,-1.4515,-1.4515,-3.9466,-3.8225,-3.8131,-3.7636,-3.6814,-3.5974,-3.5489,-3.5249,-3.4887,-3.4632,-3.4371,-3.413,-3.3998,-3.3895,-3.3753,-3.3633,-3.3595,-3.3549,-3.3509,-3.3422,-3.3393,-3.3334,-3.3208,-3.3208,-3.3006,-3.274,-3.2845,-3.2526,-3.2157,-3.283,-3.2706,-3.1618,-3.2161,-3.189,-3.0775,-3.1049,-3.1031,-3.0518,-3.0468,-3.0468,-3.0418,-2.9931,-2.9197,-2.8339,-2.7623,-2.6733,-2.5777,-2.541,-2.5217,-2.5185,-2.4379,-2.3291,-2.2137,-2.1663,-2.1316,-2.0873,-2.081,-2.0794,-2.0695,-2.0135,-1.9726,-1.9493,-1.8965,-1.8556,-1.8478,-1.8439,-1.84,-1.84,-1.8361,-1.8189,-1.7801,-1.7598,-1.7227,-1.6765,-1.6188,-1.5848,-1.5984,-1.6786,-1.764,-1.8326,-1.877,-1.8963,-1.8987,-1.8987,-1.8987,-1.8987,-1.8987,-1.8987,-1.8987,-1.8987,-1.8975,-1.8758,-1.8626,-1.819,-1.7338,-1.674,-1.6799,-1.6763,-1.6289,-1.5997,-1.589,-1.5579,-1.5243,-1.4811,-1.4365,-1.4237,-1.4092,-1.4126,-1.428,-1.4405,-1.446,-1.4488,-1.4506,-1.4478,-1.4414,-3.958,-3.8354,-3.7895,-3.7288,-3.6449,-3.5592,-3.5143,-3.5019,-3.4945,-3.4812,-3.4632,-3.4416,-3.4298,-3.4203,-3.3979,-3.386,-3.3762,-3.3698,-3.3577,-3.3553,-3.3814,-3.3731,-3.3447,-3.3393,-3.3286,-3.306,-3.3182,-3.2945,-3.242,-3.3161,-3.312,-3.2424,-3.2706,-3.2569,-3.1625,-3.1496,-3.1215,-3.0814,-3.0327,-3.0112,-2.9963,-2.94,-2.8688,-2.8009,-2.7399,-2.673,-2.6036,-2.5675,-2.5432,-2.5118,-2.4195,-2.3117,-2.2311,-2.179,-2.1284,-2.0936,-2.081,-2.0794,-2.0728,-2.0308,-1.9904,-1.9726,-1.9213,-1.8836,-1.8736,-1.8697,-1.862,-1.862,-1.8503,-1.8347,-1.8055,-1.7882,-1.7598,-1.7102,-1.6423,-1.6138,-1.6411,-1.6991,-1.7736,-1.8362,-1.8806,-1.8951,-1.8987,-1.8987,-1.8987,-1.8987,-1.8987,-1.8987,-1.8987,-1.8987,-1.8927,-1.8806,-1.8554,-1.801,-1.7325,-1.6979,-1.6751,-1.6394,-1.5944,-1.5682,-1.5533,-1.5051,-1.4666,-1.4154,-1.3685,-1.3955,-1.3957,-1.3969,-1.4096,-1.4212,-1.435,-1.4258,-1.4185,-1.4212,-1.4176,-3.9965,-3.9069,-3.8201,-3.728,-3.6403,-3.5567,-3.5209,-3.5176,-3.5019,-3.4926,-3.4851,-3.4632,-3.4529,-3.4464,-3.4279,-3.4173,-3.4074,-3.3868,-3.3698,-3.3806,-3.4204,-3.4207,-3.3495,-3.3393,-3.3364,-3.3304,-3.3149,-3.2969,-3.2813,-3.2887,-3.2704,-3.302,-3.2564,-3.2458,-3.2466,-3.1854,-3.1193,-3.098,-3.004,-2.947,-2.938,-2.8771,-2.8139,-2.7474,-2.7271,-2.6869,-2.6303,-2.597,-2.5675,-2.5173,-2.3877,-2.307,-2.2659,-2.1584,-2.0984,-2.0842,-2.081,-2.081,-2.0761,-2.0512,-2.0254,-1.9955,-1.9617,-1.9369,-1.9064,-1.8912,-1.8822,-1.8798,-1.8697,-1.8556,-1.8464,-1.8254,-1.7868,-1.7325,-1.6713,-1.6692,-1.7303,-1.7472,-1.8003,-1.8738,-1.904,-1.9052,-1.9052,-1.9052,-1.9052,-1.8987,-1.8987,-1.8987,-1.8987,-1.8939,-1.8734,-1.8626,-1.8578,-1.8166,-1.7575,-1.7126,-1.6953,-1.6776,-1.6173,-1.5684,-1.5265,-1.4733,-1.4556,-1.3972,-1.3384,-1.3681,-1.3809,-1.3839,-1.3922,-1.4059,-1.4068,-1.3901,-1.391,-1.3983,-1.3992,-3.9433,-3.7539,-3.7803,-3.707,-3.5722,-3.5369,-3.5296,-3.5261,-3.5176,-3.5107,-3.5053,-3.487,-3.4793,-3.4773,-3.4548,-3.4344,-3.4221,-3.4099,-3.3895,-3.3826,-3.4501,-3.4287,-3.3608,-3.3422,-3.3393,-3.3436,-3.3756,-3.3833,-3.3346,-3.362,-3.3588,-3.2918,-3.2765,-3.2491,-3.2249,-3.1496,-3.0884,-3.0692,-2.9896,-2.9287,-2.9076,-2.845,-2.8063,-2.7876,-2.7143,-2.6719,-2.645,-2.6115,-2.5696,-2.5253,-2.4258,-2.3386,-2.2932,-2.2077,-2.1365,-2.0936,-2.0826,-2.081,-2.0761,-2.0545,-2.0289,-2.0025,-1.9726,-1.9384,-1.9139,-1.9064,-1.9026,-1.9026,-1.895,-1.8874,-1.8707,-1.8592,-1.8159,-1.7406,-1.7053,-1.7082,-1.7567,-1.8081,-1.8532,-1.9169,-1.9251,-1.921,-1.9158,-1.9117,-1.9117,-1.9052,-1.8999,-1.8987,-1.8987,-1.8987,-1.8843,-1.8879,-1.8794,-1.8406,-1.7942,-1.7447,-1.719,-1.7157,-1.6619,-1.5864,-1.5285,-1.4626,-1.4728,-1.4676,-1.373,-1.3632,-1.3647,-1.365,-1.3765,-1.3858,-1.3801,-1.369,-1.38,-1.3882,-1.3827,-3.976,-3.8074,-3.8468,-3.7578,-3.604,-3.594,-3.5691,-3.5343,-3.5254,-3.5239,-3.5207,-3.5141,-3.5053,-3.5018,-3.4793,-3.4632,-3.4502,-3.439,-3.416,-3.3994,-3.4211,-3.4199,-3.3967,-3.3698,-3.3452,-3.3477,-3.3864,-3.3791,-3.3538,-3.39,-3.3815,-3.3661,-3.3476,-3.3491,-3.3748,-3.2244,-3.1531,-3.1219,-2.9987,-2.8904,-2.8612,-2.7896,-2.7436,-2.7283,-2.6722,-2.645,-2.6364,-2.6079,-2.5733,-2.5309,-2.4628,-2.3941,-2.3422,-2.2515,-2.1798,-2.1286,-2.1,-2.081,-2.0761,-2.0662,-2.046,-2.0185,-1.9854,-1.9566,-1.9325,-1.9176,-1.9116,-1.9101,-1.9116,-1.9026,-1.8936,-1.8784,-1.8422,-1.795,-1.7774,-1.7756,-1.7834,-1.8228,-1.883,-1.9236,-1.942,-1.9368,-1.9275,-1.9235,-1.917,-1.9105,-1.9052,-1.9052,-1.8987,-1.8987,-1.8987,-1.8987,-1.8815,-1.8383,-1.7979,-1.7479,-1.7017,-1.703,-1.6559,-1.5895,-1.5351,-1.4635,-1.4358,-1.4353,-1.3802,-1.3478,-1.3399,-1.3374,-1.3439,-1.3478,-1.3488,-1.3415,-1.3433,-1.3543,-1.3525,-4.0493,-3.9663,-3.9485,-3.8384,-3.6887,-3.6677,-3.6034,-3.5407,-3.53,-3.53,-3.53,-3.53,-3.5273,-3.5277,-3.5034,-3.4907,-3.487,-3.4634,-3.4439,-3.4203,-3.4094,-3.4064,-3.443,-3.3832,-3.3556,-3.3528,-3.3452,-3.3567,-3.3604,-3.3574,-3.3973,-3.4256,-3.4382,-3.4739,-3.4492,-3.3337,-3.2553,-3.1767,-2.9924,-2.8659,-2.8209,-2.7612,-2.719,-2.696,-2.6725,-2.6468,-2.6293,-2.6079,-2.5901,-2.568,-2.4908,-2.439,-2.404,-2.2964,-2.2351,-2.2007,-2.1496,-2.1066,-2.0938,-2.0905,-2.0662,-2.0376,-2.0115,-1.9848,-1.9493,-1.925,-1.9116,-1.9116,-1.9116,-1.9101,-1.9011,-1.8745,-1.85,-1.8393,-1.8602,-1.8439,-1.8184,-1.8376,-1.8892,-1.9322,-1.946,-1.9473,-1.942,-1.9316,-1.9275,-1.921,-1.9158,-1.9158,-1.9158,-1.9158,-1.9105,-1.9052,-1.8774,-1.8375,-1.7898,-1.7436,-1.7044,-1.676,-1.6159,-1.5638,-1.5431,-1.4758,-1.4091,-1.37,-1.3637,-1.3375,-1.3001,-1.3029,-1.31,-1.3103,-1.306,-1.2871,-1.2764,-1.2956,-1.302,-4.055,-3.9636,-3.8936,-3.7953,-3.6867,-3.6115,-3.565,-3.5379,-3.533,-3.5315,-3.5315,-3.5315,-3.53,-3.532,-3.5219,-3.5119,-3.4925,-3.4794,-3.4676,-3.442,-3.4203,-3.4154,-3.4249,-3.3781,-3.3595,-3.3549,-3.3491,-3.3789,-3.4098,-3.3785,-3.4117,-3.5095,-3.3918,-3.3465,-3.4413,-3.2816,-3.134,-3.1009,-2.9908,-2.8909,-2.8246,-2.7977,-2.7742,-2.7577,-2.7321,-2.6956,-2.6589,-2.6468,-2.6329,-2.5898,-2.5134,-2.4616,-2.4366,-2.3705,-2.3218,-2.2939,-2.2338,-2.1871,-2.1773,-2.121,-2.0695,-2.0444,-2.0185,-1.9848,-1.9515,-1.9273,-1.9101,-1.9116,-1.9116,-1.9116,-1.9064,-1.8745,-1.8648,-1.8665,-1.8798,-1.8858,-1.8755,-1.9131,-1.9508,-1.9658,-1.9708,-1.9708,-1.9565,-1.9512,-1.9473,-1.9368,-1.9316,-1.9328,-1.9316,-1.9263,-1.921,-1.9117,-1.8774,-1.8452,-1.8321,-1.777,-1.7169,-1.6852,-1.6286,-1.5753,-1.5563,-1.5049,-1.4366,-1.3959,-1.3736,-1.3367,-1.2918,-1.2683,-1.2811,-1.2682,-1.2669,-1.2614,-1.261,-1.2623,-1.2641,-4.034,-3.9247,-3.952,-3.8416,-3.6662,-3.6687,-3.6303,-3.5592,-3.5422,-3.5398,-3.5379,-3.5379,-3.5379,-3.535,-3.535,-3.5235,-3.5083,-3.4943,-3.4774,-3.4529,-3.4302,-3.4124,-3.3998,-3.3815,-3.3671,-3.3661,-3.3577,-3.3858,-3.3938,-3.3855,-3.3862,-3.4703,-3.3742,-3.3948,-3.4244,-3.2578,-3.1735,-3.1191,-2.9882,-2.8766,-2.8264,-2.8128,-2.7858,-2.7607,-2.7258,-2.6875,-2.6572,-2.6468,-2.6399,-2.6123,-2.5628,-2.5236,-2.5069,-2.4498,-2.4104,-2.3821,-2.2878,-2.2359,-2.21,-2.1535,-2.0942,-2.0728,-2.0357,-1.9995,-1.9675,-1.9362,-1.9101,-1.9116,-1.9116,-1.9101,-1.9116,-1.9334,-1.9198,-1.9336,-1.9653,-1.979,-1.9655,-1.9718,-1.9798,-1.9798,-1.9798,-1.9747,-1.9708,-1.9656,-1.9617,-1.9512,-1.942,-1.9368,-1.9316,-1.9316,-1.9275,-1.9117,-1.8774,-1.8583,-1.8654,-1.8193,-1.7423,-1.7126,-1.6829,-1.6343,-1.6053,-1.5385,-1.469,-1.4233,-1.3765,-1.3391,-1.2978,-1.2744,-1.255,-1.2556,-1.2541,-1.2479,-1.2447,-1.2374,-1.2324,-4.0081,-3.8885,-4.0193,-3.906,-3.6883,-3.7591,-3.7171,-3.5925,-3.5586,-3.5501,-3.5488,-3.5507,-3.546,-3.5427,-3.5412,-3.5379,-3.5251,-3.5083,-3.4925,-3.4755,-3.4508,-3.4307,-3.4117,-3.3979,-3.3868,-3.378,-3.3689,-3.3724,-3.3897,-3.3933,-3.4331,-3.4175,-3.4563,-3.4709,-3.4322,-3.3259,-3.2172,-3.1592,-3.0188,-2.8897,-2.8327,-2.8165,-2.7869,-2.7457,-2.7227,-2.7006,-2.6842,-2.6674,-2.6469,-2.6365,-2.6258,-2.6132,-2.5842,-2.5428,-2.4931,-2.472,-2.3647,-2.3093,-2.2832,-2.2118,-2.1456,-2.1279,-2.0695,-2.0308,-2.0065,-1.9639,-1.9347,-1.9199,-1.9213,-1.9174,-1.9275,-1.9628,-2.002,-2.0272,-2.0798,-2.0893,-2.0489,-2.0083,-2.0004,-1.9798,-1.9798,-1.9798,-1.9747,-1.9708,-1.9656,-1.9604,-1.9512,-1.9473,-1.942,-1.9368,-1.938,-1.9328,-1.904,-1.8827,-1.8834,-1.8457,-1.771,-1.7512,-1.7258,-1.6914,-1.6567,-1.6175,-1.5471,-1.4212,-1.3647,-1.3352,-1.3057,-1.2774,-1.2608,-1.252,-1.241,-1.2376,-1.2249,-1.2085,-1.2113,-3.9932,-3.9652,-3.9203,-3.897,-3.8842,-3.7831,-3.7075,-3.6607,-3.5847,-3.5553,-3.5501,-3.5507,-3.5493,-3.5474,-3.5474,-3.5446,-3.5364,-3.5235,-3.5187,-3.5066,-3.4851,-3.4656,-3.4553,-3.4302,-3.4197,-3.4049,-3.3905,-3.4019,-3.4603,-3.5257,-3.4991,-3.5435,-3.5472,-3.5289,-3.4532,-3.3777,-3.2429,-3.1638,-3.0576,-2.9634,-2.8861,-2.8414,-2.8291,-2.7971,-2.7847,-2.7683,-2.7491,-2.7195,-2.6939,-2.6725,-2.6382,-2.6239,-2.6134,-2.5986,-2.5867,-2.5565,-2.4786,-2.4144,-2.3996,-2.2947,-2.2345,-2.1988,-2.1309,-2.0811,-2.0563,-2.0104,-1.9645,-1.9545,-1.9383,-1.9371,-1.9885,-2.0161,-2.0407,-2.0775,-2.1069,-2.1091,-2.065,-2.0461,-2.0295,-2.0003,-1.9901,-1.9798,-1.9798,-1.9747,-1.9759,-1.9708,-1.9656,-1.9656,-1.9656,-1.9604,-1.9617,-1.9512,-1.942,-1.9198,-1.8999,-1.856,-1.8038,-1.7918,-1.7731,-1.7401,-1.7113,-1.7058,-1.633,-1.4945,-1.3989,-1.3535,-1.3221,-1.289,-1.2608,-1.2471,-1.2382,-1.2302,-1.2184,-1.2076,-1.2076,-3.8925,-3.8584,-3.8565,-3.8266,-3.778,-3.7386,-3.6857,-3.6336,-3.5825,-3.5577,-3.5546,-3.5509,-3.5507,-3.5507,-3.5507,-3.5474,-3.5446,-3.5379,-3.53,-3.5187,-3.5032,-3.487,-3.4813,-3.4569,-3.4524,-3.4371,-3.4154,-3.406,-3.4339,-3.4586,-3.4932,-3.4775,-3.4812,-3.4564,-3.397,-3.2848,-3.2311,-3.1518,-3.0618,-2.981,-2.9199,-2.8727,-2.8317,-2.8246,-2.8146,-2.7933,-2.7771,-2.7517,-2.7286,-2.7129,-2.6873,-2.6674,-2.6521,-2.6434,-2.6345,-2.6087,-2.5454,-2.4974,-2.4743,-2.3572,-2.267,-2.2427,-2.1633,-2.1023,-2.0747,-2.0261,-1.9854,-1.9677,-1.9909,-1.9903,-2.0226,-2.0761,-2.1316,-2.1567,-2.1815,-2.1773,-2.1439,-2.1137,-2.0693,-2.0207,-1.9952,-1.985,-1.9798,-1.9798,-1.9798,-1.9798,-1.9798,-1.9798,-1.9798,-1.9747,-1.9708,-1.9617,-1.9473,-1.9251,-1.904,-1.8762,-1.8429,-1.8321,-1.8201,-1.7929,-1.7686,-1.7641,-1.6741,-1.5477,-1.4707,-1.4266,-1.3472,-1.3094,-1.2754,-1.252,-1.2539,-1.2499,-1.2234,-1.2076,-1.2126,-3.7849,-3.7341,-3.8042,-3.7631,-3.6712,-3.6986,-3.6832,-3.6202,-3.583,-3.5639,-3.5611,-3.555,-3.5522,-3.5509,-3.5501,-3.5507,-3.5493,-3.5446,-3.5335,-3.5239,-3.5119,-3.498,-3.4889,-3.4793,-3.4773,-3.4714,-3.4486,-3.4189,-3.4076,-3.4238,-3.3991,-3.4055,-3.389,-3.3808,-3.3478,-3.2784,-3.2255,-3.137,-3.0513,-2.966,-2.9352,-2.8809,-2.821,-2.821,-2.8027,-2.7961,-2.7961,-2.7707,-2.7631,-2.7482,-2.7255,-2.7004,-2.6825,-2.6657,-2.6468,-2.621,-2.5624,-2.5392,-2.4993,-2.4232,-2.3489,-2.3391,-2.2297,-2.1682,-2.1116,-2.0724,-2.0095,-1.982,-2.018,-2.0681,-2.098,-2.163,-2.2118,-2.2396,-2.2585,-2.2678,-2.21,-2.1609,-2.1064,-2.0597,-2.0156,-1.9901,-1.985,-1.9798,-1.9798,-1.9798,-1.9798,-1.9798,-1.9798,-1.9747,-1.9708,-1.9629,-1.9485,-1.9263,-1.9105,-1.904,-1.8827,-1.8762,-1.8709,-1.8548,-1.8354,-1.816,-1.7139,-1.6169,-1.5974,-1.5448,-1.444,-1.3471,-1.3387,-1.3213,-1.2978,-1.2773,-1.2596,-1.24,-1.2353,-3.729,-3.7221,-3.7383,-3.7751,-3.8041,-3.7491,-3.7187,-3.6887,-3.6143,-3.58,-3.5682,-3.5573,-3.5502,-3.5392,-3.5361,-3.5405,-3.5435,-3.5359,-3.5364,-3.5364,-3.5335,-3.532,-3.527,-3.5122,-3.5053,-3.4981,-3.4793,-3.4508,-3.4354,-3.4596,-3.4403,-3.4054,-3.4311,-3.4495,-3.3716,-3.3185,-3.2782,-3.1667,-3.1111,-3.0301,-2.9241,-2.8821,-2.8644,-2.8601,-2.8551,-2.8474,-2.8388,-2.812,-2.7964,-2.788,-2.7299,-2.6952,-2.6839,-2.6657,-2.6537,-2.6399,-2.6227,-2.6071,-2.5872,-2.511,-2.458,-2.4348,-2.3836,-2.3178,-2.231,-2.1471,-2.084,-2.036,-2.0897,-2.1469,-2.1798,-2.2115,-2.2497,-2.2747,-2.2921,-2.2737,-2.231,-2.2063,-2.1465,-2.0979,-2.0534,-2.0156,-1.9901,-1.985,-1.9798,-1.9798,-1.9798,-1.9798,-1.9798,-1.9747,-1.9708,-1.9629,-1.9525,-1.9303,-1.9158,-1.9105,-1.9052,-1.9052,-1.8999,-1.8987,-1.879,-1.8458,-1.7906,-1.7167,-1.6784,-1.609,-1.496,-1.4251,-1.4116,-1.3872,-1.3573,-1.3308,-1.3047,-1.2861,-1.2696,-3.6381,-3.6423,-3.6472,-3.6716,-3.7009,-3.668,-3.654,-3.6454,-3.6082,-3.5869,-3.5699,-3.5196,-3.4708,-3.4381,-3.4154,-3.4376,-3.47,-3.4841,-3.5097,-3.5449,-3.5479,-3.546,-3.5427,-3.535,-3.5304,-3.5223,-3.5088,-3.4926,-3.4806,-3.4705,-3.4511,-3.4185,-3.4326,-3.4305,-3.3813,-3.3348,-3.3046,-3.2488,-3.1803,-3.0709,-2.9734,-2.9107,-2.8804,-2.8761,-2.8761,-2.8737,-2.8619,-2.8543,-2.8352,-2.8273,-2.788,-2.7695,-2.7452,-2.7178,-2.6923,-2.6708,-2.6486,-2.6312,-2.6177,-2.5526,-2.5243,-2.4944,-2.4447,-2.3654,-2.3043,-2.241,-2.1883,-2.1523,-2.1869,-2.2271,-2.253,-2.2799,-2.3052,-2.3216,-2.3157,-2.3008,-2.2723,-2.2328,-2.1927,-2.1403,-2.0966,-2.0633,-2.0245,-2.0055,-1.9952,-1.9798,-1.9798,-1.9798,-1.9798,-1.9798,-1.9708,-1.9617,-1.95,-1.9396,-1.9303,-1.921,-1.917,-1.9117,-1.8987,-1.9016,-1.9012,-1.867,-1.8063,-1.6785,-1.5527,-1.5013,-1.4903,-1.4799,-1.4537,-1.4359,-1.4196,-1.3884,-1.3608,-1.3329,-1.3132,-3.5715,-3.5742,-3.5841,-3.5887,-3.5896,-3.5951,-3.5996,-3.6015,-3.5968,-3.5801,-3.538,-3.4652,-3.3874,-3.3591,-3.3671,-3.412,-3.46,-3.455,-3.4918,-3.5355,-3.5534,-3.5515,-3.5515,-3.5501,-3.5501,-3.5501,-3.5296,-3.5187,-3.5138,-3.5019,-3.4771,-3.4357,-3.4427,-3.4274,-3.3914,-3.3529,-3.3239,-3.3073,-3.1682,-3.0686,-3.0027,-2.9247,-2.8949,-2.8834,-2.881,-2.8767,-2.8718,-2.8737,-2.8687,-2.8612,-2.837,-2.8093,-2.7936,-2.7487,-2.7164,-2.6939,-2.6674,-2.6485,-2.6282,-2.5879,-2.5494,-2.5143,-2.466,-2.4063,-2.3807,-2.3303,-2.2848,-2.2486,-2.2733,-2.2858,-2.3011,-2.3299,-2.3375,-2.3377,-2.3319,-2.3319,-2.3216,-2.274,-2.236,-2.1974,-2.1547,-2.1197,-2.0818,-2.0396,-2.0105,-1.985,-1.9798,-1.9798,-1.9798,-1.9798,-1.9747,-1.9656,-1.9604,-1.95,-1.9356,-1.9328,-1.9223,-1.9097,-1.898,-1.8967,-1.8911,-1.8602,-1.8031,-1.6479,-1.4878,-1.4767,-1.5119,-1.5074,-1.5017,-1.4971,-1.4846,-1.4494,-1.4157,-1.3862,-1.3525,-3.562,-3.5637,-3.5755,-3.5821,-3.5893,-3.5896,-3.595,-3.5996,-3.5976,-3.5508,-3.4685,-3.3866,-3.3717,-3.4017,-3.4036,-3.4459,-3.5398,-3.5476,-3.5482,-3.5512,-3.5591,-3.5591,-3.5579,-3.5566,-3.5547,-3.5522,-3.543,-3.5455,-3.546,-3.535,-3.5069,-3.4734,-3.4694,-3.4614,-3.4364,-3.398,-3.3358,-3.282,-3.1403,-3.054,-3.0063,-2.947,-2.8989,-2.8905,-2.8905,-2.8858,-2.8767,-2.8785,-2.8785,-2.8779,-2.85,-2.8308,-2.8174,-2.7666,-2.7334,-2.7195,-2.6825,-2.664,-2.6437,-2.63,-2.6212,-2.5874,-2.5335,-2.4683,-2.4506,-2.3774,-2.3336,-2.3249,-2.3349,-2.3383,-2.3432,-2.3508,-2.3538,-2.3494,-2.3436,-2.3392,-2.326,-2.2965,-2.2634,-2.2406,-2.2114,-2.1771,-2.1342,-2.0881,-2.0396,-2.0144,-1.9798,-1.9798,-1.9798,-1.9798,-1.9798,-1.9747,-1.9656,-1.9552,-1.9408,-1.9319,-1.9108,-1.8882,-1.8782,-1.875,-1.8787,-1.837,-1.7933,-1.6944,-1.5614,-1.5464,-1.5312,-1.5324,-1.5426,-1.5626,-1.5501,-1.505,-1.4584,-1.4212,-1.3905,-3.5232,-3.4812,-3.5387,-3.5713,-3.5774,-3.5857,-3.5921,-3.595,-3.5976,-3.5176,-3.3867,-3.3063,-3.2775,-3.3005,-3.3106,-3.374,-3.4775,-3.4924,-3.523,-3.5505,-3.5609,-3.5604,-3.562,-3.5616,-3.5572,-3.556,-3.556,-3.5547,-3.5476,-3.5495,-3.5407,-3.5187,-3.5016,-3.4695,-3.4467,-3.4228,-3.3599,-3.2779,-3.1691,-3.0875,-3.0134,-2.9504,-2.904,-2.8952,-2.8952,-2.8947,-2.8881,-2.8858,-2.8834,-2.8785,-2.8644,-2.8576,-2.8456,-2.7908,-2.7636,-2.7504,-2.7103,-2.6792,-2.6657,-2.6521,-2.6434,-2.6365,-2.5992,-2.5617,-2.5265,-2.4668,-2.4233,-2.402,-2.3697,-2.3666,-2.361,-2.3566,-2.3566,-2.3566,-2.3523,-2.348,-2.3334,-2.3098,-2.3054,-2.2905,-2.2634,-2.236,-2.188,-2.1417,-2.093,-2.0446,-2.0093,-1.9798,-1.9798,-1.9798,-1.9798,-1.9798,-1.9759,-1.9708,-1.9565,-1.9302,-1.8966,-1.8753,-1.8554,-1.8479,-1.8416,-1.8253,-1.7718,-1.6869,-1.6232,-1.5806,-1.5614,-1.5703,-1.5748,-1.5792,-1.5715,-1.5525,-1.5062,-1.4569,-1.4233,-3.4507,-3.4282,-3.4911,-3.5375,-3.5646,-3.5774,-3.5685,-3.5568,-3.5849,-3.4999,-3.334,-3.2363,-3.1952,-3.2085,-3.2512,-3.3256,-3.4432,-3.4905,-3.525,-3.5519,-3.5685,-3.5669,-3.5659,-3.5648,-3.5637,-3.5643,-3.5596,-3.5553,-3.5528,-3.5528,-3.5509,-3.5435,-3.533,-3.5013,-3.4716,-3.4315,-3.3887,-3.3197,-3.212,-3.1407,-3.0646,-2.9683,-2.913,-2.9062,-2.9062,-2.9017,-2.8975,-2.8952,-2.8905,-2.8881,-2.8834,-2.8834,-2.8626,-2.836,-2.8047,-2.7783,-2.7444,-2.6989,-2.6858,-2.6657,-2.652,-2.6468,-2.6468,-2.6191,-2.5937,-2.5503,-2.4987,-2.4561,-2.4158,-2.3852,-2.3739,-2.3653,-2.3653,-2.361,-2.3551,-2.3566,-2.3551,-2.3421,-2.3465,-2.3406,-2.3143,-2.292,-2.2498,-2.1974,-2.1028,-2.0497,-2.0055,-1.9798,-1.9798,-1.9798,-1.9798,-1.9798,-1.9798,-1.9747,-1.9747,-1.9443,-1.9166,-1.8694,-1.8446,-1.8067,-1.7922,-1.7743,-1.7517,-1.6819,-1.6286,-1.5936,-1.5792,-1.5792,-1.5792,-1.5792,-1.5748,-1.5671,-1.539,-1.4926,-1.4605,-3.3455,-3.4173,-3.4212,-3.4731,-3.5408,-3.5553,-3.5197,-3.4658,-3.5201,-3.4691,-3.3122,-3.1735,-3.1483,-3.2089,-3.2695,-3.3571,-3.4515,-3.5269,-3.5701,-3.5744,-3.5791,-3.5786,-3.5756,-3.5733,-3.5706,-3.5679,-3.5639,-3.5612,-3.5591,-3.5572,-3.5591,-3.5598,-3.5509,-3.5422,-3.53,-3.4889,-3.4532,-3.4012,-3.2451,-3.1751,-3.1034,-2.9928,-2.9314,-2.9156,-2.913,-2.9089,-2.9067,-2.9021,-2.8994,-2.8975,-2.8929,-2.8905,-2.8839,-2.8515,-2.8272,-2.8192,-2.7707,-2.7396,-2.7255,-2.6842,-2.6674,-2.6554,-2.6537,-2.6434,-2.6329,-2.5994,-2.5427,-2.4863,-2.4623,-2.4256,-2.4021,-2.3782,-2.3739,-2.3696,-2.3696,-2.3638,-2.3653,-2.3638,-2.3638,-2.3595,-2.3595,-2.3465,-2.3084,-2.2483,-2.1307,-2.0534,-1.9991,-1.9798,-1.985,-1.9862,-1.9862,-1.9798,-1.9798,-1.9798,-1.9747,-1.9594,-1.9304,-1.8844,-1.8289,-1.7873,-1.7434,-1.7186,-1.6886,-1.6546,-1.6269,-1.586,-1.5824,-1.5792,-1.5792,-1.5792,-1.5792,-1.5703,-1.5525,-1.5244,-1.4926,-3.2769,-3.2576,-3.3115,-3.3518,-3.3878,-3.4546,-3.4339,-3.3631,-3.3329,-3.2935,-3.2338,-3.1209,-3.1259,-3.1987,-3.2478,-3.3299,-3.4531,-3.4805,-3.5212,-3.584,-3.5876,-3.5834,-3.5812,-3.5786,-3.5742,-3.5702,-3.5679,-3.5649,-3.5608,-3.5631,-3.5628,-3.5623,-3.5604,-3.5509,-3.5281,-3.494,-3.4566,-3.3828,-3.2712,-3.1803,-3.104,-3.0049,-2.9334,-2.9243,-2.9181,-2.9104,-2.9064,-2.8979,-2.8975,-2.8971,-2.8925,-2.8975,-2.8929,-2.8633,-2.8489,-2.8342,-2.7964,-2.7666,-2.7487,-2.7164,-2.6989,-2.6775,-2.6623,-2.6521,-2.6225,-2.6049,-2.5556,-2.5059,-2.4823,-2.442,-2.4036,-2.394,-2.3897,-2.3882,-2.3882,-2.3839,-2.3782,-2.3739,-2.3739,-2.3638,-2.3595,-2.3334,-2.3009,-2.2785,-2.1738,-2.0904,-2.037,-2.0055,-1.9965,-1.9978,-1.9926,-1.9862,-1.9798,-1.9798,-1.9734,-1.9608,-1.9333,-1.8797,-1.8115,-1.7483,-1.7082,-1.6724,-1.6475,-1.6296,-1.6058,-1.582,-1.5812,-1.5792,-1.5792,-1.5792,-1.5792,-1.5748,-1.5525,-1.5379,-1.5153,-3.2051,-3.1674,-3.2231,-3.2487,-3.2627,-3.3495,-3.3548,-3.2926,-3.1972,-3.1598,-3.1724,-3.1086,-3.0969,-3.1541,-3.2036,-3.2746,-3.4212,-3.4604,-3.5173,-3.5839,-3.5937,-3.5914,-3.5884,-3.5786,-3.5806,-3.5755,-3.5735,-3.571,-3.5697,-3.5679,-3.5679,-3.5648,-3.5651,-3.5604,-3.5402,-3.5139,-3.484,-3.4101,-3.3197,-3.2089,-3.1299,-3.0415,-2.957,-2.9321,-2.9089,-2.8825,-2.8778,-2.8732,-2.8725,-2.8739,-2.8905,-2.9007,-2.8957,-2.8887,-2.8707,-2.8558,-2.8201,-2.7869,-2.7547,-2.7258,-2.7021,-2.6842,-2.6792,-2.6607,-2.6332,-2.6297,-2.5762,-2.5313,-2.4981,-2.4558,-2.4219,-2.4151,-2.4082,-2.4067,-2.3982,-2.3925,-2.394,-2.3882,-2.3839,-2.3739,-2.3653,-2.3334,-2.2979,-2.2663,-2.2235,-2.1486,-2.0779,-2.0484,-2.0182,-2.008,-2.0029,-1.9914,-1.9862,-1.9862,-1.9748,-1.9597,-1.9258,-1.8758,-1.8157,-1.7497,-1.6801,-1.6483,-1.6254,-1.6044,-1.592,-1.582,-1.5812,-1.5792,-1.5792,-1.5792,-1.5792,-1.5703,-1.5513,-1.5424,-1.5322,-3.1272,-3.1365,-3.1578,-3.1635,-3.1782,-3.2429,-3.2806,-3.2812,-3.1234,-3.1033,-3.1754,-3.0892,-3.0734,-3.091,-3.1582,-3.2427,-3.327,-3.4054,-3.4799,-3.5444,-3.5425,-3.5564,-3.5566,-3.5526,-3.5439,-3.5623,-3.5697,-3.5563,-3.5752,-3.5768,-3.5733,-3.5704,-3.5688,-3.5673,-3.5572,-3.5424,-3.5215,-3.4668,-3.3448,-3.2556,-3.1922,-3.0731,-2.9918,-2.9438,-2.8933,-2.8463,-2.8233,-2.8075,-2.7996,-2.8178,-2.8642,-2.8913,-2.9056,-2.9071,-2.9044,-2.8863,-2.8378,-2.8065,-2.7695,-2.7413,-2.7135,-2.7006,-2.6942,-2.6825,-2.6708,-2.6624,-2.621,-2.5815,-2.5481,-2.4918,-2.4467,-2.4343,-2.4234,-2.4151,-2.4051,-2.4024,-2.404,-2.3997,-2.3982,-2.394,-2.3925,-2.3711,-2.3348,-2.2994,-2.2752,-2.231,-2.167,-2.1251,-2.0885,-2.0283,-2.0233,-2.0029,-1.9978,-1.9965,-1.9851,-1.9826,-1.956,-1.9183,-1.8468,-1.7793,-1.7065,-1.6442,-1.6287,-1.612,-1.594,-1.5864,-1.5913,-1.5881,-1.5792,-1.5792,-1.5792,-1.5748,-1.5603,-1.5558,-1.5457,-3.0194,-3.0208,-3.0418,-3.0496,-3.0543,-3.09,-3.1095,-3.1056,-3.0574,-3.0656,-3.0892,-3.0651,-3.0564,-3.0671,-3.0969,-3.1655,-3.2244,-3.2768,-3.3361,-3.391,-3.4437,-3.4244,-3.4211,-3.4313,-3.4492,-3.482,-3.5042,-3.5285,-3.568,-3.5777,-3.5775,-3.5718,-3.5708,-3.5707,-3.5673,-3.5608,-3.5495,-3.5002,-3.3596,-3.2971,-3.2249,-3.0983,-3.0224,-2.9555,-2.8774,-2.8276,-2.8016,-2.7415,-2.7264,-2.7374,-2.798,-2.8326,-2.8344,-2.8824,-2.9152,-2.9152,-2.8868,-2.859,-2.8166,-2.7936,-2.7636,-2.723,-2.7087,-2.7023,-2.694,-2.6859,-2.664,-2.6227,-2.5852,-2.5329,-2.4839,-2.4614,-2.4426,-2.4276,-2.4193,-2.4151,-2.4166,-2.4124,-2.4109,-2.4067,-2.4067,-2.3982,-2.3625,-2.351,-2.326,-2.2946,-2.2566,-2.2119,-2.1582,-2.1019,-2.0623,-2.0472,-2.0359,-2.0409,-2.0271,-2.0156,-1.9915,-1.9585,-1.8839,-1.8172,-1.7581,-1.699,-1.6536,-1.625,-1.6051,-1.602,-1.6013,-1.5969,-1.5881,-1.5792,-1.5792,-1.5792,-1.5736,-1.5691,-1.5603,-2.987,-2.9644,-2.9799,-2.9931,-3.0041,-3.0215,-3.0311,-3.0374,-3.0398,-3.0417,-3.0451,-3.0471,-3.0492,-3.056,-3.0671,-3.1138,-3.1966,-3.2167,-3.2654,-3.336,-3.3285,-3.349,-3.3417,-3.3365,-3.3725,-3.4082,-3.4492,-3.492,-3.5333,-3.5724,-3.5819,-3.5788,-3.5743,-3.5689,-3.56,-3.5358,-3.5145,-3.4649,-3.389,-3.3188,-3.2261,-3.1244,-3.0398,-2.9726,-2.8833,-2.8161,-2.7789,-2.6989,-2.6692,-2.6953,-2.7673,-2.8246,-2.8429,-2.9018,-2.9218,-2.9156,-2.8962,-2.8646,-2.8298,-2.8102,-2.7783,-2.7474,-2.7293,-2.7247,-2.7137,-2.704,-2.6708,-2.6349,-2.612,-2.5795,-2.5291,-2.4839,-2.4614,-2.44,-2.4359,-2.4333,-2.4291,-2.4234,-2.4193,-2.4151,-2.4109,-2.4109,-2.4013,-2.3902,-2.3788,-2.3451,-2.3157,-2.2828,-2.2296,-2.1766,-2.1417,-2.1188,-2.1091,-2.0979,-2.0795,-2.062,-2.0414,-2.0051,-1.9206,-1.857,-1.8037,-1.7293,-1.6598,-1.6306,-1.6175,-1.6144,-1.6144,-1.6013,-1.5913,-1.5881,-1.5836,-1.5792,-1.5792,-1.5792,-1.5647,-3.0006,-2.9398,-2.957,-2.9765,-2.9977,-3.0161,-3.0266,-3.0299,-3.0362,-3.0398,-3.0379,-3.0398,-3.0428,-3.0472,-3.0539,-3.092,-3.1428,-3.1644,-3.1943,-3.3054,-3.2764,-3.2739,-3.2829,-3.3144,-3.2955,-3.3426,-3.3877,-3.4138,-3.4668,-3.5011,-3.5311,-3.5752,-3.5599,-3.5463,-3.5329,-3.4932,-3.4613,-3.4149,-3.3451,-3.2733,-3.2394,-3.1455,-3.0359,-2.9934,-2.8798,-2.7631,-2.7214,-2.6752,-2.6312,-2.7004,-2.7811,-2.8501,-2.8996,-2.9212,-2.9225,-2.9178,-2.903,-2.8785,-2.8522,-2.8316,-2.7954,-2.7683,-2.7539,-2.7465,-2.7341,-2.7218,-2.6925,-2.6657,-2.6436,-2.6156,-2.5705,-2.5291,-2.4997,-2.4735,-2.4589,-2.4523,-2.4385,-2.4359,-2.4317,-2.4276,-2.4234,-2.4193,-2.4151,-2.4085,-2.4043,-2.3855,-2.3696,-2.3377,-2.3068,-2.2589,-2.2221,-2.1894,-2.1704,-2.1595,-2.15,-2.1335,-2.105,-2.0523,-1.9693,-1.8976,-1.8442,-1.7543,-1.6529,-1.6392,-1.6306,-1.6275,-1.6188,-1.61,-1.6001,-1.5957,-1.5913,-1.5836,-1.5792,-1.5792,-1.5748,-2.9277,-2.9115,-2.9314,-2.9514,-2.9715,-2.9915,-3.0007,-3.0022,-3.0253,-3.0305,-3.0337,-3.0318,-3.0343,-3.0375,-3.0451,-3.0724,-3.0847,-3.1084,-3.1154,-3.1432,-3.1543,-3.175,-3.1538,-3.1772,-3.1914,-3.2307,-3.2736,-3.3246,-3.382,-3.4101,-3.4368,-3.4851,-3.4861,-3.4834,-3.4768,-3.4353,-3.4027,-3.3502,-3.2704,-3.2212,-3.197,-3.1323,-3.0432,-2.9817,-2.8779,-2.7731,-2.721,-2.6654,-2.6309,-2.6456,-2.7742,-2.8614,-2.9338,-2.9275,-2.931,-2.9307,-2.9222,-2.9007,-2.8785,-2.8572,-2.829,-2.7982,-2.78,-2.7642,-2.7509,-2.739,-2.7201,-2.6989,-2.6741,-2.6436,-2.6156,-2.5742,-2.5368,-2.5075,-2.4775,-2.4655,-2.4533,-2.4482,-2.4457,-2.44,-2.4359,-2.4317,-2.4276,-2.4276,-2.425,-2.4151,-2.4036,-2.3867,-2.3824,-2.3465,-2.295,-2.2634,-2.2267,-2.2114,-2.2161,-2.1945,-2.1629,-2.1097,-2.0323,-1.9597,-1.8835,-1.7848,-1.685,-1.6552,-1.6392,-1.6522,-1.6522,-1.6287,-1.6188,-1.6175,-1.6001,-1.5913,-1.5836,-1.5836,-1.5792,-2.8975,-2.9021,-2.9228,-2.9375,-2.9494,-2.9678,-2.9765,-2.9782,-2.9934,-3.0,-3.0026,-3.0194,-3.0305,-3.0299,-3.0383,-3.0417,-3.0441,-3.0501,-3.066,-3.0625,-3.0661,-3.0804,-3.0747,-3.0785,-3.1086,-3.1519,-3.2026,-3.2575,-3.3127,-3.3455,-3.3807,-3.4021,-3.4047,-3.4004,-3.3912,-3.3673,-3.3292,-3.2674,-3.1825,-3.1428,-3.136,-3.0854,-3.0259,-2.9612,-2.8752,-2.7755,-2.7094,-2.6623,-2.6631,-2.698,-2.8211,-2.8576,-2.9062,-2.917,-2.9375,-2.9431,-2.937,-2.9307,-2.9079,-2.8879,-2.8646,-2.8316,-2.8083,-2.7933,-2.7701,-2.7569,-2.7496,-2.7276,-2.6922,-2.664,-2.6539,-2.6212,-2.5944,-2.5652,-2.5291,-2.5059,-2.4799,-2.463,-2.467,-2.4695,-2.4574,-2.4467,-2.4467,-2.4482,-2.4441,-2.4426,-2.4328,-2.4287,-2.4261,-2.4193,-2.3724,-2.3363,-2.3039,-2.2905,-2.298,-2.2702,-2.2192,-2.1628,-2.0925,-1.9739,-1.8657,-1.7931,-1.7269,-1.7102,-1.7005,-1.7089,-1.7018,-1.6735,-1.6607,-1.6625,-1.6281,-1.6001,-1.5957,-1.5957,-1.5913,-2.8929,-2.8998,-2.9185,-2.9251,-2.9272,-2.9474,-2.9551,-2.9551,-2.9589,-2.9626,-2.9681,-3.0045,-3.0194,-3.0253,-3.0279,-3.0299,-3.033,-3.0378,-3.0381,-3.0443,-3.0535,-3.06,-3.0656,-3.0721,-3.0856,-3.1071,-3.1507,-3.2098,-3.2709,-3.2767,-3.2792,-3.3105,-3.3181,-3.3131,-3.2914,-3.258,-3.2165,-3.1757,-3.1153,-3.0638,-3.0522,-3.0489,-2.999,-2.9268,-2.8407,-2.7533,-2.6911,-2.6708,-2.6926,-2.7537,-2.8388,-2.8855,-2.9064,-2.9251,-2.94,-2.9492,-2.9472,-2.9373,-2.9212,-2.9064,-2.8795,-2.8572,-2.8378,-2.821,-2.7982,-2.7858,-2.7789,-2.7565,-2.7238,-2.7002,-2.6872,-2.669,-2.6437,-2.6158,-2.5783,-2.5427,-2.5153,-2.4855,-2.4934,-2.4958,-2.4839,-2.4695,-2.4655,-2.467,-2.467,-2.4655,-2.4614,-2.4614,-2.4549,-2.4426,-2.4162,-2.3994,-2.3852,-2.3809,-2.3767,-2.3221,-2.2564,-2.201,-2.1177,-1.9784,-1.8593,-1.8057,-1.7787,-1.7801,-1.7747,-1.7625,-1.7489,-1.7297,-1.716,-1.7076,-1.6909,-1.6625,-1.6527,-1.6484,-1.625,-2.8615,-2.8929,-2.9021,-2.9026,-2.9026,-2.9251,-2.9334,-2.9334,-2.9494,-2.9608,-2.9608,-2.9662,-2.9801,-2.9992,-3.0161,-3.0221,-3.0234,-3.0292,-3.0348,-3.0423,-3.0462,-3.0505,-3.0552,-3.0607,-3.0626,-3.0817,-3.1012,-3.1152,-3.1776,-3.163,-3.1694,-3.2304,-3.2341,-3.2316,-3.2304,-3.1953,-3.1659,-3.1068,-3.0392,-2.9848,-2.9684,-2.9654,-2.9598,-2.8846,-2.7869,-2.7222,-2.6781,-2.6761,-2.6764,-2.7163,-2.8084,-2.8941,-2.9278,-2.9436,-2.9588,-2.9626,-2.9608,-2.9551,-2.9416,-2.9336,-2.9151,-2.8956,-2.8814,-2.8718,-2.8529,-2.8316,-2.821,-2.8093,-2.7776,-2.7474,-2.7289,-2.7034,-2.6807,-2.659,-2.63,-2.5908,-2.5572,-2.54,-2.5362,-2.5307,-2.523,-2.5114,-2.5036,-2.4997,-2.4895,-2.4879,-2.4775,-2.4775,-2.471,-2.4645,-2.4605,-2.4523,-2.4426,-2.4276,-2.3994,-2.3364,-2.2802,-2.2244,-2.1471,-2.0055,-1.9018,-1.8411,-1.8198,-1.8344,-1.8108,-1.7908,-1.7774,-1.7841,-1.7693,-1.7571,-1.7544,-1.7407,-1.7229,-1.698,-1.674]},{"header":{"parameterUnit":"m.s-1","parameterCategory":1,"la1":31.0,"la2":29.5877,"lo1":-88.7671,"lo2":-86.6584,"dy":0.0162,"dx":0.0185,"nx":115,"ny":88,"refTime":"2023-05-12T06:00:00:Z","depth":0,"parameterNumber":3,"parameterNumberName":"V-component_of_WINDS"},"data":[0.0,0.0,0.0,0.0,0.0,0.0,0.0,0.0,0.0,0.0,0.0,0.0,0.0,0.0,0.0,0.0,0.0,0.0,0.0,0.0,0.0,0.0,0.0,0.0,0.0,0.0,0.0,0.0,0.0,0.0,0.0,0.0,0.0,0.0,0.0,0.0,0.0,0.0,0.0,0.0,0.0,0.0,0.0,0.0,0.0,0.0,0.0,0.0,0.0,0.0,0.0,0.0,0.0,0.0,0.0,0.0,0.0,0.0,0.0,0.0,0.0,0.0,0.0,0.0,0.0,0.0,0.0,0.0,0.0,0.0,0.0,0.0,0.0,0.0,0.0,0.0,0.0,0.0,0.0,0.0,0.0,0.0,0.0,0.0,0.0,0.0,0.0,0.0,0.0,0.0,0.0,0.0,0.0,0.0,0.0,0.0,0.0,0.0,0.0,0.0,0.0,0.0,0.0,0.0,0.0,0.0,0.0,0.0,0.0,0.0,0.0,0.0,0.0,0.0,0.0,0.0,0.0,0.0,0.0,0.0,0.0,0.0,0.0,0.0,0.0,0.0,0.0,0.0,0.0,0.0,0.0,0.0,0.0,0.0,0.0,0.0,0.0,0.0,0.0,0.0,0.0,0.0,0.0,0.0,0.0,0.0,0.0,0.0,0.0,0.0,0.0,0.0,0.0,0.0,0.0,0.0,0.0,0.0,0.0,0.0,0.0,0.0,0.0,0.0,0.0,0.0,0.0,0.0,0.0,0.0,0.0,0.0,0.0,0.0,0.0,0.0,0.0,0.0,0.0,0.0,0.0,0.0,0.0,0.0,0.0,0.0,0.0,0.0,0.0,0.0,0.0,0.0,0.0,0.0,0.0,0.0,0.0,0.0,0.0,0.0,0.0,0.0,0.0,0.0,0.0,0.0,0.0,0.0,0.0,0.0,0.0,0.0,0.0,0.0,0.0,0.0,0.0,0.0,0.0,0.0,0.0,0.0,0.0,0.0,0.0,0.0,0.0,0.0,0.0,0.0,0.0,0.0,0.0,0.0,0.0,0.0,0.0,0.0,0.0,0.0,0.0,0.0,0.0,0.0,0.0,0.0,0.0,0.0,0.0,0.0,0.0,0.0,0.0,0.0,0.0,0.0,0.0,0.0,0.0,0.0,0.0,0.0,0.0,0.0,0.0,0.0,0.0,0.0,0.0,0.0,0.0,0.0,0.0,0.0,0.0,0.0,0.0,0.0,0.0,0.0,0.0,0.0,0.0,0.0,0.0,0.0,0.0,0.0,0.0,0.0,0.0,0.0,0.0,0.0,0.0,0.0,0.0,0.0,0.0,0.0,0.0,0.0,0.0,0.0,0.0,0.0,0.0,0.0,0.0,0.0,0.0,0.0,0.0,0.0,0.0,0.0,0.0,0.0,0.0,0.0,0.0,0.0,0.0,0.0,0.0,0.0,0.0,0.0,0.0,0.0,0.0,0.0,0.0,0.0,0.0,0.0,0.0,0.0,0.0,0.0,0.0,0.0,0.0,0.0,0.0,0.0,0.0,0.0,0.0,0.0,0.0,0.0,0.0,0.0,0.0,0.0,0.0,0.0,0.0,0.0,0.0,0.0,0.0,0.0,0.0,0.0,0.0,0.0,0.0,0.0,0.0,0.0,0.0,0.0,0.0,0.0,0.0,0.0,0.0,0.0,0.0,0.0,0.0,0.0,0.0,0.0,0.0,0.0,0.0,0.0,0.0,0.0,0.0,0.0,0.0,0.0,0.0,0.0,0.0,0.0,0.0,0.0,0.0,0.0,0.0,0.0,0.0,0.0,0.0,0.0,0.0,0.0,0.0,0.0,0.0,0.0,0.0,0.0,0.0,0.0,0.0,0.0,0.0,0.0,0.0,0.0,0.0,0.0,0.0,0.0,0.0,0.0,0.0,0.0,0.0,0.0,0.0,0.0,0.0,0.0,0.0,0.0,0.0,0.0,0.0,0.0,0.0,0.0,0.0,0.0,0.0,0.0,0.0,0.0,0.0,0.0,0.0,0.0,0.0,0.0,0.0,0.0,0.0,0.0,0.0,0.0,0.0,0.0,0.0,0.0,0.0,0.0,0.0,0.0,0.0,0.0,0.0,0.0,0.0,0.0,0.0,0.0,0.0,0.0,0.0,0.0,0.0,0.0,0.0,0.0,0.0,0.0,0.0,0.0,0.0,0.0,0.0,0.0,0.0,0.0,0.0,0.0,0.0,0.0,0.0,0.0,0.0,0.0,0.0,0.0,0.0,0.0,0.0,0.0,0.0,0.0,0.0,0.0,0.0,0.0,0.0,0.0,0.0,0.0,0.0,0.0,0.0,0.0,0.0,0.0,0.0,0.0,0.0,0.0,0.0,0.0,0.0,0.0,0.0,0.0,0.0,0.0,0.0,0.0,0.0,0.0,0.0,0.0,0.0,0.0,0.0,0.0,0.0,0.0,0.0,0.0,0.0,0.0,0.0,0.0,0.0,0.0,0.0,0.0,0.0,0.0,0.0,0.0,0.0,0.0,0.0,0.0,0.0,0.0,0.0,0.0,0.0,0.0,0.0,0.0,0.0,0.0,0.0,0.0,0.0,0.0,0.0,0.0,0.0,0.0,0.0,0.0,0.0,0.0,0.0,0.0,0.0,0.0,0.0,0.0,0.0,0.0,0.0,0.0,0.0,0.0,0.0,0.0,0.0,0.0,0.0,0.0,0.0,0.0,0.0,0.0,0.0,0.0,0.0,0.0,0.0,0.0,0.0,0.0,0.0,0.0,0.0,0.0,0.0,0.0,0.0,0.0,0.0,0.0,0.0,0.0,0.0,0.0,0.0,0.0,0.0,0.0,0.0,0.0,0.0,0.0,0.0,0.0,0.0,0.0,0.0,0.0,0.0,0.0,0.0,0.0,0.0,0.0,0.0,0.0,0.0,0.0,0.0,0.0,0.0,0.0,0.0,0.0,0.0,0.0,0.0,0.0,0.0,0.0,0.0,0.0,0.0,0.0,0.0,0.0,0.0,0.0,0.0,0.0,0.0,0.0,0.0,0.0,0.0,0.0,0.0,0.0,0.0,0.0,0.0,0.0,0.0,0.0,0.0,0.0,0.0,0.0,0.0,0.0,0.0,0.0,0.0,0.0,0.0,0.0,0.0,0.0,0.0,0.0,0.0,0.0,0.0,0.0,0.0,0.0,0.0,0.0,0.0,0.0,0.0,0.0,0.0,0.0,0.0,0.0,0.0,0.0,0.0,0.0,0.0,0.0,0.0,0.0,0.0,0.0,0.0,0.0,0.0,0.0,0.0,0.0,0.0,0.0,0.0,0.0,0.0,0.0,0.0,0.0,0.0,0.0,0.0,0.0,0.0,0.0,0.0,0.0,0.0,0.0,0.0,0.0,0.0,0.0,0.0,0.0,0.0,0.0,0.0,0.0,0.0,0.0,0.0,0.0,0.0,0.0,0.0,0.0,0.0,0.0,0.0,0.0,0.0,0.0,0.0,0.0,0.0,0.0,0.0,0.0,0.0,0.0,0.0,0.0,0.0,0.0,0.0,0.0,0.0,0.0,0.0,0.0,0.0,0.0,0.0,0.0,0.0,0.0,0.0,0.0,0.0,0.0,0.0,0.0,0.0,0.0,0.0,0.0,0.0,0.0,0.0,0.0,0.0,0.0,0.0,0.0,0.0,0.0,0.0,0.0,0.0,0.0,0.0,0.0,0.0,0.0,0.0,0.0,0.0,0.0,0.0,0.0,0.0,0.0,0.0,0.0,0.0,0.0,0.0,0.0,0.0,0.0,0.0,0.0,0.0,0.0,0.0,0.0,0.0,0.0,0.0,0.0,0.0,0.0,0.0,0.0,0.0,0.0,0.0,0.0,0.0,0.0,0.0,0.0,0.0,0.0,0.0,0.0,0.0,0.0,0.0,0.0,0.0,0.0,0.0,0.0,0.0,0.0,0.0,0.0,0.0,0.0,0.0,0.0,0.0,0.0,0.0,0.0,0.0,0.0,0.0,0.0,0.0,0.0,0.0,0.0,0.0,0.0,0.0,0.0,0.0,0.0,0.0,0.0,0.0,0.0,0.0,0.0,0.0,0.0,0.0,0.0,0.0,0.0,0.0,0.0,0.0,0.0,0.0,0.0,0.0,0.0,0.0,0.0,0.0,0.0,0.0,0.0,0.0,0.0,0.0,0.0,0.0,0.0,0.0,0.0,0.0,0.0,0.0,0.0,0.0,0.0,0.0,0.0,0.0,0.0,0.0,0.0,0.0,0.0,0.0,0.0,-1.1569,0.0,0.0,0.0,0.0,0.0,0.0,0.0,0.0,0.0,0.0,0.0,0.0,0.0,0.0,0.0,0.0,0.0,0.0,0.0,0.0,0.0,0.0,0.0,0.0,0.0,0.0,0.0,0.0,0.0,0.0,0.0,0.0,0.0,0.0,0.0,0.0,0.0,0.0,0.0,0.0,0.0,0.0,0.0,0.0,0.0,0.0,0.0,0.0,0.0,0.0,0.0,0.0,0.0,0.0,0.0,0.0,0.0,0.0,0.0,0.0,0.0,0.0,0.0,0.0,0.0,0.0,0.0,0.0,0.0,0.0,0.0,0.0,0.0,0.0,0.0,0.0,0.0,0.0,0.0,0.0,0.0,0.0,0.0,0.0,0.0,0.0,0.0,0.0,0.0,0.0,0.0,0.0,0.0,0.0,0.0,0.0,0.0,0.0,0.0,0.0,0.0,0.0,0.0,0.0,0.0,0.0,0.0,0.0,0.0,0.0,-1.2384,-1.2167,-1.2159,-1.2182,-1.2141,0.0,0.0,0.0,0.0,0.0,0.0,0.0,0.0,0.0,0.0,0.0,0.0,0.0,0.0,0.0,0.0,0.0,0.0,0.0,0.0,0.0,0.0,0.0,0.0,0.0,0.0,0.0,0.0,0.0,0.0,0.0,0.0,0.0,0.0,0.0,0.0,0.0,0.0,0.0,0.0,0.0,0.0,0.0,0.0,0.0,0.0,0.0,0.0,0.0,0.0,0.0,0.0,0.0,0.0,0.0,0.0,0.0,0.0,0.0,0.0,0.0,0.0,0.0,0.0,0.0,0.0,0.0,0.0,0.0,0.0,0.0,0.0,0.0,0.0,0.0,0.0,0.0,0.0,0.0,0.0,0.0,0.0,0.0,0.0,0.0,0.0,0.0,0.0,0.0,0.0,0.0,0.0,0.0,0.0,0.0,0.0,0.0,0.0,0.0,0.0,0.0,0.0,0.0,0.0,0.0,0.0,0.0,0.0,0.0,0.0,0.0,0.0,-1.279,-1.2736,-1.2632,0.0,0.0,0.0,0.0,0.0,0.0,0.0,0.0,0.0,0.0,0.0,0.0,0.0,0.0,0.0,0.0,0.0,0.0,0.0,0.0,0.0,0.0,0.0,0.0,0.0,0.0,0.0,0.0,0.0,0.0,0.0,0.0,0.0,0.0,0.0,0.0,0.0,0.0,0.0,0.0,0.0,0.0,0.0,0.0,0.0,0.0,0.0,0.0,0.0,0.0,0.0,0.0,0.0,0.0,0.0,0.0,0.0,0.0,0.0,0.0,0.0,0.0,0.0,0.0,0.0,0.0,0.0,0.0,0.0,0.0,0.0,0.0,0.0,0.0,0.0,0.0,0.0,0.0,0.0,0.0,0.0,0.0,0.0,0.0,0.0,0.0,0.0,0.0,0.0,0.0,0.0,0.0,0.0,0.0,0.0,0.0,0.0,0.0,0.0,0.0,0.0,0.0,0.0,0.0,0.0,0.0,0.0,0.0,0.0,0.0,-1.2725,-1.2811,-1.2957,0.0,-1.2435,0.0,0.0,0.0,0.0,0.0,0.0,0.0,0.0,0.0,0.0,0.0,0.0,0.0,0.0,0.0,0.0,0.0,0.0,0.0,0.0,0.0,0.0,0.0,0.0,0.0,0.0,0.0,0.0,0.0,0.0,0.0,0.0,0.0,0.0,0.0,0.0,0.0,0.0,0.0,0.0,0.0,0.0,0.0,0.0,0.0,0.0,0.0,0.0,0.0,0.0,0.0,0.0,0.0,0.0,0.0,0.0,0.0,0.0,0.0,0.0,0.0,0.0,0.0,0.0,0.0,0.0,0.0,0.0,0.0,0.0,0.0,0.0,0.0,0.0,0.0,0.0,0.0,0.0,0.0,0.0,0.0,0.0,0.0,0.0,0.0,0.0,0.0,0.0,0.0,0.0,0.0,0.0,0.0,0.0,0.0,0.0,0.0,0.0,0.0,0.0,0.0,0.0,0.0,0.0,0.0,0.0,0.0,0.0,0.0,0.0,-1.306,-1.3501,-1.3423,-1.2795,0.0,0.0,0.0,0.0,0.0,0.0,0.0,0.0,0.0,0.0,0.0,0.0,0.0,0.0,0.0,0.0,0.0,0.0,0.0,0.0,0.0,0.0,0.0,0.0,0.0,0.0,0.0,0.0,0.0,0.0,0.0,0.0,0.0,0.0,0.0,0.0,0.0,0.0,0.0,0.0,0.0,0.0,0.0,0.0,0.0,0.0,0.0,0.0,0.0,0.0,0.0,0.0,0.0,0.0,0.0,0.0,0.0,0.0,0.0,0.0,0.0,0.0,0.0,0.0,0.0,0.0,0.0,0.0,0.0,0.0,0.0,0.0,0.0,0.0,0.0,0.0,0.0,0.0,0.0,0.0,0.0,0.0,0.0,0.0,0.0,0.0,0.0,0.0,0.0,0.0,0.0,0.0,0.0,0.0,0.0,0.0,0.0,0.0,0.0,0.0,0.0,0.0,0.0,0.0,0.0,0.0,0.0,0.0,0.0,0.0,-1.3601,-1.3449,-1.3921,-1.3446,-1.2596,-1.1472,0.0,0.0,0.0,0.0,0.0,0.0,0.0,0.0,0.0,0.0,0.0,0.0,0.0,0.0,0.0,0.0,0.0,0.0,0.0,0.0,0.0,0.0,0.0,0.0,0.0,0.0,0.0,0.0,0.0,0.0,0.0,0.0,0.0,0.0,0.0,0.0,0.0,0.0,0.0,0.0,0.0,0.0,0.0,0.0,0.0,0.0,0.0,0.0,0.0,0.0,0.0,0.0,0.0,0.0,0.0,0.0,0.0,0.0,0.0,0.0,0.0,0.0,0.0,0.0,0.0,0.0,0.0,0.0,0.0,0.0,0.0,0.0,0.0,0.0,0.0,0.0,0.0,0.0,0.0,0.0,0.0,0.0,0.0,0.0,0.0,0.0,0.0,0.0,0.0,0.0,0.0,0.0,0.0,0.0,0.0,0.0,0.0,0.0,0.0,0.0,0.0,0.0,0.0,0.0,0.0,0.0,0.0,0.0,-1.5355,-1.4308,-1.3821,-1.3918,-1.2672,-1.2126,0.0,0.0,0.0,0.0,0.0,0.0,0.0,0.0,0.0,0.0,0.0,0.0,0.0,0.0,0.0,0.0,0.0,0.0,0.0,0.0,0.0,0.0,0.0,0.0,0.0,0.0,0.0,0.0,0.0,0.0,0.0,0.0,0.0,0.0,0.0,0.0,0.0,0.0,0.0,0.0,0.0,0.0,0.0,0.0,0.0,0.0,0.0,0.0,0.0,0.0,0.0,0.0,0.0,0.0,0.0,0.0,0.0,0.0,0.0,0.0,0.0,0.0,0.0,0.0,0.0,0.0,0.0,0.0,0.0,0.0,0.0,0.0,0.0,0.0,0.0,0.0,0.0,0.0,0.0,0.0,0.0,0.0,0.0,0.0,0.0,0.0,0.0,0.0,0.0,0.0,0.0,0.0,0.0,0.0,0.0,0.0,0.0,0.0,0.0,0.0,0.0,0.0,0.0,0.0,0.0,0.0,0.0,0.0,0.0,-1.3792,-1.3355,-1.2958,-1.2598,-1.252,-1.2307,0.0,0.0,0.0,0.0,0.0,0.0,0.0,0.0,0.0,0.0,0.0,0.0,0.0,0.0,0.0,0.0,0.0,0.0,0.0,0.0,0.0,0.0,0.0,0.0,0.0,0.0,0.0,0.0,0.0,0.0,0.0,0.0,0.0,0.0,0.0,0.0,0.0,0.0,0.0,0.0,0.0,0.0,0.0,0.0,0.0,0.0,0.0,0.0,0.0,0.0,0.0,0.0,0.0,0.0,0.0,0.0,0.0,0.0,0.0,0.0,0.0,0.0,0.0,0.0,0.0,0.0,0.0,0.0,0.0,0.0,0.0,0.0,0.0,0.0,0.0,0.0,0.0,0.0,0.0,0.0,0.0,0.0,0.0,0.0,0.0,0.0,0.0,0.0,0.0,0.0,0.0,0.0,0.0,0.0,0.0,0.0,0.0,0.0,0.0,0.0,0.0,0.0,0.0,0.0,0.0,0.0,0.0,0.0,0.0,-1.3309,0.0,-1.2937,-1.2398,-1.2602,-1.2405,0.0,0.0,0.0,0.0,0.0,0.0,0.0,0.0,0.0,0.0,0.0,0.0,0.0,0.0,0.0,0.0,0.0,0.0,0.0,0.0,0.0,0.0,0.0,0.0,0.0,0.0,0.0,0.0,0.0,0.0,0.0,0.0,0.0,0.0,0.0,0.0,0.0,0.0,0.0,0.0,0.0,0.0,0.0,0.0,0.0,0.0,0.0,0.0,0.0,0.0,0.0,0.0,0.0,0.0,0.0,0.0,0.0,0.0,0.0,0.0,0.0,0.0,0.0,0.0,0.0,0.0,0.0,0.0,0.0,0.0,0.0,0.0,0.0,0.0,0.0,0.0,0.0,0.0,0.0,0.0,0.0,0.0,0.0,0.0,0.0,0.0,0.0,0.0,0.0,0.0,0.0,0.0,0.0,0.0,0.0,0.0,0.0,0.0,0.0,0.0,0.0,0.0,0.0,0.0,0.0,0.0,0.0,0.0,-1.4063,-1.4223,-1.4127,-1.3802,-1.3502,-1.288,-1.2307,0.0,0.0,0.0,0.0,0.0,0.0,0.0,0.0,0.0,0.0,0.0,0.0,0.0,0.0,0.0,0.0,0.0,0.0,0.0,0.0,0.0,0.0,0.0,0.0,0.0,0.0,0.0,0.0,0.0,0.0,0.0,0.0,0.0,0.0,0.0,0.0,0.0,0.0,0.0,0.0,0.0,0.0,0.0,0.0,0.0,0.0,0.0,0.0,0.0,0.0,0.0,0.0,0.0,0.0,0.0,0.0,0.0,0.0,0.0,0.0,0.0,0.0,0.0,0.0,0.0,0.0,0.0,0.0,0.0,0.0,0.0,0.0,0.0,0.0,0.0,0.0,0.0,0.0,0.0,0.0,0.0,0.0,0.0,0.0,0.0,0.0,0.0,0.0,0.0,0.0,0.0,0.0,0.0,0.0,0.0,0.0,0.0,0.0,0.0,0.0,0.0,0.0,0.0,0.0,0.0,0.0,0.0,0.0,0.0,-1.3267,-1.3327,-1.3519,-1.3853,-1.2907,-1.2589,0.0,0.0,0.0,0.0,0.0,0.0,0.0,0.0,0.0,0.0,0.0,0.0,0.0,0.0,0.0,0.0,0.0,0.0,0.0,0.0,0.0,0.0,0.0,0.0,0.0,0.0,0.0,0.0,0.0,0.0,0.0,0.0,0.0,0.0,0.0,0.0,0.0,0.0,0.0,0.0,0.0,0.0,0.0,0.0,0.0,0.0,0.0,0.0,0.0,0.0,0.0,0.0,0.0,0.0,0.0,0.0,0.0,0.0,0.0,0.0,0.0,0.0,0.0,0.0,0.0,0.0,0.0,0.0,0.0,0.0,0.0,0.0,0.0,0.0,0.0,0.0,0.0,0.0,0.0,0.0,0.0,0.0,0.0,0.0,0.0,0.0,0.0,0.0,0.0,0.0,0.0,0.0,0.0,0.0,0.0,0.0,0.0,0.0,0.0,0.0,0.0,0.0,0.0,0.0,0.0,0.0,0.0,0.0,0.0,-1.3892,-1.4223,-1.4538,-1.4726,-1.3848,-1.338,-1.3327,0.0,0.0,0.0,0.0,0.0,0.0,0.0,0.0,0.0,0.0,0.0,0.0,0.0,0.0,0.0,0.0,0.0,0.0,0.0,0.0,0.0,0.0,0.0,0.0,0.0,0.0,0.0,0.0,0.0,0.0,0.0,0.0,0.0,0.0,0.0,0.0,0.0,0.0,0.0,0.0,0.0,0.0,0.0,0.0,0.0,0.0,0.0,0.0,0.0,0.0,0.0,0.0,0.0,0.0,0.0,0.0,0.0,0.0,0.0,0.0,0.0,0.0,0.0,0.0,0.0,0.0,0.0,0.0,0.0,0.0,0.0,0.0,0.0,0.0,0.0,0.0,0.0,0.0,0.0,0.0,0.0,0.0,0.0,0.0,0.0,0.0,0.0,0.0,0.0,0.0,0.0,0.0,0.0,0.0,0.0,0.0,0.0,0.0,0.0,0.0,0.0,0.0,0.0,0.0,0.0,0.0,0.0,0.0,-1.5703,-1.6624,-1.6781,-1.5985,-1.5575,-1.4504,0.0,0.0,0.0,0.0,0.0,0.0,0.0,0.0,0.0,0.0,0.0,0.0,0.0,0.0,0.0,0.0,0.0,0.0,0.0,0.0,0.0,0.0,0.0,0.0,0.0,0.0,0.0,0.0,0.0,0.0,0.0,0.0,0.0,0.0,0.0,0.0,0.0,0.0,0.0,0.0,0.0,0.0,0.0,0.0,0.0,0.0,0.0,0.0,0.0,0.0,0.0,0.0,0.0,0.0,0.0,0.0,0.0,0.0,0.0,0.0,0.0,0.0,0.0,0.0,0.0,0.0,0.0,0.0,0.0,0.0,0.0,0.0,0.0,0.0,0.0,0.0,0.0,0.0,0.0,0.0,0.0,0.0,0.0,0.0,0.0,0.0,0.0,0.0,0.0,0.0,0.0,0.0,0.0,0.0,0.0,0.0,0.0,0.0,0.0,0.0,0.0,0.0,0.0,0.0,0.0,0.0,0.0,0.0,0.0,-1.7372,-1.9213,-1.9478,-1.7886,-1.6148,-1.505,0.0,0.0,0.0,0.0,0.0,0.0,0.0,0.0,0.0,0.0,0.0,0.0,0.0,0.0,0.0,0.0,0.0,0.0,0.0,0.0,0.0,0.0,0.0,0.0,0.0,0.0,0.0,0.0,0.0,0.0,0.0,0.0,0.0,0.0,0.0,0.0,0.0,0.0,0.0,0.0,0.0,0.0,0.0,0.0,0.0,0.0,0.0,0.0,0.0,0.0,0.0,0.0,0.0,0.0,0.0,0.0,0.0,0.0,0.0,0.0,0.0,0.0,0.0,0.0,0.0,0.0,0.0,0.0,0.0,0.0,0.0,0.0,0.0,0.0,0.0,0.0,0.0,0.0,0.0,0.0,0.0,0.0,0.0,0.0,0.0,0.0,0.0,0.0,0.0,0.0,0.0,0.0,0.0,0.0,0.0,0.0,0.0,0.0,0.0,0.0,0.0,0.0,0.0,0.0,0.0,0.0,0.0,0.0,-1.761,-1.8733,-2.0805,-2.1362,-2.0275,-1.8327,-1.6784,0.0,0.0,0.0,0.0,0.0,0.0,0.0,0.0,0.0,0.0,0.0,0.0,0.0,0.0,0.0,0.0,0.0,0.0,0.0,0.0,0.0,0.0,0.0,0.0,0.0,0.0,0.0,0.0,0.0,0.0,0.0,0.0,0.0,0.0,0.0,0.0,0.0,0.0,0.0,0.0,0.0,0.0,0.0,0.0,0.0,0.0,0.0,0.0,0.0,0.0,0.0,0.0,0.0,0.0,0.0,0.0,0.0,0.0,0.0,0.0,0.0,0.0,0.0,0.0,0.0,0.0,0.0,0.0,0.0,0.0,0.0,0.0,0.0,0.0,0.0,0.0,0.0,0.0,0.0,0.0,0.0,0.0,0.0,0.0,0.0,0.0,0.0,0.0,0.0,0.0,0.0,0.0,0.0,0.0,0.0,0.0,0.0,0.0,0.0,0.0,0.0,0.0,0.0,0.0,0.0,0.0,0.0,0.0,-1.9021,-1.9778,-2.1636,-2.2705,-2.2653,-2.1003,-1.8904,0.0,0.0,0.0,0.0,0.0,0.0,0.0,0.0,0.0,0.0,0.0,0.0,0.0,0.0,0.0,0.0,0.0,0.0,0.0,0.0,0.0,0.0,0.0,0.0,0.0,0.0,0.0,0.0,0.0,0.0,0.0,0.0,0.0,0.0,0.0,0.0,0.0,0.0,0.0,0.0,0.0,0.0,0.0,0.0,0.0,0.0,0.0,0.0,0.0,0.0,0.0,0.0,0.0,0.0,0.0,0.0,0.0,0.0,0.0,0.0,0.0,0.0,0.0,0.0,0.0,0.0,0.0,0.0,0.0,0.0,0.0,0.0,0.0,0.0,0.0,0.0,0.0,0.0,0.0,0.0,0.0,0.0,0.0,0.0,0.0,0.0,0.0,0.0,0.0,0.0,0.0,0.0,0.0,0.0,0.0,0.0,0.0,0.0,0.0,0.0,0.0,0.0,0.0,0.0,0.0,0.0,0.0,0.0,-1.8749,-2.0146,-2.2021,-2.3092,-2.3279,-2.0438,-1.8355,0.0,0.0,0.0,0.0,0.0,0.0,0.0,0.0,0.0,0.0,0.0,0.0,0.0,0.0,0.0,0.0,0.0,0.0,0.0,0.0,0.0,0.0,0.0,0.0,0.0,0.0,0.0,0.0,0.0,0.0,0.0,0.0,0.0,0.0,0.0,0.0,0.0,0.0,0.0,0.0,0.0,0.0,0.0,0.0,0.0,0.0,0.0,0.0,-1.5287,0.0,0.0,0.0,0.0,0.0,0.0,0.0,0.0,0.0,0.0,0.0,0.0,0.0,0.0,0.0,0.0,0.0,0.0,0.0,0.0,0.0,0.0,0.0,0.0,0.0,0.0,0.0,0.0,0.0,0.0,0.0,0.0,0.0,0.0,0.0,0.0,0.0,0.0,0.0,0.0,0.0,0.0,0.0,0.0,0.0,0.0,0.0,0.0,0.0,0.0,0.0,0.0,0.0,0.0,0.0,0.0,0.0,0.0,0.0,-1.9592,-2.1037,-2.2244,-2.3031,-2.3417,-2.0779,-1.9119,0.0,0.0,0.0,0.0,0.0,0.0,0.0,0.0,0.0,0.0,0.0,0.0,0.0,0.0,0.0,0.0,0.0,0.0,0.0,0.0,0.0,0.0,0.0,0.0,0.0,0.0,0.0,0.0,0.0,0.0,0.0,0.0,0.0,0.0,0.0,0.0,0.0,0.0,0.0,0.0,0.0,0.0,0.0,0.0,0.0,0.0,0.0,0.0,0.0,0.0,0.0,0.0,0.0,0.0,0.0,0.0,0.0,0.0,0.0,0.0,0.0,0.0,0.0,0.0,0.0,0.0,0.0,0.0,0.0,0.0,0.0,0.0,0.0,0.0,0.0,0.0,0.0,0.0,0.0,0.0,0.0,0.0,0.0,0.0,0.0,0.0,0.0,0.0,0.0,0.0,0.0,0.0,0.0,0.0,0.0,0.0,0.0,0.0,0.0,0.0,0.0,0.0,0.0,0.0,0.0,0.0,0.0,-1.9301,-2.0524,-2.1991,-2.2455,-2.2909,-2.339,-2.145,-2.0219,-1.996,0.0,0.0,0.0,0.0,0.0,0.0,0.0,0.0,0.0,0.0,0.0,0.0,0.0,0.0,0.0,0.0,0.0,0.0,0.0,0.0,0.0,0.0,0.0,0.0,0.0,0.0,0.0,0.0,0.0,0.0,0.0,0.0,0.0,0.0,0.0,0.0,0.0,0.0,-1.8718,-1.9287,0.0,0.0,0.0,0.0,0.0,0.0,0.0,0.0,-1.8212,0.0,0.0,0.0,0.0,0.0,0.0,0.0,0.0,0.0,0.0,0.0,0.0,0.0,0.0,0.0,0.0,0.0,0.0,0.0,0.0,0.0,0.0,0.0,0.0,0.0,0.0,0.0,0.0,0.0,0.0,0.0,0.0,0.0,0.0,0.0,0.0,0.0,0.0,0.0,0.0,0.0,0.0,0.0,0.0,0.0,0.0,0.0,0.0,0.0,0.0,0.0,0.0,0.0,0.0,0.0,0.0,-1.8828,-1.9082,-2.0075,-2.1919,-2.2655,-2.3081,-2.3391,-2.1769,-2.0801,-2.0479,0.0,0.0,0.0,0.0,0.0,0.0,0.0,0.0,0.0,0.0,0.0,0.0,0.0,0.0,0.0,0.0,0.0,0.0,0.0,0.0,0.0,0.0,0.0,0.0,0.0,0.0,0.0,0.0,0.0,0.0,0.0,0.0,0.0,0.0,0.0,0.0,0.0,0.0,0.0,-2.0345,-2.0287,0.0,0.0,0.0,0.0,0.0,0.0,0.0,0.0,-1.9912,0.0,0.0,0.0,0.0,0.0,0.0,0.0,0.0,0.0,0.0,0.0,0.0,0.0,0.0,0.0,0.0,0.0,0.0,0.0,0.0,0.0,0.0,0.0,0.0,0.0,0.0,0.0,0.0,0.0,0.0,0.0,0.0,0.0,0.0,0.0,0.0,0.0,0.0,0.0,0.0,0.0,0.0,0.0,0.0,0.0,0.0,0.0,0.0,0.0,0.0,0.0,0.0,0.0,0.0,0.0,-1.8852,-1.9012,-2.0381,-2.291,-2.3304,-2.3975,-2.5111,-2.2917,-2.1621,0.0,0.0,0.0,0.0,0.0,0.0,0.0,0.0,0.0,0.0,0.0,0.0,0.0,0.0,0.0,0.0,0.0,0.0,0.0,0.0,0.0,0.0,0.0,0.0,0.0,0.0,0.0,0.0,0.0,0.0,0.0,0.0,0.0,0.0,0.0,0.0,0.0,0.0,0.0,0.0,-2.0855,-2.0937,-2.1455,0.0,0.0,0.0,0.0,0.0,0.0,-2.0735,-2.0812,0.0,0.0,0.0,0.0,0.0,0.0,0.0,0.0,0.0,0.0,0.0,0.0,0.0,0.0,0.0,0.0,0.0,0.0,0.0,0.0,0.0,0.0,0.0,0.0,0.0,0.0,0.0,0.0,0.0,0.0,0.0,0.0,0.0,0.0,0.0,0.0,0.0,0.0,0.0,0.0,0.0,0.0,0.0,0.0,0.0,0.0,0.0,0.0,0.0,0.0,0.0,0.0,0.0,0.0,0.0,-1.8958,-1.9225,-2.0753,-2.3674,-2.406,-2.4917,-2.6357,-2.3831,-2.2227,0.0,0.0,0.0,0.0,0.0,0.0,0.0,0.0,0.0,0.0,0.0,0.0,0.0,0.0,0.0,0.0,0.0,0.0,0.0,0.0,0.0,0.0,0.0,0.0,0.0,0.0,0.0,0.0,0.0,0.0,0.0,0.0,0.0,0.0,0.0,0.0,0.0,0.0,0.0,0.0,0.0,-2.1779,-2.218,-2.1577,0.0,0.0,0.0,0.0,-2.1801,-2.1679,0.0,0.0,0.0,0.0,0.0,0.0,0.0,0.0,0.0,0.0,0.0,0.0,0.0,0.0,0.0,0.0,0.0,0.0,0.0,0.0,0.0,0.0,0.0,0.0,0.0,0.0,0.0,0.0,0.0,0.0,0.0,0.0,0.0,0.0,0.0,0.0,0.0,0.0,0.0,0.0,0.0,0.0,0.0,0.0,0.0,0.0,0.0,0.0,0.0,0.0,0.0,0.0,0.0,0.0,0.0,0.0,-1.9151,-1.9582,-2.0929,-2.34,-2.4609,-2.5322,-2.5493,-2.3494,-2.2108,0.0,0.0,0.0,0.0,0.0,0.0,0.0,0.0,0.0,0.0,0.0,0.0,0.0,0.0,0.0,0.0,0.0,0.0,0.0,0.0,0.0,0.0,0.0,0.0,0.0,0.0,0.0,0.0,0.0,0.0,0.0,0.0,0.0,0.0,0.0,0.0,0.0,0.0,0.0,0.0,0.0,-2.303,-2.1966,-2.2282,-2.2277,0.0,0.0,-2.2675,-2.2967,-2.322,0.0,0.0,0.0,0.0,0.0,0.0,0.0,0.0,0.0,0.0,0.0,0.0,0.0,0.0,0.0,0.0,0.0,0.0,0.0,0.0,0.0,0.0,0.0,0.0,0.0,0.0,0.0,0.0,0.0,0.0,0.0,0.0,0.0,0.0,0.0,0.0,0.0,0.0,0.0,0.0,0.0,0.0,0.0,0.0,0.0,0.0,0.0,0.0,0.0,0.0,0.0,0.0,0.0,0.0,0.0,-1.712,-1.8919,-1.929,-2.1046,-2.4125,-2.4718,-2.5556,-2.6835,-2.3861,-2.2136,0.0,0.0,0.0,0.0,0.0,0.0,0.0,0.0,0.0,0.0,0.0,0.0,0.0,0.0,0.0,0.0,0.0,0.0,0.0,0.0,0.0,0.0,0.0,0.0,0.0,0.0,0.0,0.0,0.0,0.0,0.0,0.0,0.0,0.0,0.0,0.0,0.0,0.0,0.0,0.0,0.0,0.0,-2.2886,-2.3003,0.0,0.0,0.0,-2.3159,-2.3075,0.0,0.0,0.0,0.0,0.0,0.0,0.0,0.0,0.0,0.0,0.0,0.0,0.0,0.0,0.0,0.0,0.0,0.0,0.0,0.0,0.0,0.0,0.0,0.0,0.0,0.0,0.0,0.0,0.0,0.0,0.0,0.0,0.0,0.0,0.0,0.0,0.0,0.0,0.0,0.0,0.0,0.0,0.0,0.0,0.0,0.0,0.0,0.0,0.0,0.0,0.0,0.0,0.0,0.0,0.0,0.0,0.0,-1.8765,-1.9199,-2.1106,-2.4448,-2.4859,-2.5754,-2.7334,-2.4221,0.0,0.0,0.0,0.0,0.0,0.0,0.0,0.0,0.0,0.0,0.0,0.0,0.0,0.0,0.0,0.0,0.0,0.0,0.0,0.0,0.0,0.0,0.0,0.0,0.0,0.0,0.0,-1.7634,0.0,0.0,0.0,0.0,0.0,0.0,0.0,0.0,0.0,0.0,0.0,0.0,0.0,0.0,-2.342,-2.3798,-2.3912,-2.3937,0.0,0.0,-2.4028,-2.3919,-2.4464,-2.4618,0.0,0.0,0.0,0.0,0.0,0.0,0.0,0.0,0.0,0.0,0.0,0.0,0.0,0.0,0.0,0.0,0.0,0.0,0.0,0.0,0.0,0.0,0.0,0.0,0.0,0.0,0.0,0.0,0.0,0.0,0.0,0.0,0.0,0.0,0.0,0.0,0.0,0.0,0.0,0.0,0.0,0.0,0.0,0.0,0.0,0.0,0.0,0.0,0.0,0.0,0.0,0.0,0.0,0.0,0.0,-1.9019,-1.9756,-2.1335,-2.382,-2.5114,-2.5791,-2.5776,-2.41,-2.265,0.0,0.0,0.0,0.0,0.0,0.0,0.0,0.0,0.0,0.0,0.0,0.0,0.0,0.0,0.0,0.0,0.0,0.0,0.0,0.0,0.0,0.0,0.0,0.0,0.0,0.0,0.0,0.0,0.0,0.0,0.0,0.0,0.0,0.0,0.0,0.0,0.0,0.0,0.0,0.0,0.0,-2.5557,-2.4493,-2.5325,-2.6093,0.0,0.0,-2.6018,-2.6531,-2.6956,-2.6961,-2.5918,0.0,0.0,0.0,0.0,0.0,0.0,0.0,0.0,0.0,0.0,0.0,0.0,0.0,0.0,0.0,0.0,0.0,0.0,0.0,0.0,0.0,0.0,0.0,0.0,0.0,0.0,0.0,0.0,0.0,0.0,0.0,0.0,0.0,0.0,0.0,0.0,0.0,0.0,0.0,0.0,0.0,0.0,0.0,0.0,0.0,0.0,0.0,0.0,0.0,0.0,0.0,0.0,0.0,-1.7368,-1.9431,-2.0002,-2.1507,-2.408,-2.4574,-2.4967,-2.5222,-2.3313,-2.189,0.0,0.0,0.0,0.0,0.0,0.0,0.0,0.0,0.0,0.0,0.0,0.0,0.0,0.0,0.0,0.0,0.0,0.0,0.0,0.0,0.0,0.0,0.0,0.0,0.0,0.0,0.0,0.0,-2.02,-2.0834,-2.1159,0.0,0.0,0.0,0.0,0.0,0.0,0.0,0.0,0.0,0.0,-2.5638,-2.574,-2.6401,0.0,0.0,-2.6678,-2.6675,-2.6522,-2.6791,-2.677,-2.5791,-2.5758,0.0,0.0,0.0,0.0,0.0,0.0,0.0,0.0,0.0,0.0,0.0,0.0,0.0,0.0,0.0,0.0,0.0,0.0,0.0,0.0,0.0,0.0,0.0,0.0,0.0,0.0,0.0,0.0,0.0,0.0,0.0,0.0,0.0,0.0,0.0,0.0,0.0,0.0,0.0,0.0,0.0,0.0,0.0,0.0,0.0,0.0,0.0,0.0,0.0,0.0,0.0,0.0,-1.7613,-1.9704,-2.0183,-2.1631,-2.4138,-2.4226,-2.4361,-2.4636,-2.296,-2.1627,0.0,0.0,0.0,0.0,0.0,0.0,0.0,0.0,0.0,0.0,0.0,0.0,0.0,0.0,0.0,0.0,0.0,0.0,0.0,0.0,0.0,0.0,0.0,0.0,0.0,0.0,0.0,0.0,-2.1066,-2.1742,-2.1887,0.0,0.0,0.0,0.0,0.0,0.0,0.0,0.0,0.0,0.0,-2.6334,-2.6787,-2.709,-2.7243,-2.7045,-2.7087,-2.704,-2.6837,-2.7054,-2.6958,-2.6343,0.0,0.0,0.0,0.0,0.0,0.0,0.0,0.0,0.0,0.0,0.0,0.0,0.0,0.0,0.0,0.0,0.0,0.0,0.0,0.0,0.0,0.0,0.0,0.0,0.0,0.0,0.0,0.0,0.0,0.0,-1.542,0.0,0.0,0.0,0.0,0.0,0.0,0.0,0.0,0.0,0.0,0.0,0.0,0.0,0.0,0.0,0.0,0.0,0.0,0.0,0.0,0.0,0.0,-1.7889,-1.9683,-2.0355,-2.1655,-2.3537,-2.397,-2.4177,-2.4166,-2.319,-2.2113,-2.0892,0.0,0.0,0.0,0.0,0.0,0.0,0.0,0.0,0.0,0.0,0.0,0.0,0.0,0.0,0.0,0.0,0.0,0.0,0.0,0.0,0.0,0.0,0.0,0.0,0.0,0.0,-2.004,-2.13,-2.2272,0.0,0.0,0.0,0.0,0.0,0.0,0.0,0.0,0.0,0.0,-2.7074,-2.8044,-2.7382,-2.7407,-2.7633,-2.7902,-2.7413,-2.7315,-2.7997,-2.8139,-2.8166,0.0,0.0,0.0,0.0,0.0,0.0,0.0,0.0,0.0,0.0,0.0,0.0,0.0,0.0,0.0,0.0,0.0,0.0,0.0,0.0,0.0,0.0,0.0,0.0,0.0,0.0,0.0,-1.6351,-1.6463,0.0,0.0,0.0,0.0,0.0,0.0,0.0,0.0,0.0,0.0,0.0,-1.8609,-1.862,0.0,0.0,0.0,0.0,0.0,0.0,0.0,0.0,0.0,0.0,0.0,0.0,-1.7959,-2.0073,-2.0258,-2.1314,-2.339,-2.328,-2.319,-2.319,-2.2536,-2.1548,-2.0167,0.0,0.0,0.0,0.0,0.0,0.0,0.0,0.0,0.0,0.0,0.0,0.0,0.0,0.0,0.0,0.0,0.0,0.0,0.0,0.0,0.0,0.0,0.0,0.0,0.0,-2.0416,0.0,0.0,0.0,0.0,0.0,0.0,0.0,0.0,0.0,0.0,0.0,-2.57,-2.626,-2.6926,-2.744,-2.7748,-2.7813,-2.8022,0.0,0.0,0.0,0.0,0.0,0.0,0.0,0.0,0.0,0.0,0.0,0.0,0.0,0.0,-2.9971,-2.8483,-2.8057,-2.8156,-2.8943,0.0,0.0,0.0,0.0,0.0,0.0,0.0,0.0,0.0,0.0,0.0,0.0,0.0,0.0,-1.7412,0.0,-1.7476,0.0,0.0,0.0,0.0,0.0,0.0,0.0,0.0,-1.8486,-1.9003,-1.9541,-1.9541,-1.9458,0.0,-1.8682,-1.7854,0.0,0.0,0.0,0.0,0.0,0.0,0.0,0.0,-1.8294,-2.0109,-2.0369,-2.1297,-2.3075,-2.2846,-2.2673,-2.2662,-2.1835,-2.0768,-1.9459,-1.8965,-1.8527,0.0,0.0,0.0,0.0,0.0,0.0,0.0,0.0,0.0,0.0,0.0,0.0,0.0,0.0,0.0,0.0,0.0,0.0,0.0,0.0,0.0,0.0,0.0,-2.0426,0.0,0.0,0.0,0.0,0.0,0.0,0.0,0.0,0.0,-2.4924,-2.5697,-2.6441,-2.7074,-2.7326,-2.7525,-2.7626,0.0,0.0,0.0,0.0,0.0,0.0,0.0,-2.7501,-2.7476,-2.793,-2.8674,-2.993,-3.082,-3.1502,-3.1742,0.0,0.0,-3.0188,-2.9669,-2.9729,-3.0353,-3.0006,-2.9946,-3.1016,-3.124,-3.1493,0.0,0.0,0.0,0.0,0.0,0.0,0.0,0.0,-1.8163,-1.8292,0.0,-1.8378,0.0,0.0,0.0,0.0,0.0,-1.794,0.0,0.0,-2.042,-2.0845,-2.0452,-2.0431,-2.0213,-1.9817,-1.8899,-1.8237,-1.7761,-1.7265,0.0,0.0,0.0,0.0,0.0,0.0,-1.8674,-1.9738,-2.0671,-2.1617,-2.2616,-2.2604,-2.2581,-2.2513,-2.1158,-1.993,-1.8954,-1.8614,-1.8445,-1.8367,-1.7891,0.0,0.0,0.0,0.0,0.0,0.0,0.0,0.0,0.0,0.0,0.0,0.0,0.0,0.0,0.0,0.0,0.0,0.0,0.0,0.0,-1.9875,0.0,0.0,0.0,0.0,0.0,0.0,0.0,0.0,0.0,0.0,-2.5131,-2.6076,-2.7045,-2.765,0.0,0.0,0.0,0.0,-2.7669,-2.6734,-2.6543,-2.6679,-2.6857,-2.7267,-2.7734,-2.831,0.0,0.0,-3.1966,-3.1799,-3.1694,-3.2206,-3.2772,-3.2935,-3.2352,-3.173,-3.1328,-3.1373,-3.1389,-3.1605,-3.2227,-3.2486,-3.2802,-1.3388,0.0,0.0,0.0,0.0,-1.5522,-1.6921,-1.8701,-1.8978,-1.9273,-1.9514,-1.931,0.0,0.0,0.0,0.0,0.0,0.0,-1.8859,-1.9918,-2.039,-2.0731,-2.0917,-2.0907,-2.0679,-2.0224,-1.9965,-1.9448,-1.8702,-1.8557,-1.7833,-1.6509,0.0,0.0,0.0,0.0,-1.8733,-2.0014,-2.0426,-2.1123,-2.2122,-2.1433,-2.0894,-2.0561,-2.0136,-1.9585,-1.8919,-1.8983,-1.8838,-1.8433,-1.809,0.0,0.0,0.0,0.0,0.0,0.0,0.0,0.0,0.0,0.0,0.0,0.0,0.0,0.0,0.0,0.0,0.0,0.0,0.0,-1.9656,-2.0067,-2.055,0.0,0.0,0.0,0.0,0.0,0.0,0.0,0.0,0.0,-2.6766,-2.6805,-2.6877,0.0,0.0,-2.6791,-2.668,-2.714,-2.7567,-2.7717,-2.7722,0.0,-2.8226,-2.8409,-2.8656,-2.9148,-3.0678,-3.1981,-3.2355,-3.2912,-3.3403,-3.3518,-3.3696,-3.3744,-3.3599,-3.3421,-3.3372,-3.3627,-3.3771,-3.4068,-3.4614,-3.4771,-3.4934,-1.4318,-1.3462,-1.3915,-1.4553,-1.5463,-1.6536,-1.7962,-1.9551,-2.0083,-2.0272,-2.0175,-2.0134,-1.9165,-1.7516,-1.7072,0.0,0.0,0.0,-1.9284,-2.0319,-2.0731,-2.1124,-2.1373,-2.1197,-2.0969,-2.0679,-2.0141,-1.9603,-1.9131,-1.8713,-1.7988,-1.6953,0.0,0.0,-1.7437,-1.8185,-1.911,-2.0182,-2.0534,-2.1009,-2.1594,-2.0836,-2.0182,-1.9711,-1.9493,-1.9137,-1.8609,-1.8864,-1.8834,-1.8476,-1.7981,-1.7704,0.0,0.0,0.0,0.0,0.0,0.0,0.0,0.0,0.0,0.0,0.0,-1.8972,-1.8721,0.0,0.0,0.0,-1.9092,-1.942,-1.9747,-2.0207,0.0,0.0,0.0,0.0,0.0,0.0,0.0,-2.3755,-2.5307,-2.6597,-2.7043,-2.6963,-2.725,-2.8123,-2.7893,-2.7671,-2.7667,0.0,-2.87,-2.8887,-2.8792,-2.8822,-2.9268,-2.9274,-2.956,-3.0576,-3.1725,-3.2752,-3.3104,-3.3675,-3.4084,-3.4101,-3.4101,-3.4101,-3.4101,-3.4101,-3.4201,-3.4611,-3.474,-3.5027,-3.5694,-3.5783,-3.5915,-1.5313,-1.494,-1.4629,-1.5099,-1.6182,-1.7782,-1.9033,-1.9972,-2.1165,-2.1107,-2.039,-2.0844,-1.9918,-1.791,-1.765,0.0,-1.8373,-1.9254,-1.9959,-2.0514,-2.1362,-2.1704,-2.1631,-2.1197,-2.099,-2.0917,-1.9706,-1.9106,-1.91,-1.8288,-1.7854,-1.7792,-1.7823,-1.7891,-1.8097,-1.8916,-1.9687,-2.0216,-2.0831,-2.1123,-2.1043,-2.0549,-2.0067,-1.9574,-1.9091,-1.8609,-1.8118,-1.8398,-1.8548,-1.8531,-1.7701,-1.7242,-1.7267,0.0,0.0,0.0,0.0,0.0,0.0,0.0,0.0,0.0,0.0,0.0,0.0,0.0,0.0,0.0,-1.9396,0.0,-1.9874,-2.0386,0.0,0.0,0.0,-2.3095,-2.3844,-2.3984,-2.4301,-2.4976,0.0,0.0,-2.6669,-2.7055,-2.7994,-2.99,-3.0007,-2.9781,-2.9322,-2.9913,-3.0428,-2.9843,-2.962,-2.9561,-2.9818,-2.9834,-3.0373,-3.1966,-3.2647,-3.2961,-3.3593,-3.3841,-3.3906,-3.3969,-3.4002,-3.4037,-3.4071,-3.4023,-3.4137,-3.4492,-3.4688,-3.4961,-3.5677,-3.5871,-3.5958,-1.5965,-1.5643,-1.5657,-1.5864,-1.6268,-1.7242,-1.8558,-1.9894,-2.0226,-2.0738,-2.1381,-2.0855,-1.9699,-1.8348,-1.8946,-1.9266,-1.9479,-2.0308,-2.0782,-2.0959,-2.1176,-2.0917,-2.0255,-2.0131,-1.9903,-1.9572,-1.965,-1.9474,-1.9162,-1.922,-1.8996,-1.85,-1.8783,-1.8797,-1.8567,-1.8978,-1.9585,-2.0339,-2.078,-2.0666,-2.0067,-1.9528,-1.9011,-1.8473,-1.8336,-1.821,-1.8084,-1.8302,-1.8277,-1.7984,-1.7473,-1.705,-1.6787,-1.6049,0.0,0.0,0.0,0.0,0.0,0.0,0.0,0.0,0.0,-1.8973,-1.8216,0.0,-1.9391,0.0,-1.9135,-1.9685,-2.0809,-2.1147,0.0,0.0,-2.3576,-2.3797,-2.39,-2.4777,-2.5424,-2.5449,-2.6491,-2.7515,-2.8366,-2.855,-2.9103,-3.0618,-2.9367,-2.8276,-2.8263,-2.8879,-2.9367,-2.9353,-2.951,-2.9672,-2.9776,-3.0258,-3.0885,-3.17,-3.2028,-3.224,-3.2466,-3.2498,-3.2692,-3.3206,-3.3333,-3.3405,-3.3591,-3.3644,-3.3679,-3.3799,-3.4466,-3.5299,-3.6045,-3.6139,-3.6199,-1.621,-1.6301,-1.6238,-1.6247,-1.6437,-1.7204,-1.8175,-1.9195,-1.9511,-2.0082,-2.0775,-2.0298,-1.9706,-1.9054,-1.9737,-1.9944,-1.9841,-2.07,-2.0897,-2.0545,-2.0917,-2.0741,-2.0048,-1.9851,-1.9692,-1.9453,-1.9427,-1.9391,-1.9096,-1.9401,-1.9333,-1.9114,-1.9357,-1.9479,-1.9552,-1.9583,-1.9916,-2.0506,-2.0551,-2.0375,-2.001,-1.9287,-1.8702,-1.8383,-1.8144,-1.785,-1.7603,-1.7752,-1.7682,-1.7338,-1.6924,-1.661,-1.6467,-1.5911,-1.5659,0.0,0.0,0.0,0.0,0.0,0.0,0.0,0.0,0.0,0.0,0.0,-1.9228,-1.9414,-1.975,-2.0454,-2.164,-2.2115,-2.2891,-2.4094,-2.4119,-2.4165,-2.4381,-2.484,-2.5095,-2.5135,-2.5981,-2.6878,-2.7595,-2.7852,-2.8401,-2.9564,-2.8716,-2.834,-2.919,-2.9834,-3.0154,-3.0143,-3.0185,-3.0198,-3.0049,-3.0584,-3.1126,-3.1517,-3.1726,-3.1773,-3.156,-3.1526,-3.156,-3.1676,-3.1677,-3.1887,-3.2436,-3.2579,-3.2666,-3.3049,-3.3795,-3.4609,-3.5177,-3.5301,-3.5301,-1.6197,-1.6821,-1.6462,-1.6424,-1.6568,-1.7121,-1.7691,-1.8264,-1.8877,-1.9305,-1.9472,-1.9798,-1.9885,-1.9802,-2.0236,-2.0296,-1.9986,-2.069,-2.0596,-1.9913,-2.0596,-2.069,-2.0234,-1.9851,-1.9734,-1.9723,-1.9261,-1.9131,-1.9131,-1.9131,-1.9264,-1.955,-1.9605,-1.9922,-2.0506,-2.0302,-2.0377,-2.0658,-2.0387,-2.0239,-2.0339,-1.9355,-1.8783,-1.8657,-1.8113,-1.7549,-1.7036,-1.7074,-1.6917,-1.6627,-1.6263,-1.6138,-1.6221,-1.5773,-1.5593,0.0,-1.5799,0.0,0.0,0.0,0.0,0.0,0.0,0.0,0.0,-1.8902,-1.9216,-2.0089,-2.062,-2.1261,-2.2205,-2.2935,-2.3716,-2.4598,-2.4339,-2.4329,-2.4822,-2.4427,-2.4305,-2.4624,-2.5014,-2.5476,-2.6093,-2.6439,-2.6969,-2.7845,-2.8056,-2.8579,-3.0133,-3.0831,-3.1102,-3.1262,-3.0808,-3.0087,-2.9982,-3.0307,-3.0625,-3.0927,-3.0925,-3.0956,-3.0477,-3.0412,-3.0312,-2.9907,-2.9876,-3.0194,-3.1024,-3.121,-3.1391,-3.1849,-3.2423,-3.3048,-3.367,-3.4076,-3.4042,-1.6204,-1.6889,-1.6243,-1.6051,-1.6063,-1.589,-1.6566,-1.7861,-1.8336,-1.8783,-1.9288,-2.0305,-2.0242,-1.9633,-2.0554,-2.0938,-2.0845,-2.0638,-2.0462,-2.0296,-2.011,-1.9779,-1.9334,-1.9241,-1.9277,-1.9199,-1.9116,-1.9131,-1.9131,-1.9131,-1.9208,-1.9341,-1.9681,-1.9987,-2.0161,0.0,0.0,0.0,-2.0375,-2.0188,-2.0205,-1.912,-1.8474,-1.8452,-1.7609,0.0,-1.7014,-1.6672,-1.6332,-1.6049,-1.5971,0.0,0.0,0.0,0.0,0.0,0.0,0.0,0.0,0.0,0.0,0.0,-1.7824,-1.7885,-1.8544,-1.9358,-1.9953,-2.0027,-2.0514,-2.1205,-2.2197,-2.2417,-2.2981,-2.4086,-2.4123,-2.416,-2.4272,-2.4412,-2.4673,-2.5062,-2.5381,-2.5818,-2.639,-2.6499,-2.6663,-2.715,-2.7253,-2.7395,-2.787,-2.9291,-2.9948,-2.9459,-2.8876,-2.8385,-2.8236,-2.8404,-2.8603,-2.8446,-2.8446,-2.8446,-2.8408,-2.8369,-2.8591,-2.8854,-2.9214,-2.9411,-2.9909,-3.0176,-3.0248,-3.0108,-3.0211,-3.0659,-3.1972,-3.3197,-3.3904,-1.5776,0.0,-1.6328,-1.6199,0.0,-1.5738,-1.5989,-1.6566,-1.7057,-1.7641,-1.8457,-1.944,-1.984,-1.9875,-2.0471,-2.0772,-2.0752,-2.0524,-2.0182,-1.9768,-1.9758,-1.952,-1.9131,-1.9131,-1.9131,-1.9131,-1.9131,-1.9131,-1.9131,-1.9131,-1.9208,-1.9407,-1.9671,-1.9933,-2.0366,-2.0775,-2.0801,-2.0437,-2.0002,-1.9738,-1.9547,-1.868,-1.8227,-1.816,-1.7686,0.0,0.0,0.0,0.0,0.0,0.0,0.0,0.0,0.0,0.0,-1.6455,-1.6525,-1.6525,-1.6596,-1.6871,-1.7147,-1.7485,-1.7995,-1.84,-1.8759,-1.9787,-2.0488,-2.0695,-2.1231,-2.1887,-2.262,-2.3008,-2.3451,-2.4011,-2.3822,-2.3674,-2.3857,-2.3731,-2.3923,-2.4416,-2.4657,-2.5013,-2.559,-2.5563,-2.5819,-2.6441,-2.6514,-2.6625,-2.7105,-2.8068,-2.8611,-2.8304,-2.7996,-2.7737,-2.7721,-2.7721,-2.7705,-2.7721,-2.7721,-2.7559,-2.7251,-2.7219,-2.725,-2.7277,-2.7326,-2.7641,-2.848,-2.8768,-2.8866,-2.9005,-2.9265,-2.9368,-2.973,-3.0765,-3.1731,-1.5263,-1.5732,-1.6512,-1.644,-1.5906,-1.5796,-1.5555,-1.5262,0.0,0.0,0.0,-1.8145,-1.9056,-1.9821,-2.0072,-2.0206,-2.041,-2.0255,-1.982,-1.922,-1.9499,-1.9437,-1.9075,-1.9131,-1.9131,-1.9131,-1.9131,-1.9131,-1.9131,-1.9131,-1.9264,-1.9483,-1.9539,-1.9922,-2.0506,-2.0892,-2.0791,-2.0127,-1.9769,-1.9408,-1.9103,-1.8475,-1.81,-1.799,-1.7809,-1.7492,-1.6912,-1.6748,-1.657,-1.6162,-1.5898,-1.5995,-1.6534,-1.6374,-1.6325,-1.642,-1.6525,-1.644,-1.6104,-1.6476,-1.6762,-1.6715,-1.8126,-1.9016,-1.9154,-2.0122,-2.0854,-2.1184,-2.178,-2.2324,-2.2858,-2.3289,-2.3667,-2.3752,-2.335,-2.3169,-2.3439,-2.3178,-2.3216,-2.3696,-2.39,-2.4067,-2.4529,-2.4626,-2.4817,-2.5497,-2.5696,-2.5967,-2.663,-2.7061,-2.7412,-2.7347,-2.7154,-2.7147,-2.7179,-2.713,-2.7211,-2.7098,-2.7171,-2.7082,-2.6629,-2.6506,-2.6264,-2.5859,-2.5648,-2.6241,-2.7133,-2.7487,-2.7627,-2.8109,-2.8661,-2.8765,-2.7764,-2.8247,-2.9196,-1.4867,-1.5711,-1.6274,-1.6228,-1.5877,-1.5321,-1.4904,-1.4712,-1.5378,-1.5942,-1.6412,-1.719,-1.7877,-1.8443,-1.8896,-1.9556,-2.0358,-1.9624,-1.9406,-1.9634,-1.9323,-1.9204,-1.9131,-1.9131,-1.9131,-1.9131,-1.9131,-1.9131,-1.9131,-1.9131,-1.9131,-1.9208,-1.9473,-1.9791,-2.0161,-2.0506,-2.0464,-1.998,-2.0036,-2.0041,-2.0023,-1.8915,-1.8362,-1.834,-1.7542,-1.689,-1.6345,-1.5941,-1.5497,-1.5141,-1.52,-1.5337,-1.5668,-1.5792,-1.6013,-1.6536,-1.6584,-1.6739,-1.7147,-1.7267,-1.7303,-1.7352,-1.8286,-1.8943,-1.8994,-2.0381,-2.1089,-2.0711,-2.1125,-2.1685,-2.2216,-2.1969,-2.2034,-2.2428,-2.2648,-2.2793,-2.2913,-2.3305,-2.3623,-2.3782,-2.4051,-2.4219,-2.4302,-2.4343,-2.4416,-2.4565,-2.4838,-2.4945,-2.5384,-2.5812,-2.6186,-2.6154,-2.5751,-2.5433,-2.5552,-2.5386,-2.5536,-2.5386,-2.5639,-2.575,-2.5621,-2.5706,-2.5756,-2.5594,-2.5751,-2.6131,-2.6547,-2.674,-2.71,-2.7489,-2.7713,-2.7592,-2.7316,-2.7575,-2.7885,-1.3531,-1.4263,-1.492,-1.5404,-1.5613,-1.5063,-1.486,-1.4721,-1.4922,-1.523,-1.5654,-1.6078,-1.6687,-1.734,-1.7991,-1.8645,-1.9293,-1.9151,-1.9245,-1.9432,-1.9168,-1.9131,-1.9131,-1.9131,-1.9131,-1.9131,-1.9131,-1.9131,-1.9131,-1.9131,-1.9131,-1.9142,-1.9473,-1.966,-1.9857,-2.0183,-2.0191,-2.0023,-2.0228,-2.0038,-1.9502,-1.8953,-1.8533,-1.826,-1.7795,-1.7406,-1.6843,-1.6667,-1.6291,-1.585,-1.5706,-1.5823,-1.6185,-1.6137,-1.6228,-1.6455,-1.6572,-1.6606,-1.6558,-1.6512,-1.6783,-1.7319,-1.8035,-1.8532,-1.8748,-2.0016,-2.0744,-2.0467,-2.0675,-2.0906,-2.1201,-2.1229,-2.1504,-2.1939,-2.2101,-2.2453,-2.3128,-2.3223,-2.3447,-2.3975,-2.4219,-2.4302,-2.4302,-2.4302,-2.4302,-2.4317,-2.44,-2.4508,-2.4589,-2.4854,-2.5196,-2.5368,-2.5211,-2.5053,-2.5005,-2.5005,-2.5005,-2.5005,-2.5084,-2.5123,-2.5139,-2.5294,-2.541,-2.5448,-2.5707,-2.6059,-2.6332,-2.6622,-2.6914,-2.723,-2.7299,-2.7299,-2.7299,-2.7299,-2.7437,-1.2135,-1.2645,-1.343,-1.419,-1.4871,-1.4639,-1.4627,-1.4699,-1.4377,-1.4476,-1.4744,-1.5079,-1.5617,-1.6319,-1.6926,-1.7593,-1.816,-1.8534,-1.8865,-1.9008,-1.9008,-1.9075,-1.9131,-1.9131,-1.9131,-1.9131,-1.9131,-1.9131,-1.9131,-1.9131,-1.9131,-1.9142,-1.9341,-1.9473,-1.9483,-1.9857,-1.9977,-2.002,-2.0202,-1.9897,-1.8988,-1.8897,-1.8655,-1.813,-1.8084,-1.7898,-1.7415,-1.7369,-1.7094,-1.6486,-1.6228,-1.6207,-1.6416,-1.628,-1.6195,-1.6242,-1.6346,-1.6269,-1.6017,-1.5881,-1.6215,-1.72,-1.7635,-1.8024,-1.8434,-1.9363,-2.0035,-2.0161,-2.0133,-2.0245,-2.0442,-2.0639,-2.1067,-2.147,-2.1773,-2.2308,-2.3293,-2.3307,-2.3416,-2.4184,-2.4302,-2.4302,-2.4302,-2.4302,-2.4302,-2.4302,-2.4302,-2.4302,-2.4302,-2.4302,-2.4467,-2.471,-2.4846,-2.4806,-2.4831,-2.4831,-2.4806,-2.4846,-2.4871,-2.4966,-2.5045,-2.5224,-2.547,-2.5584,-2.5856,-2.6203,-2.6469,-2.6655,-2.6946,-2.723,-2.7299,-2.7299,-2.7299,-2.7299,-2.7299,-1.1268,-1.1593,-1.2352,-1.2949,-1.3402,-1.3507,-1.3719,-1.4001,-1.3733,-1.3579,-1.3778,-1.4283,-1.4762,-1.5088,-1.5559,-1.6333,-1.7411,-1.756,-1.8037,-1.8731,-1.8808,-1.8942,-1.9075,-1.9065,-1.9131,-1.9075,-1.9075,-1.9131,-1.9131,-1.9131,-1.9131,-1.9131,-1.9142,-1.9131,-1.9208,-1.9473,-1.9671,-1.966,-1.9944,-1.9824,-1.9134,-1.8953,-1.8655,-1.8107,-1.8084,-1.7898,-1.7404,-1.7369,-1.6984,-1.6086,-1.6066,-1.5893,-1.5521,-1.5541,-1.5641,-1.5754,-1.5799,-1.5973,-1.6349,-1.6044,-1.62,-1.7096,-1.7261,-1.7499,-1.7909,-1.8381,-1.8899,-1.9348,-1.9488,-1.9754,-2.0274,-1.9993,-2.0118,-2.088,-2.1622,-2.2429,-2.2896,-2.3682,-2.4199,-2.4245,-2.4302,-2.4302,-2.4302,-2.4302,-2.4302,-2.4302,-2.4302,-2.4302,-2.4302,-2.4302,-2.4317,-2.4385,-2.4385,-2.4369,-2.4369,-2.4343,-2.4426,-2.4426,-2.4549,-2.4735,-2.5036,-2.5384,-2.5738,-2.5917,-2.6241,-2.6471,-2.664,-2.6802,-2.6928,-2.723,-2.7299,-2.7299,-2.7299,-2.7299,-2.7299,-1.0069,-1.0757,-1.1097,-1.1682,-1.2463,-1.2717,-1.2936,-1.3199,-1.3539,-1.3601,-1.355,-1.3977,-1.4156,-1.4129,-1.4832,-1.5463,-1.5939,-1.6507,-1.7198,-1.7969,-1.7969,-1.825,-1.8741,-1.8875,-1.8942,-1.8942,-1.9008,-1.9131,-1.9131,-1.9131,-1.9131,-1.9131,-1.9131,-1.9131,-1.9131,-1.9198,-1.9274,-1.9341,-1.966,-1.9523,-1.9,-1.8992,-1.8804,-1.834,-1.8201,-1.7844,-1.7438,-1.7369,-1.7048,-1.6382,-1.6362,-1.6203,-1.566,-1.5753,-1.5706,-1.5539,-1.5626,-1.5804,-1.6044,-1.6175,-1.6522,-1.7157,-1.7434,-1.776,-1.8189,-1.8386,-1.863,-1.8829,-1.9179,-1.939,-1.9374,-1.9834,-2.0323,-2.0589,-2.1055,-2.1834,-2.2985,-2.3099,-2.3363,-2.4133,-2.4302,-2.4302,-2.4302,-2.4302,-2.4302,-2.4302,-2.4302,-2.4302,-2.4302,-2.4302,-2.4302,-2.4256,-2.3994,-2.3917,-2.4194,-2.4302,-2.4302,-2.4302,-2.4359,-2.4574,-2.4942,-2.5291,-2.5647,-2.6049,-2.6393,-2.6636,-2.6759,-2.6971,-2.7147,-2.7299,-2.7299,-2.7299,-2.7299,-2.7299,-2.7299,-0.911,-0.9772,-1.0019,-1.0621,-1.1514,-1.1694,-1.2117,-1.2627,-1.3015,-1.3259,-1.3455,-1.3673,-1.3718,-1.3587,-1.4201,-1.4617,-1.4895,-1.5534,-1.6298,-1.6982,-1.6982,-1.7404,-1.8124,-1.8327,-1.8529,-1.8741,-1.8952,-1.9065,-1.9065,-1.9131,-1.9131,-1.9131,-1.9131,-1.9131,-1.9131,-1.9131,-1.9131,-1.9142,-1.9341,-1.9304,-1.8988,-1.9051,-1.8959,-1.8427,-1.8137,-1.7858,-1.7611,-1.7588,-1.7358,-1.6864,-1.6692,-1.6405,-1.5923,-1.5857,-1.5695,-1.537,-1.5525,-1.5748,-1.5901,-1.6262,-1.6723,-1.731,-1.7639,-1.8002,-1.84,-1.8478,-1.8478,-1.8574,-1.9039,-1.9151,-1.8742,-1.9587,-2.0179,-2.0135,-2.049,-2.1379,-2.2494,-2.2517,-2.2994,-2.3856,-2.4164,-2.4302,-2.4302,-2.4302,-2.4302,-2.4302,-2.4302,-2.4302,-2.4302,-2.4302,-2.4302,-2.4302,-2.3887,-2.3825,-2.4194,-2.4071,-2.4102,-2.4225,-2.421,-2.4203,-2.4697,-2.5102,-2.5533,-2.6007,-2.6489,-2.6873,-2.6973,-2.7201,-2.7264,-2.7282,-2.7299,-2.7299,-2.7299,-2.7299,-2.7299,-0.866,-0.874,-0.9174,-0.9758,-1.0403,-1.0295,-1.1072,-1.2299,-1.2043,-1.2318,-1.3127,-1.3228,-1.3368,-1.3499,-1.3564,-1.3985,-1.453,-1.4673,-1.5242,-1.6009,-1.607,-1.6567,-1.7404,-1.7482,-1.7833,-1.8405,-1.8596,-1.8865,-1.9065,-1.9065,-1.9131,-1.9131,-1.9131,-1.9131,-1.9131,-1.9131,-1.9131,-1.9131,-1.9131,-1.911,-1.9093,-1.9286,-1.9039,-1.8436,-1.7991,-1.7877,-1.8027,-1.8038,-1.7863,-1.741,-1.691,-1.6417,-1.5948,-1.5476,-1.5211,-1.5312,-1.5435,-1.5724,-1.6151,-1.6312,-1.674,-1.7544,-1.7801,-1.8002,-1.8439,-1.8478,-1.8478,-1.8492,-1.8983,-1.9067,-1.8669,-1.9055,-1.9339,-1.9553,-2.0288,-2.0946,-2.1409,-2.244,-2.3132,-2.3471,-2.3948,-2.4271,-2.4302,-2.4302,-2.4302,-2.4302,-2.4302,-2.4302,-2.4302,-2.4302,-2.4302,-2.4287,-2.4225,-2.4256,-2.4241,-2.3871,-2.3779,-2.3748,-2.3619,-2.3692,-2.4295,-2.4912,-2.537,-2.5912,-2.6318,-2.6681,-2.7115,-2.7264,-2.723,-2.723,-2.7299,-2.7299,-2.7299,-2.7299,-2.7299,-0.8572,-0.8644,-0.8611,-0.8807,-0.9016,-0.9289,-1.0137,-1.1132,-1.1419,-1.2077,-1.29,-1.2973,-1.3119,-1.3273,-1.3346,-1.3557,-1.3912,-1.3912,-1.433,-1.5029,-1.5092,-1.5517,-1.6228,-1.6428,-1.6853,-1.756,-1.7833,-1.825,-1.8875,-1.8875,-1.8998,-1.9065,-1.9131,-1.9131,-1.9131,-1.9131,-1.9131,-1.9131,-1.9131,-1.9131,-1.91,-1.8879,-1.8594,-1.8311,-1.8382,-1.836,-1.8096,-1.8084,-1.7993,-1.7821,-1.7381,-1.6876,-1.6336,-1.5556,-1.5153,-1.5267,-1.5357,-1.548,-1.5812,-1.6398,-1.6866,-1.7242,-1.7908,-1.8268,-1.8425,-1.8478,-1.8478,-1.8534,-1.8647,-1.8739,-1.8931,-1.9358,-1.9675,-1.9516,-2.0044,-2.0702,-2.1188,-2.1747,-2.2317,-2.3163,-2.3887,-2.4302,-2.4302,-2.4302,-2.4302,-2.4302,-2.4302,-2.4302,-2.4302,-2.4302,-2.4302,-2.4225,-2.3948,-2.3656,-2.3656,-2.3502,-2.3317,-2.2994,-2.2863,-2.3258,-2.379,-2.3781,-2.4097,-2.5477,-2.5998,-2.6048,-2.6313,-2.6833,-2.6868,-2.7247,-2.7299,-2.7299,-2.7299,-2.7299,-2.7299,-0.8528,-0.8463,-0.8345,-0.8256,-0.825,-0.8519,-0.9159,-1.0068,-1.0691,-1.1477,-1.2305,-1.2673,-1.2893,-1.3046,-1.3127,-1.32,-1.3426,-1.3492,-1.3775,-1.4186,-1.4258,-1.4609,-1.5242,-1.5517,-1.5939,-1.6645,-1.7129,-1.7696,-1.8317,-1.8607,-1.8808,-1.8998,-1.8998,-1.9008,-1.9065,-1.9131,-1.9131,-1.9131,-1.9131,-1.9131,-1.909,-1.8895,-1.8585,-1.8347,-1.8618,-1.8589,-1.802,-1.803,-1.8084,-1.8015,-1.7645,-1.7071,-1.6382,-1.5567,-1.5153,-1.521,-1.5255,-1.53,-1.5513,-1.6324,-1.6866,-1.6964,-1.7733,-1.8321,-1.8321,-1.8361,-1.84,-1.84,-1.8478,-1.8581,-1.8884,-1.9517,-1.9855,-1.9619,-1.9975,-2.0474,-2.0952,-2.1399,-2.2255,-2.3394,-2.4025,-2.4271,-2.4302,-2.4302,-2.4302,-2.4302,-2.4302,-2.4302,-2.4302,-2.4302,-2.4194,-2.401,-2.3625,-2.3102,-2.2748,-2.2455,-2.2671,-2.2455,-2.2161,-2.2596,-2.3075,-2.2945,-2.3425,-2.4811,-2.5412,-2.5346,-2.56,-2.6186,-2.6713,-2.7178,-2.7299,-2.7299,-2.7299,-2.7299,-2.7299,-0.8455,-0.8296,-0.8284,-0.817,-0.8,-0.7889,-0.8291,-0.9096,-0.9682,-1.0501,-1.1403,-1.215,-1.2599,-1.2826,-1.2826,-1.3046,-1.3193,-1.3346,-1.3492,-1.363,-1.3557,-1.3977,-1.4609,-1.4609,-1.5029,-1.5745,-1.6673,-1.7148,-1.7404,-1.8057,-1.8446,-1.8694,-1.8755,-1.892,-1.9065,-1.9106,-1.9162,-1.9075,-1.9131,-1.9131,-1.9131,-1.9257,-1.8945,-1.8267,-1.844,-1.8328,-1.769,-1.792,-1.8084,-1.8027,-1.7645,-1.6961,-1.6086,-1.5441,-1.5142,-1.5119,-1.5108,-1.5165,-1.5345,-1.6088,-1.6595,-1.6808,-1.7461,-1.7963,-1.8003,-1.8109,-1.8202,-1.8202,-1.8361,-1.8478,-1.862,-1.906,-1.9494,-1.9782,-2.0065,-2.03,-2.0582,-2.1522,-2.2763,-2.3856,-2.4241,-2.4302,-2.4302,-2.4302,-2.4302,-2.4302,-2.4302,-2.4302,-2.4302,-2.4302,-2.4025,-2.3625,-2.3456,-2.324,-2.2278,-2.1399,-2.1784,-2.1985,-2.1657,-2.1724,-2.2433,-2.2617,-2.3254,-2.4431,-2.5259,-2.5241,-2.575,-2.632,-2.6768,-2.7178,-2.723,-2.7299,-2.7299,-2.7299,-2.7299,-0.8119,-0.7951,-0.8018,-0.8,-0.7825,-0.7646,-0.803,-0.8789,-0.9022,-0.9523,-1.0426,-1.1254,-1.1706,-1.2003,-1.2452,-1.2826,-1.298,-1.3046,-1.32,-1.3419,-1.3492,-1.3637,-1.384,-1.384,-1.4266,-1.5007,-1.6019,-1.6484,-1.6562,-1.709,-1.7574,-1.7889,-1.8475,-1.8785,-1.8859,-1.9307,-1.9484,-1.9162,-1.9131,-1.9131,-1.91,-1.8885,-1.8511,-1.7967,-1.7853,-1.761,-1.7143,-1.7545,-1.7822,-1.7799,-1.755,-1.6922,-1.6084,-1.5739,-1.5487,-1.5165,-1.5119,-1.5108,-1.5244,-1.5944,-1.6479,-1.6723,-1.7378,-1.7842,-1.7922,-1.7963,-1.8003,-1.8003,-1.8043,-1.8189,-1.8514,-1.8707,-1.9049,-1.9457,-1.999,-2.0285,-2.0551,-2.1486,-2.2578,-2.3456,-2.4025,-2.4271,-2.4302,-2.4302,-2.4302,-2.4302,-2.4302,-2.4302,-2.4302,-2.4302,-2.4287,-2.401,-2.384,-2.3388,-2.2393,-2.162,-2.1599,-2.1553,-2.1228,-2.1132,-2.1771,-2.2353,-2.303,-2.3817,-2.4633,-2.5292,-2.5819,-2.6289,-2.6716,-2.7092,-2.7195,-2.7247,-2.7282,-2.723,-2.7109,-0.7336,-0.7195,-0.771,-0.7756,-0.7664,-0.7565,-0.7791,-0.8246,-0.8551,-0.9003,-0.9523,-1.0276,-1.0732,-1.1031,-1.17,-1.2157,-1.2372,-1.2599,-1.2973,-1.3302,-1.3491,-1.3542,-1.3514,-1.3492,-1.3702,-1.4289,-1.5122,-1.5538,-1.5551,-1.6173,-1.6694,-1.7149,-1.7574,-1.7868,-1.8075,-1.8645,-1.8849,-1.8607,-1.8767,-1.8816,-1.8723,-1.8371,-1.7926,-1.7502,-1.7371,-1.7111,-1.6747,-1.7155,-1.7479,-1.7588,-1.7338,-1.6795,-1.621,-1.5831,-1.5464,-1.5211,-1.5119,-1.5108,-1.5198,-1.5724,-1.6262,-1.6479,-1.7073,-1.7488,-1.7625,-1.7666,-1.7747,-1.7747,-1.7868,-1.8029,-1.8293,-1.8436,-1.8707,-1.9161,-1.9747,-2.038,-2.0911,-2.1747,-2.2701,-2.3502,-2.4071,-2.4256,-2.4302,-2.4302,-2.4302,-2.4302,-2.4302,-2.4302,-2.4302,-2.4302,-2.4225,-2.4071,-2.3748,-2.3156,-2.2477,-2.1929,-2.1538,-2.1173,-2.0779,-2.0905,-2.1282,-2.1697,-2.2264,-2.3098,-2.3943,-2.4666,-2.5179,-2.5863,-2.6371,-2.673,-2.6988,-2.6816,-2.6678,-2.673,-2.6661,-0.624,-0.6275,-0.7166,-0.75,-0.7406,-0.7398,-0.7484,-0.7638,-0.8246,-0.8546,-0.8851,-0.9523,-0.982,-1.0045,-1.0726,-1.1186,-1.1484,-1.2077,-1.2599,-1.2977,-1.3301,-1.3561,-1.3448,-1.3492,-1.3564,-1.371,-1.4328,-1.4593,-1.4609,-1.5248,-1.5862,-1.6283,-1.6147,-1.6272,-1.6901,-1.7385,-1.7648,-1.7707,-1.7961,-1.8148,-1.8181,-1.7718,-1.7328,-1.6919,-1.6876,-1.6708,-1.6436,-1.6705,-1.7155,-1.7544,-1.711,-1.6761,-1.6463,-1.5682,-1.5246,-1.5142,-1.5119,-1.5119,-1.5153,-1.5457,-1.5824,-1.6231,-1.6607,-1.6837,-1.724,-1.7406,-1.7475,-1.7529,-1.7666,-1.7842,-1.7909,-1.8095,-1.8422,-1.8907,-1.9656,-2.0613,-2.1949,-2.2263,-2.2939,-2.3876,-2.4261,-2.4276,-2.4276,-2.4276,-2.4276,-2.4302,-2.4302,-2.4302,-2.4302,-2.4241,-2.3979,-2.384,-2.3779,-2.3357,-2.2802,-2.2727,-2.2294,-2.1667,-2.1268,-2.139,-2.1499,-2.1843,-2.2522,-2.3254,-2.3418,-2.4058,-2.4658,-2.5356,-2.5911,-2.6303,-2.632,-2.6143,-2.6161,-2.6299,-2.6316,-0.5279,-0.5694,-0.6157,-0.662,-0.7025,-0.7196,-0.7261,-0.7334,-0.7638,-0.7863,-0.8012,-0.8694,-0.8998,-0.9074,-0.9825,-1.0582,-1.1037,-1.1409,-1.2003,-1.2647,-1.3071,-1.3248,-1.3323,-1.3419,-1.3492,-1.3594,-1.3896,-1.4014,-1.3812,-1.4271,-1.4691,-1.5088,-1.5279,-1.5584,-1.6167,-1.6396,-1.6508,-1.6578,-1.6486,-1.6654,-1.6787,-1.6426,-1.612,-1.6013,-1.6068,-1.6055,-1.5972,-1.6477,-1.7088,-1.76,-1.7383,-1.6991,-1.6585,-1.5967,-1.5452,-1.5211,-1.5131,-1.5119,-1.5153,-1.5412,-1.578,-1.6144,-1.6479,-1.685,-1.7157,-1.724,-1.7282,-1.7282,-1.7365,-1.7447,-1.7598,-1.772,-1.808,-1.8912,-1.9879,-2.1,-2.1889,-2.2528,-2.3193,-2.3884,-2.4094,-2.4151,-2.4193,-2.425,-2.425,-2.4276,-2.4317,-2.4302,-2.4302,-2.4302,-2.4117,-2.4164,-2.4056,-2.3665,-2.3382,-2.3365,-2.302,-2.2359,-2.2155,-2.2343,-2.2555,-2.2848,-2.38,-2.479,-2.3782,-2.3973,-2.4368,-2.488,-2.5352,-2.579,-2.582,-2.5747,-2.5954,-2.6109,-2.6006,-0.4004,-0.4338,-0.4979,-0.57,-0.6274,-0.6499,-0.6776,-0.703,-0.7173,-0.7249,-0.7403,-0.771,-0.8012,-0.8165,-0.8917,-0.9523,-1.0056,-1.0432,-1.1099,-1.1955,-1.2621,-1.3042,-1.3209,-1.3359,-1.3346,-1.3441,-1.3682,-1.3653,-1.355,-1.3697,-1.4007,-1.4375,-1.4556,-1.4911,-1.5291,-1.5466,-1.5549,-1.565,-1.5444,-1.5531,-1.5942,-1.5622,-1.5681,-1.5752,-1.5898,-1.5972,-1.6077,-1.6534,-1.7032,-1.7313,-1.7165,-1.692,-1.6707,-1.606,-1.562,-1.5394,-1.5257,-1.5119,-1.5153,-1.5289,-1.5558,-1.5913,-1.6293,-1.6637,-1.6947,-1.7115,-1.7212,-1.7199,-1.7212,-1.7282,-1.7352,-1.7516,-1.7868,-1.8506,-2.0002,-2.1255,-2.1925,-2.261,-2.3254,-2.3755,-2.3982,-2.4024,-2.4124,-2.4181,-2.4208,-2.4234,-2.4276,-2.4276,-2.4302,-2.4302,-2.4302,-2.4302,-2.441,-2.4175,-2.3967,-2.3948,-2.3968,-2.3333,-2.3215,-2.3345,-2.3192,-2.3421,-2.3546,-2.4005,-2.3786,-2.3701,-2.3925,-2.4252,-2.4751,-2.5085,-2.5235,-2.5229,-2.5264,-2.5471,-2.5436,-0.2743,-0.286,-0.3802,-0.4713,-0.5431,-0.5645,-0.6192,-0.6802,-0.6942,-0.6942,-0.6942,-0.6942,-0.7176,-0.7257,-0.8008,-0.8461,-0.8775,-0.9442,-1.0201,-1.1031,-1.1906,-1.2567,-1.2873,-1.3072,-1.3134,-1.3207,-1.3346,-1.3477,-1.3492,-1.3565,-1.3726,-1.4014,-1.4066,-1.4124,-1.4464,-1.4582,-1.4664,-1.4645,-1.4433,-1.4524,-1.4841,-1.4759,-1.484,-1.5176,-1.5585,-1.5904,-1.6192,-1.6534,-1.674,-1.7078,-1.6721,-1.6685,-1.6677,-1.5931,-1.565,-1.5697,-1.5404,-1.5165,-1.5143,-1.5188,-1.5289,-1.5635,-1.6001,-1.6362,-1.6723,-1.7031,-1.7212,-1.7212,-1.7212,-1.7199,-1.7269,-1.7557,-1.7787,-1.8233,-1.9774,-2.1211,-2.1864,-2.2591,-2.333,-2.3861,-2.3925,-2.394,-2.3982,-2.4067,-2.4124,-2.4151,-2.4193,-2.4193,-2.4193,-2.4193,-2.4234,-2.4276,-2.4467,-2.4719,-2.4634,-2.4557,-2.4569,-2.4386,-2.4414,-2.4311,-2.3537,-2.339,-2.277,-2.2688,-2.3384,-2.3401,-2.3096,-2.3505,-2.4002,-2.4133,-2.4179,-2.4081,-2.4005,-2.4367,-2.4488,-0.2125,-0.2685,-0.2893,-0.3822,-0.5017,-0.5317,-0.5886,-0.6637,-0.6788,-0.6865,-0.6865,-0.6865,-0.6942,-0.6945,-0.7246,-0.7625,-0.8385,-0.8756,-0.921,-1.0196,-1.1031,-1.1428,-1.1877,-1.2546,-1.298,-1.3046,-1.3193,-1.3395,-1.3518,-1.3564,-1.3784,-1.4179,-1.3704,-1.3521,-1.3991,-1.3509,-1.3142,-1.3323,-1.316,-1.3099,-1.3322,-1.3344,-1.3381,-1.3674,-1.4222,-1.4942,-1.5662,-1.5904,-1.6134,-1.6419,-1.6557,-1.6525,-1.6512,-1.5989,-1.5734,-1.5692,-1.5497,-1.5314,-1.5317,-1.5199,-1.5244,-1.5546,-1.5913,-1.6362,-1.6667,-1.6976,-1.7199,-1.7212,-1.7212,-1.7212,-1.724,-1.7557,-1.7774,-1.8262,-1.9723,-2.1129,-2.148,-2.2599,-2.3456,-2.3636,-2.3696,-2.3696,-2.3839,-2.3882,-2.394,-2.4024,-2.4067,-2.4082,-2.4067,-2.4109,-2.4151,-2.425,-2.4467,-2.471,-2.4759,-2.4798,-2.4981,-2.4984,-2.5078,-2.5209,-2.4429,-2.4083,-2.3792,-2.358,-2.3553,-2.327,-2.2717,-2.2647,-2.3112,-2.3117,-2.3213,-2.3354,-2.3467,-2.3615,-2.365,-0.1585,-0.1971,-0.1985,-0.2771,-0.3772,-0.4423,-0.5102,-0.5876,-0.6405,-0.6641,-0.6637,-0.6637,-0.6637,-0.6791,-0.6791,-0.7169,-0.7698,-0.8228,-0.8912,-0.982,-1.0651,-1.1335,-1.1706,-1.2224,-1.2673,-1.2753,-1.2973,-1.3167,-1.3283,-1.3336,-1.3424,-1.3845,-1.3462,-1.363,-1.3836,-1.3162,-1.2902,-1.284,-1.2377,-1.221,-1.2436,-1.2597,-1.3139,-1.3614,-1.4341,-1.5128,-1.573,-1.5904,-1.6019,-1.6244,-1.6406,-1.6545,-1.6514,-1.6138,-1.5954,-1.5992,-1.5504,-1.5295,-1.5189,-1.5009,-1.4869,-1.5198,-1.5691,-1.612,-1.6509,-1.6905,-1.7199,-1.7212,-1.7212,-1.7199,-1.7212,-1.7639,-1.7902,-1.8269,-1.9653,-2.0854,-2.1355,-2.2584,-2.3595,-2.3595,-2.3595,-2.3638,-2.3696,-2.3739,-2.3797,-2.3882,-2.3982,-2.4024,-2.4067,-2.4067,-2.4124,-2.425,-2.4467,-2.4661,-2.4755,-2.4926,-2.5233,-2.5271,-2.5306,-2.553,-2.532,-2.523,-2.519,-2.4529,-2.3604,-2.2962,-2.2479,-2.2411,-2.2409,-2.2651,-2.286,-2.2983,-2.3045,-2.315,-2.3177,-0.1137,-0.1273,-0.1316,-0.1791,-0.2579,-0.3289,-0.4153,-0.5129,-0.5796,-0.618,-0.6257,-0.6261,-0.6412,-0.6486,-0.6563,-0.6637,-0.7092,-0.7698,-0.8385,-0.8988,-0.9895,-1.0571,-1.1168,-1.17,-1.2077,-1.2378,-1.268,-1.2861,-1.3012,-1.3026,-1.3351,-1.3376,-1.3615,-1.3672,-1.3693,-1.3353,-1.2917,-1.2684,-1.2197,-1.1896,-1.2243,-1.2466,-1.307,-1.3914,-1.4401,-1.4893,-1.5186,-1.5478,-1.5826,-1.5999,-1.6249,-1.6488,-1.6543,-1.6356,-1.619,-1.644,-1.5726,-1.543,-1.5328,-1.4919,-1.4678,-1.4762,-1.5244,-1.5724,-1.6032,-1.6552,-1.6892,-1.706,-1.7073,-1.7264,-1.7356,-1.7751,-1.8105,-1.8495,-1.9651,-2.0621,-2.1403,-2.26,-2.3318,-2.3595,-2.3595,-2.3595,-2.3638,-2.3696,-2.3739,-2.3782,-2.3882,-2.394,-2.3982,-2.4024,-2.404,-2.4082,-2.4261,-2.4426,-2.4544,-2.4829,-2.5176,-2.5243,-2.5347,-2.5554,-2.5757,-2.5636,-2.5246,-2.4247,-2.3401,-2.2895,-2.2502,-2.2349,-2.2398,-2.247,-2.262,-2.2794,-2.2796,-2.2729,-2.2781,-0.0871,-0.1125,-0.1112,-0.1616,-0.2546,-0.2728,-0.357,-0.4901,-0.5118,-0.5631,-0.618,-0.6261,-0.6338,-0.6335,-0.6335,-0.649,-0.6714,-0.7169,-0.7399,-0.7774,-0.8609,-0.9286,-0.9664,-1.0651,-1.1111,-1.1558,-1.209,-1.2634,-1.3024,-1.3446,-1.3432,-1.3691,-1.3705,-1.3635,-1.3429,-1.3051,-1.2692,-1.2462,-1.2121,-1.1898,-1.1881,-1.1988,-1.2228,-1.2895,-1.3208,-1.3502,-1.3932,-1.446,-1.4932,-1.5352,-1.6009,-1.6316,-1.641,-1.6317,-1.6321,-1.6287,-1.6019,-1.568,-1.5658,-1.5261,-1.5001,-1.5041,-1.506,-1.5051,-1.5355,-1.592,-1.6484,-1.6693,-1.6999,-1.7366,-1.7904,-1.8153,-1.8375,-1.8871,-1.9733,-2.0726,-2.1383,-2.2232,-2.3143,-2.3421,-2.3508,-2.3595,-2.3595,-2.3638,-2.3653,-2.3696,-2.3739,-2.3739,-2.3739,-2.3782,-2.3797,-2.3882,-2.3982,-2.4135,-2.4317,-2.463,-2.4942,-2.5005,-2.5089,-2.5319,-2.5491,-2.5529,-2.5026,-2.4033,-2.3631,-2.3444,-2.3016,-2.244,-2.2398,-2.2497,-2.2569,-2.2657,-2.2676,-2.2712,-2.2712,-0.0255,-0.0842,-0.0841,-0.1086,-0.1567,-0.2041,-0.2658,-0.3499,-0.4399,-0.5079,-0.555,-0.6022,-0.6261,-0.6261,-0.6261,-0.6335,-0.649,-0.6637,-0.6942,-0.7399,-0.7927,-0.8533,-0.8761,-0.975,-0.9981,-1.0426,-1.118,-1.2061,-1.2668,-1.2845,-1.3147,-1.3175,-1.3189,-1.3181,-1.304,-1.2692,-1.2403,-1.2178,-1.1907,-1.1667,-1.1723,-1.1899,-1.2166,-1.2282,-1.2605,-1.3025,-1.3321,-1.3795,-1.4204,-1.4501,-1.505,-1.5478,-1.5778,-1.5961,-1.6144,-1.6301,-1.6061,-1.5834,-1.5687,-1.5162,-1.4722,-1.4844,-1.4799,-1.4789,-1.5073,-1.5688,-1.6293,-1.6658,-1.7079,-1.7532,-1.7816,-1.8449,-1.8942,-1.9334,-2.0078,-2.0752,-2.1346,-2.208,-2.2682,-2.3246,-2.3465,-2.3551,-2.3595,-2.3595,-2.3595,-2.3595,-2.3595,-2.3595,-2.3595,-2.3638,-2.3696,-2.3797,-2.394,-2.4094,-2.4261,-2.4451,-2.4679,-2.4759,-2.4823,-2.502,-2.5026,-2.4962,-2.4588,-2.3833,-2.3652,-2.351,-2.287,-2.2118,-2.2315,-2.247,-2.2504,-2.2549,-2.2649,-2.2712,-2.2685,0.0413,-0.0407,-0.0581,-0.0657,-0.0721,-0.1372,-0.1769,-0.2214,-0.345,-0.4139,-0.453,-0.5392,-0.5944,-0.6022,-0.618,-0.6261,-0.6338,-0.649,-0.6868,-0.7249,-0.7625,-0.8156,-0.8618,-0.8998,-0.9074,-0.9221,-0.997,-1.0944,-1.19,-1.2377,-1.254,-1.2648,-1.2587,-1.264,-1.2684,-1.2421,-1.222,-1.1963,-1.1636,-1.146,-1.171,-1.2007,-1.2266,-1.2266,-1.2773,-1.2964,-1.2964,-1.3364,-1.3476,-1.3777,-1.4264,-1.4815,-1.5177,-1.5546,-1.5904,-1.614,-1.6011,-1.5866,-1.5693,-1.5216,-1.4892,-1.5046,-1.4758,-1.4763,-1.5062,-1.5759,-1.6492,-1.7002,-1.7542,-1.7978,-1.8318,-1.8969,-1.9568,-1.9902,-2.0335,-2.0871,-2.1342,-2.1894,-2.2392,-2.2875,-2.329,-2.3508,-2.3551,-2.3595,-2.3595,-2.3595,-2.3595,-2.3595,-2.3595,-2.3638,-2.3696,-2.3812,-2.3955,-2.4109,-2.4234,-2.4261,-2.4426,-2.4451,-2.4492,-2.4614,-2.4467,-2.4319,-2.3808,-2.3417,-2.3243,-2.301,-2.2341,-2.1982,-2.217,-2.232,-2.2367,-2.2462,-2.2607,-2.2603,-2.2517,0.1058,0.065,-0.0082,-0.0494,-0.0664,-0.0818,-0.1217,-0.1852,-0.2211,-0.266,-0.3357,-0.4368,-0.491,-0.5132,-0.5838,-0.6163,-0.6328,-0.6314,-0.6395,-0.6714,-0.6868,-0.6945,-0.7096,-0.7706,-0.8012,-0.8237,-0.8917,-0.9895,-1.0749,-1.1828,-1.2437,-1.2311,-1.2404,-1.264,-1.2439,-1.2243,-1.2094,-1.184,-1.171,-1.148,-1.1298,-1.1353,-1.1428,-1.1483,-1.1608,-1.1794,-1.205,-1.252,-1.2818,-1.3,-1.4136,-1.4787,-1.5031,-1.5546,-1.5788,-1.6019,-1.6151,-1.6291,-1.6167,-1.5691,-1.5359,-1.5362,-1.5112,-1.498,-1.5262,-1.6033,-1.6876,-1.7543,-1.8086,-1.8499,-1.8865,-1.9394,-1.9817,-2.0124,-2.0458,-2.0835,-2.1264,-2.1492,-2.2035,-2.2498,-2.2905,-2.329,-2.3508,-2.3551,-2.3595,-2.3595,-2.3595,-2.3595,-2.3595,-2.3638,-2.3696,-2.3812,-2.3897,-2.4051,-2.4193,-2.4234,-2.4276,-2.4276,-2.4317,-2.4302,-2.4158,-2.3946,-2.3336,-2.2989,-2.2786,-2.235,-2.1665,-2.1531,-2.1946,-2.1986,-2.1827,-2.2149,-2.2598,-2.2502,-2.2326,0.2464,0.175,0.0955,0.0481,0.0404,-0.008,-0.0478,-0.0875,-0.1497,-0.188,-0.2418,-0.3312,-0.4031,-0.445,-0.4952,-0.5445,-0.5885,-0.5987,-0.611,-0.6251,-0.6416,-0.6412,-0.6486,-0.6791,-0.7022,-0.7326,-0.7859,-0.8466,-0.9408,-1.0198,-1.0964,-1.1521,-1.1652,-1.1896,-1.2057,-1.2138,-1.211,-1.1986,-1.1812,-1.1558,-1.1265,-1.11,-1.1129,-1.1185,-1.1185,-1.1247,-1.149,-1.1677,-1.2035,-1.222,-1.3,-1.3433,-1.3837,-1.4451,-1.5001,-1.5342,-1.5836,-1.6124,-1.612,-1.5873,-1.5773,-1.5587,-1.5351,-1.5142,-1.547,-1.6207,-1.6944,-1.7429,-1.8269,-1.8854,-1.9242,-1.9559,-1.9863,-2.0181,-2.0398,-2.0536,-2.0822,-2.1188,-2.1547,-2.2067,-2.2483,-2.2815,-2.3187,-2.3377,-2.3465,-2.3595,-2.3595,-2.3595,-2.3595,-2.3595,-2.3696,-2.3797,-2.3867,-2.3952,-2.4051,-2.4151,-2.4208,-2.425,-2.4302,-2.423,-2.4009,-2.3682,-2.3016,-2.2274,-2.1768,-2.1342,-2.0893,-2.1135,-2.1552,-2.1389,-2.1146,-2.1584,-2.199,-2.2182,-2.2073,0.399,0.3127,0.2035,0.1488,0.1254,0.0628,0.0157,-0.0079,-0.0785,-0.1172,-0.1467,-0.2271,-0.3187,-0.3827,-0.3985,-0.4492,-0.5403,-0.5472,-0.5765,-0.5996,-0.6106,-0.6103,-0.6103,-0.618,-0.618,-0.618,-0.6861,-0.7399,-0.7629,-0.8246,-0.9236,-1.034,-1.0443,-1.0807,-1.1347,-1.1627,-1.1689,-1.2037,-1.1688,-1.1397,-1.1152,-1.1008,-1.0968,-1.0996,-1.1059,-1.1115,-1.124,-1.1247,-1.1373,-1.156,-1.2042,-1.2581,-1.2879,-1.3855,-1.4519,-1.4932,-1.5478,-1.5914,-1.5948,-1.5859,-1.5776,-1.5711,-1.5635,-1.5626,-1.5908,-1.6469,-1.7062,-1.7568,-1.8573,-1.9096,-1.9309,-1.9724,-1.9876,-2.0055,-2.0182,-2.0182,-2.0271,-2.0746,-2.1126,-2.15,-2.1927,-2.2239,-2.262,-2.3054,-2.3334,-2.3551,-2.3595,-2.3595,-2.3595,-2.3595,-2.3638,-2.3739,-2.3782,-2.3867,-2.4009,-2.4082,-2.4166,-2.4116,-2.4184,-2.4168,-2.3989,-2.3386,-2.2668,-2.1869,-2.115,-2.0894,-2.081,-2.0939,-2.1052,-2.0893,-2.0814,-2.099,-2.1289,-2.1552,-2.1857,0.5323,0.4929,0.3207,0.2034,0.1332,0.1254,0.0706,0.0157,-0.0078,0.0,-0.0378,-0.1183,-0.221,-0.2901,-0.3127,-0.3622,-0.4503,-0.4513,-0.4908,-0.5386,-0.5637,-0.5637,-0.5715,-0.5792,-0.5789,-0.5944,-0.6247,-0.6331,-0.6412,-0.6791,-0.7855,-0.9145,-0.9296,-0.9518,-1.0179,-1.0959,-1.1405,-1.1703,-1.143,-1.1116,-1.0942,-1.0799,-1.0694,-1.0807,-1.0807,-1.0933,-1.1115,-1.1122,-1.1122,-1.1192,-1.1732,-1.2089,-1.2397,-1.3494,-1.4154,-1.446,-1.5254,-1.5614,-1.5728,-1.5881,-1.6063,-1.609,-1.614,-1.6106,-1.6374,-1.7353,-1.7906,-1.8082,-1.8992,-1.9534,-1.9749,-1.9901,-1.9926,-1.9978,-2.0016,-2.0067,-2.022,-2.0497,-2.0832,-2.1077,-2.1355,-2.1677,-2.21,-2.2589,-2.3054,-2.3275,-2.3595,-2.3595,-2.3595,-2.3595,-2.3595,-2.3638,-2.3739,-2.3824,-2.3967,-2.3964,-2.3808,-2.3738,-2.3718,-2.3892,-2.3938,-2.3197,-2.2146,-2.1883,-2.1295,-2.0994,-2.0693,-2.0709,-2.0657,-2.0457,-2.0478,-2.0715,-2.1023,-2.137,-2.1617,0.5659,0.5436,0.4737,0.3832,0.2737,0.1722,0.1097,0.0706,0.0,0.0,0.0,-0.0433,-0.1073,-0.1658,-0.1952,-0.2433,-0.3195,-0.3286,-0.3936,-0.4595,-0.4846,-0.5162,-0.5323,-0.5482,-0.5634,-0.5712,-0.5712,-0.5789,-0.6096,-0.6099,-0.6483,-0.7399,-0.8084,-0.9216,-0.9965,-1.0628,-1.1242,-1.1287,-1.1145,-1.0933,-1.0745,-1.0593,-1.0498,-1.0681,-1.0681,-1.0751,-1.087,-1.0933,-1.0996,-1.1122,-1.1428,-1.1545,-1.1787,-1.294,-1.3554,-1.3863,-1.4715,-1.5313,-1.5546,-1.5778,-1.5961,-1.5999,-1.6084,-1.6242,-1.6643,-1.7515,-1.8178,-1.8682,-1.9275,-1.9683,-1.9811,-1.9862,-1.9862,-1.9862,-1.9914,-1.9965,-2.0105,-2.0346,-2.0396,-2.0534,-2.0832,-2.1126,-2.1595,-2.2081,-2.2543,-2.3009,-2.3319,-2.3595,-2.3595,-2.3595,-2.3595,-2.3595,-2.3653,-2.3696,-2.3839,-2.3625,-2.3421,-2.3366,-2.3325,-2.3335,-2.336,-2.244,-2.159,-2.1495,-2.1346,-2.0786,-2.0441,-2.0373,-2.0339,-2.0304,-2.0388,-2.0509,-2.0827,-2.1199,-2.1402,0.5852,0.566,0.5686,0.4972,0.3904,0.2737,0.2026,0.1631,0.086,0.0305,0.0073,0.0071,-0.0209,-0.056,-0.0709,-0.1307,-0.2031,-0.2288,-0.2929,-0.342,-0.3908,-0.4222,-0.4616,-0.4851,-0.4929,-0.5168,-0.5479,-0.5631,-0.5786,-0.5786,-0.6022,-0.6328,-0.6788,-0.7923,-0.9059,-1.0409,-1.0929,-1.1027,-1.0981,-1.0891,-1.0702,-1.0438,-1.0244,-1.0434,-1.0434,-1.0561,-1.0618,-1.0681,-1.0807,-1.087,-1.0996,-1.0996,-1.1421,-1.1965,-1.2634,-1.3252,-1.3983,-1.4883,-1.5118,-1.5546,-1.5856,-1.5904,-1.5904,-1.6208,-1.6684,-1.7202,-1.7741,-1.8424,-1.9044,-1.9488,-1.9656,-1.9759,-1.9759,-1.9811,-1.985,-1.9862,-1.985,-2.0003,-1.9952,-1.9991,-2.0295,-2.0547,-2.0979,-2.15,-2.2452,-2.2965,-2.3377,-2.3595,-2.3595,-2.3595,-2.3595,-2.3595,-2.3595,-2.3638,-2.3638,-2.3586,-2.3459,-2.3188,-2.3086,-2.2714,-2.243,-2.162,-2.125,-2.1335,-2.1034,-2.0489,-2.0304,-2.0304,-2.0304,-2.0304,-2.0339,-2.0423,-2.061,-2.0925,-2.1151,0.5749,0.5719,0.5725,0.5191,0.4426,0.4365,0.3699,0.2728,0.1922,0.106,0.0434,0.0415,0.0275,0.021,0.0071,-0.0439,-0.1055,-0.1309,-0.1715,-0.2343,-0.2503,-0.2581,-0.2971,-0.3441,-0.4068,-0.4302,-0.4771,-0.5243,-0.5637,-0.5634,-0.5637,-0.5718,-0.6022,-0.6405,-0.6942,-0.8537,-0.9739,-1.0399,-1.0544,-1.0547,-1.0535,-1.0086,-0.9951,-1.011,-1.0244,-1.0301,-1.0364,-1.0491,-1.0624,-1.0618,-1.0744,-1.0807,-1.0926,-1.1593,-1.2074,-1.2258,-1.3364,-1.4034,-1.4264,-1.5186,-1.5556,-1.5798,-1.5788,-1.5961,-1.6134,-1.656,-1.7313,-1.8147,-1.8471,-1.8951,-1.9279,-1.9604,-1.9656,-1.9708,-1.9708,-1.9747,-1.9759,-1.9747,-1.9747,-1.9798,-1.9798,-1.9952,-2.0333,-2.0966,-2.2161,-2.2905,-2.3406,-2.3595,-2.3551,-2.3566,-2.3566,-2.3595,-2.3595,-2.3595,-2.3638,-2.3664,-2.3522,-2.3167,-2.2686,-2.2169,-2.182,-2.1318,-2.1133,-2.1178,-2.0824,-2.03,-2.0254,-2.0304,-2.0304,-2.0304,-2.0304,-2.0373,-2.0509,-2.0695,-2.0925,0.5704,0.5671,0.5765,0.5609,0.5214,0.4548,0.3988,0.3461,0.2696,0.187,0.1271,0.1158,0.0819,0.0558,0.0425,0.0291,0.0,-0.0076,-0.0461,-0.1173,-0.1253,-0.18,-0.219,-0.2581,-0.3127,-0.3752,-0.4302,-0.4693,-0.5401,-0.5246,-0.5404,-0.5562,-0.5559,-0.6022,-0.6938,-0.8067,-0.8859,-0.8827,-0.8995,-0.9194,-0.9564,-0.9331,-0.939,-0.9856,-0.9977,-1.0021,-1.0078,-1.0262,-1.0332,-1.0401,-1.0528,-1.0618,-1.0744,-1.1351,-1.1655,-1.1958,-1.2818,-1.3494,-1.3855,-1.4519,-1.4883,-1.5303,-1.5604,-1.5778,-1.6228,-1.6436,-1.7157,-1.7875,-1.8201,-1.8738,-1.9291,-1.9473,-1.9525,-1.9512,-1.9512,-1.9565,-1.9604,-1.9656,-1.9656,-1.9747,-1.9798,-2.0105,-2.0446,-2.0696,-2.1738,-2.2515,-2.3024,-2.3377,-2.348,-2.3494,-2.3538,-2.3566,-2.3595,-2.3595,-2.3623,-2.3576,-2.3245,-2.2802,-2.2073,-2.1303,-2.1,-2.0837,-2.0712,-2.0579,-2.0369,-2.0158,-2.0239,-2.0304,-2.0304,-2.0304,-2.0304,-2.0339,-2.0509,-2.0595,-2.0761,0.6157,0.5942,0.5828,0.5728,0.5606,0.5006,0.4491,0.397,0.336,0.2764,0.2149,0.2037,0.1691,0.117,0.0979,0.0715,0.0672,0.0604,0.046,-0.0156,-0.0157,-0.0549,-0.1018,-0.1562,-0.1955,-0.2735,-0.3205,-0.3675,-0.4146,-0.4302,-0.446,-0.4851,-0.5249,-0.5559,-0.6402,-0.7149,-0.7804,-0.7794,-0.797,-0.8299,-0.846,-0.8506,-0.8619,-0.9175,-0.9452,-0.9505,-0.9769,-0.9963,-1.0101,-1.0177,-1.0236,-1.0415,-1.0611,-1.08,-1.1163,-1.1538,-1.2336,-1.307,-1.3734,-1.4341,-1.4824,-1.5186,-1.5313,-1.5594,-1.5979,-1.6036,-1.681,-1.7479,-1.7984,-1.859,-1.9093,-1.921,-1.9328,-1.9316,-1.942,-1.946,-1.9473,-1.9512,-1.9565,-1.9656,-1.9759,-2.0105,-2.051,-2.0858,-2.1286,-2.196,-2.2577,-2.295,-2.3319,-2.3407,-2.3451,-2.3523,-2.3566,-2.3566,-2.3535,-2.3458,-2.3053,-2.2454,-2.1734,-2.1038,-2.0473,-2.0354,-2.0162,-2.008,-2.0104,-2.0158,-2.0239,-2.0304,-2.0304,-2.0304,-2.0304,-2.0373,-2.0494,-2.0561,-2.0613,0.6933,0.6595,0.5924,0.5721,0.5676,0.5718,0.5123,0.4247,0.4112,0.3673,0.2988,0.2975,0.2554,0.2026,0.1932,0.1487,0.0871,0.0743,0.0607,0.0619,0.0541,0.0388,0.0155,-0.031,-0.0851,-0.1244,-0.1793,-0.2409,-0.25,-0.3051,-0.3441,-0.391,-0.4698,-0.5093,-0.5634,-0.6167,-0.6765,-0.6817,-0.7033,-0.7367,-0.759,-0.7449,-0.7877,-0.8372,-0.8639,-0.8906,-0.9242,-0.953,-0.964,-0.9771,-0.9862,-1.0097,-1.0218,-1.0295,-1.0428,-1.0863,-1.1973,-1.2642,-1.3433,-1.4043,-1.4656,-1.4893,-1.5088,-1.5254,-1.542,-1.5526,-1.614,-1.6765,-1.7268,-1.8104,-1.8774,-1.8934,-1.9105,-1.921,-1.9303,-1.9368,-1.938,-1.9433,-1.942,-1.9473,-1.946,-1.972,-2.0118,-2.0523,-2.0848,-2.1264,-2.186,-2.2296,-2.2692,-2.3231,-2.3275,-2.3451,-2.3494,-2.348,-2.3448,-2.3316,-2.3208,-2.276,-2.2009,-2.13,-2.061,-2.0035,-1.9935,-1.9995,-2.0039,-2.0124,-2.0185,-2.0235,-2.0304,-2.0304,-2.0304,-2.0339,-2.0426,-2.046,-2.0512,0.7668,0.7532,0.6813,0.6552,0.6422,0.5936,0.5413,0.5058,0.4979,0.4582,0.3862,0.3899,0.3482,0.2818,0.2301,0.2005,0.1619,0.1287,0.1092,0.1036,0.1052,0.0971,0.0746,0.0449,-0.0075,-0.0532,-0.1071,-0.1386,-0.2104,-0.2423,-0.2973,-0.3597,-0.4384,-0.4701,-0.5093,-0.5401,-0.5622,-0.5857,-0.6075,-0.6334,-0.6561,-0.6515,-0.7047,-0.7643,-0.7845,-0.8242,-0.8766,-0.904,-0.9122,-0.9226,-0.9566,-0.9822,-0.9829,-0.9995,-1.018,-1.018,-1.0793,-1.1406,-1.232,-1.2879,-1.3554,-1.4478,-1.4784,-1.4902,-1.501,-1.5196,-1.5536,-1.6151,-1.6708,-1.749,-1.8213,-1.8548,-1.8827,-1.9052,-1.9158,-1.921,-1.9223,-1.9275,-1.9263,-1.9316,-1.9316,-1.942,-1.9823,-2.008,-2.0398,-2.0751,-2.1135,-2.1547,-2.2058,-2.254,-2.2904,-2.3038,-2.3113,-2.3068,-2.3216,-2.3187,-2.3214,-2.3033,-2.2155,-2.1466,-2.1045,-2.0519,-2.0059,-1.9889,-2.0,-2.005,-2.0131,-2.0166,-2.0235,-2.0304,-2.0304,-2.0304,-2.0323,-2.0357,-2.0426,0.8565,0.8291,0.7637,0.7186,0.6798,0.6079,0.5686,0.5561,0.5428,0.509,0.4755,0.4758,0.4353,0.3685,0.3224,0.2861,0.2586,0.2249,0.1997,0.1602,0.1526,0.1316,0.1167,0.0947,0.0589,0.0149,-0.015,-0.0305,-0.1157,-0.2029,-0.2662,-0.2817,-0.3915,-0.454,-0.4766,-0.4812,-0.4783,-0.4947,-0.514,-0.5331,-0.5544,-0.5579,-0.6254,-0.6863,-0.6989,-0.7414,-0.81,-0.8251,-0.8352,-0.8693,-0.9192,-0.9451,-0.9581,-0.985,-0.9989,-1.011,-1.0541,-1.1212,-1.2012,-1.2512,-1.3252,-1.3923,-1.4359,-1.4488,-1.4734,-1.4911,-1.542,-1.5989,-1.6322,-1.6832,-1.7545,-1.8213,-1.8548,-1.8893,-1.8946,-1.9011,-1.9064,-1.9105,-1.9158,-1.921,-1.9263,-1.9263,-1.9445,-1.9703,-1.9872,-2.0118,-2.0398,-2.0736,-2.1251,-2.1766,-2.2081,-2.2328,-2.242,-2.2498,-2.2694,-2.2801,-2.2672,-2.2367,-2.1708,-2.1175,-2.1119,-2.07,-1.9957,-1.9869,-1.9975,-2.0025,-2.0025,-2.0131,-2.0185,-2.0235,-2.027,-2.0304,-2.0304,-2.0304,-2.0392,0.9533,0.9058,0.8409,0.7767,0.699,0.6342,0.602,0.5958,0.5627,0.5428,0.5425,0.5428,0.5024,0.4486,0.4156,0.3797,0.3303,0.2908,0.2374,0.2166,0.1789,0.1501,0.1218,0.1157,0.0935,0.0875,0.0813,0.0447,0.0151,-0.0764,-0.1696,-0.1874,-0.3193,-0.3962,-0.4103,-0.4134,-0.4173,-0.442,-0.4627,-0.4819,-0.4841,-0.4912,-0.508,-0.5683,-0.5794,-0.5936,-0.6785,-0.7168,-0.7297,-0.7999,-0.8569,-0.8918,-0.9421,-0.9703,-0.9849,-1.0047,-1.0351,-1.0905,-1.1524,-1.202,-1.2887,-1.3502,-1.3881,-1.407,-1.4309,-1.4625,-1.5079,-1.5468,-1.5806,-1.6265,-1.6933,-1.7545,-1.7995,-1.8387,-1.8614,-1.8732,-1.8881,-1.8946,-1.8999,-1.9052,-1.9105,-1.9158,-1.921,-1.9417,-1.947,-1.9577,-1.9708,-2.0055,-2.0409,-2.0881,-2.1272,-2.1609,-2.1799,-2.188,-2.1974,-2.1997,-2.1893,-2.1532,-2.1026,-2.0891,-2.0845,-2.036,-1.9786,-1.9797,-1.9869,-1.9919,-1.999,-2.0061,-2.0115,-2.015,-2.0185,-2.027,-2.0304,-2.0304,-2.0339,1.0296,1.0168,0.9454,0.8742,0.8032,0.7251,0.6859,0.6793,0.6086,0.5822,0.576,0.5756,0.5624,0.5219,0.4755,0.4386,0.4061,0.3404,0.2452,0.2129,0.1929,0.1733,0.1239,0.1248,0.1114,0.1058,0.1072,0.1016,0.0738,0.0,-0.0675,-0.0913,-0.2056,-0.2741,-0.3271,-0.3308,-0.3426,-0.3743,-0.4015,-0.4169,-0.4209,-0.4472,-0.4752,-0.5123,-0.5269,-0.5453,-0.6032,-0.6276,-0.662,-0.7213,-0.7694,-0.8408,-0.925,-0.9512,-0.9594,-0.9664,-0.9919,-1.0415,-1.0905,-1.1399,-1.2081,-1.2826,-1.326,-1.3631,-1.3941,-1.4258,-1.4616,-1.4883,-1.5284,-1.5806,-1.6265,-1.6877,-1.7435,-1.7886,-1.8333,-1.8494,-1.8655,-1.8786,-1.8851,-1.8893,-1.8946,-1.8999,-1.9052,-1.9052,-1.9117,-1.921,-1.9291,-1.95,-1.9552,-1.9952,-2.0484,-2.0832,-2.1224,-2.1355,-2.1307,-2.1192,-2.107,-2.0914,-2.0501,-2.0472,-2.0464,-1.9909,-1.9384,-1.9639,-1.9797,-1.969,-1.969,-1.9935,-1.999,-1.9975,-2.0115,-2.0185,-2.027,-2.027,-2.0304,1.0618,1.0491,0.9779,0.9262,0.8877,0.8091,0.7767,0.7702,0.7256,0.7064,0.6863,0.628,0.5822,0.5752,0.5289,0.509,0.4821,0.4287,0.3832,0.3286,0.248,0.2154,0.1813,0.1479,0.1289,0.1238,0.1258,0.1209,0.1084,0.0365,-0.0295,-0.0371,-0.104,-0.1633,-0.2223,-0.2281,-0.2401,-0.2787,-0.3064,-0.3303,-0.3573,-0.3857,-0.4185,-0.4558,-0.4618,-0.4894,-0.5144,-0.5416,-0.6026,-0.6915,-0.7757,-0.8329,-0.8954,-0.9197,-0.9262,-0.928,-0.9472,-0.9664,-1.0155,-1.0654,-1.1212,-1.202,-1.265,-1.3025,-1.3511,-1.3821,-1.401,-1.435,-1.4923,-1.5381,-1.5555,-1.6063,-1.6528,-1.6978,-1.7545,-1.7875,-1.8267,-1.856,-1.8506,-1.8441,-1.8602,-1.8774,-1.8774,-1.8786,-1.8839,-1.8827,-1.8922,-1.8975,-1.904,-1.9158,-1.9643,-2.0042,-2.0383,-2.0534,-2.0421,-2.0263,-2.0158,-1.9993,-1.9857,-1.9482,-1.9235,-1.9145,-1.9011,-1.9161,-1.9221,-1.9147,-1.9236,-1.9508,-1.9617,-1.9551,-1.9839,-2.0115,-2.015,-2.015,-2.0185,1.0744,1.0555,0.9907,0.9646,0.9582,0.8941,0.8613,0.8613,0.8484,0.8425,0.8231,0.6868,0.628,0.6086,0.5954,0.5958,0.569,0.5084,0.4948,0.455,0.3885,0.3149,0.2547,0.2216,0.1955,0.1628,0.1513,0.1401,0.1285,0.0643,0.0286,0.0,-0.0434,-0.094,-0.1006,-0.1067,-0.1194,-0.1595,-0.1905,-0.2277,-0.2737,-0.3272,-0.3682,-0.3788,-0.374,-0.3931,-0.4262,-0.4649,-0.5295,-0.6357,-0.7474,-0.8138,-0.854,-0.8803,-0.8918,-0.9017,-0.9081,-0.9332,-0.9703,-1.0078,-1.0766,-1.1399,-1.1973,-1.2413,-1.2826,-1.3139,-1.3329,-1.3743,-1.4255,-1.4737,-1.4972,-1.5255,-1.5728,-1.6187,-1.6743,-1.7313,-1.7776,-1.8224,-1.8116,-1.805,-1.8213,-1.8441,-1.8494,-1.8506,-1.8506,-1.8494,-1.8548,-1.8548,-1.8667,-1.8827,-1.9133,-1.9344,-1.9488,-1.954,-1.9592,-1.9484,-1.9443,-1.9217,-1.9068,-1.8449,-1.8113,-1.8375,-1.85,-1.8514,-1.8539,-1.8655,-1.8755,-1.8959,-1.9058,-1.9132,-1.9281,-1.9551,-1.9609,-1.9645,-1.9889,1.1344,1.0744,1.0491,1.0421,1.0421,0.9646,0.939,0.939,0.8807,0.849,0.849,0.8296,0.7707,0.6924,0.6342,0.6148,0.6083,0.5683,0.5147,0.4683,0.4281,0.3813,0.3413,0.3082,0.2882,0.2493,0.1965,0.1564,0.1596,0.1381,0.1245,0.1128,0.12,0.0705,0.0211,0.007,-0.0207,-0.061,-0.1061,-0.1434,-0.2206,-0.279,-0.3503,-0.3542,-0.3484,-0.3463,-0.3526,-0.3523,-0.406,-0.5096,-0.6419,-0.7283,-0.7777,-0.8163,-0.8415,-0.8495,-0.856,-0.8753,-0.9064,-0.932,-0.9824,-1.0325,-1.0773,-1.1024,-1.1454,-1.202,-1.2266,-1.2581,-1.3174,-1.3923,-1.4282,-1.4678,-1.5089,-1.5429,-1.5881,-1.6585,-1.7168,-1.7457,-1.7512,-1.7556,-1.7667,-1.7831,-1.7941,-1.7995,-1.817,-1.8159,-1.8333,-1.8333,-1.8452,-1.8572,-1.8625,-1.8732,-1.8827,-1.9052,-1.9344,-1.9004,-1.8797,-1.8582,-1.8257,-1.7743,-1.758,-1.7935,-1.804,-1.7948,-1.8187,-1.8383,-1.8486,-1.8394,-1.8563,-1.8679,-1.8731,-1.8831,-1.8968,-1.9192,-1.9427]}]]